Wetterdaten: Montag, 22.10.2018
Datum Zeit Temp. A. Pool Temp. Temp. 5cm Feuchte A. Luftdruck Regen Wind Richtung Richtung Sonnenschein ET UV Solar Taupunkt Windchill Windben Empfang
22.10.2018 00:00 8,1 C 11,7 C 7,2 C 85 % 1026,8 hPa 0,0 l/m 0,0 km/h (0 Bft) S-SW 200 0 min 0,000 mm 0,0 UV-I 0 W/m 5,7 C 8,1 C 0,0 km/h (0 Bft) 91,67 %
22.10.2018 00:02 8,1 C 11,7 C 7,2 C 85 % 1026,8 hPa 0,0 l/m 0,0 km/h (0 Bft) S-SW 200 0 min 0,000 mm 0,0 UV-I 0 W/m 5,7 C 8,1 C 0,0 km/h (0 Bft) 97,62 %
22.10.2018 00:04 8,1 C 11,7 C 7,2 C 85 % 1026,8 hPa 0,0 l/m 0,0 km/h (0 Bft) S-SW 200 0 min 0,000 mm 0,0 UV-I 0 W/m 5,7 C 8,1 C 0,0 km/h (0 Bft) 97,87 %
22.10.2018 00:06 8,1 C 11,7 C 7,2 C 85 % 1026,8 hPa 0,0 l/m 0,4 km/h (0 Bft) S-SW 200 0 min 0,000 mm 0,0 UV-I 0 W/m 5,7 C 8,1 C 1,6 km/h (1 Bft) 97,87 %
22.10.2018 00:08 8,1 C 11,7 C 7,2 C 84 % 1026,7 hPa 0,0 l/m 2,0 km/h (1 Bft) S-SW 200 0 min 0,000 mm 0,0 UV-I 0 W/m 5,6 C 8,1 C 3,2 km/h (1 Bft) 98,00 %
22.10.2018 00:10 8,1 C 11,7 C 7,2 C 85 % 1026,7 hPa 0,0 l/m 1,6 km/h (1 Bft) S-SW 200 0 min 0,000 mm 0,0 UV-I 0 W/m 5,7 C 8,1 C 3,2 km/h (1 Bft) 97,87 %
22.10.2018 00:12 8,0 C 11,7 C 7,2 C 85 % 1026,6 hPa 0,0 l/m 1,3 km/h (1 Bft) S-SW 200 0 min 0,000 mm 0,0 UV-I 0 W/m 5,6 C 8,0 C 3,2 km/h (1 Bft) 97,14 %
22.10.2018 00:14 7,9 C 11,7 C 7,2 C 85 % 1026,6 hPa 0,0 l/m 1,3 km/h (1 Bft) S-SW 200 0 min 0,000 mm 0,0 UV-I 0 W/m 5,5 C 7,9 C 3,2 km/h (1 Bft) 100,00 %
22.10.2018 00:16 7,9 C 11,7 C 7,2 C 85 % 1026,6 hPa 0,0 l/m 1,6 km/h (1 Bft) S-SW 200 0 min 0,000 mm 0,0 UV-I 0 W/m 5,5 C 7,9 C 3,2 km/h (1 Bft) 97,87 %
22.10.2018 00:18 7,9 C 11,7 C 7,2 C 86 % 1026,6 hPa 0,0 l/m 0,7 km/h (0 Bft) S-SW 200 0 min 0,000 mm 0,0 UV-I 0 W/m 5,7 C 7,9 C 1,6 km/h (1 Bft) 100,00 %
22.10.2018 00:20 7,8 C 11,7 C 7,2 C 86 % 1026,6 hPa 0,0 l/m 0,0 km/h (0 Bft) S-SW 200 0 min 0,000 mm 0,0 UV-I 0 W/m 5,6 C 7,8 C 0,0 km/h (0 Bft) 100,00 %
22.10.2018 00:22 7,7 C 11,7 C 7,2 C 87 % 1026,6 hPa 0,0 l/m 0,0 km/h (0 Bft) S-SW 200 0 min 0,000 mm 0,0 UV-I 0 W/m 5,7 C 7,7 C 0,0 km/h (0 Bft) 100,00 %
22.10.2018 00:24 7,7 C 11,7 C 7,2 C 87 % 1026,6 hPa 0,0 l/m 0,0 km/h (0 Bft) S-SW 200 0 min 0,000 mm 0,0 UV-I 0 W/m 5,7 C 7,7 C 0,0 km/h (0 Bft) 100,00 %
22.10.2018 00:26 7,8 C 11,7 C 7,2 C 86 % 1026,6 hPa 0,0 l/m 0,0 km/h (0 Bft) S-SW 200 0 min 0,000 mm 0,0 UV-I 0 W/m 5,6 C 7,8 C 0,0 km/h (0 Bft) 100,00 %
22.10.2018 00:28 7,8 C 11,7 C 6,7 C 86 % 1026,5 hPa 0,0 l/m 0,0 km/h (0 Bft) S-SW 200 0 min 0,000 mm 0,0 UV-I 0 W/m 5,6 C 7,8 C 0,0 km/h (0 Bft) 100,00 %
22.10.2018 00:30 7,8 C 11,7 C 6,7 C 85 % 1026,5 hPa 0,0 l/m 0,0 km/h (0 Bft) S-SW 200 0 min 0,000 mm 0,0 UV-I 0 W/m 5,4 C 7,8 C 0,0 km/h (0 Bft) 100,00 %
22.10.2018 00:32 7,8 C 11,7 C 6,7 C 86 % 1026,5 hPa 0,0 l/m 0,0 km/h (0 Bft) S-SW 200 0 min 0,000 mm 0,0 UV-I 0 W/m 5,6 C 7,8 C 0,0 km/h (0 Bft) 100,00 %
22.10.2018 00:34 7,7 C 11,7 C 6,7 C 87 % 1026,5 hPa 0,0 l/m 0,8 km/h (0 Bft) S-SW 200 0 min 0,000 mm 0,0 UV-I 0 W/m 5,7 C 7,7 C 3,2 km/h (1 Bft) 100,00 %
22.10.2018 00:36 7,6 C 11,7 C 6,7 C 87 % 1026,5 hPa 0,0 l/m 1,3 km/h (1 Bft) S-SW 200 0 min 0,000 mm 0,0 UV-I 0 W/m 5,6 C 7,6 C 1,6 km/h (1 Bft) 97,56 %
22.10.2018 00:38 7,6 C 11,7 C 6,1 C 87 % 1026,6 hPa 0,0 l/m 1,4 km/h (1 Bft) S-SW 200 0 min 0,000 mm 0,0 UV-I 0 W/m 5,6 C 7,6 C 1,6 km/h (1 Bft) 100,00 %
22.10.2018 00:40 7,4 C 11,7 C 6,1 C 88 % 1026,5 hPa 0,0 l/m 0,2 km/h (0 Bft) S-SW 200 0 min 0,000 mm 0,0 UV-I 0 W/m 5,5 C 7,4 C 1,6 km/h (1 Bft) 100,00 %
22.10.2018 00:42 7,4 C 11,7 C 5,6 C 88 % 1026,5 hPa 0,0 l/m 0,0 km/h (0 Bft) S-SW 200 0 min 0,000 mm 0,0 UV-I 0 W/m 5,5 C 7,4 C 0,0 km/h (0 Bft) 100,00 %
22.10.2018 00:44 7,3 C 11,7 C 5,6 C 89 % 1026,6 hPa 0,0 l/m 0,0 km/h (0 Bft) S-SW 200 0 min 0,000 mm 0,0 UV-I 0 W/m 5,6 C 7,3 C 0,0 km/h (0 Bft) 97,87 %
22.10.2018 00:46 7,2 C 11,7 C 5,0 C 89 % 1026,5 hPa 0,0 l/m 0,0 km/h (0 Bft) S-SW 200 0 min 0,000 mm 0,0 UV-I 0 W/m 5,5 C 7,2 C 0,0 km/h (0 Bft) 100,00 %
22.10.2018 00:48 7,2 C 11,7 C 4,4 C 89 % 1026,5 hPa 0,0 l/m 0,0 km/h (0 Bft) S-SW 200 0 min 0,000 mm 0,0 UV-I 0 W/m 5,5 C 7,2 C 0,0 km/h (0 Bft) 100,00 %
22.10.2018 00:50 7,2 C 11,7 C 3,9 C 88 % 1026,5 hPa 0,0 l/m 0,0 km/h (0 Bft) S-SW 200 0 min 0,000 mm 0,0 UV-I 0 W/m 5,3 C 7,2 C 0,0 km/h (0 Bft) 100,00 %
22.10.2018 00:52 7,3 C 11,7 C 3,9 C 88 % 1026,5 hPa 0,0 l/m 0,0 km/h (0 Bft) S-SW 200 0 min 0,000 mm 0,0 UV-I 0 W/m 5,4 C 7,3 C 0,0 km/h (0 Bft) 97,56 %
22.10.2018 00:54 7,3 C 11,7 C 3,9 C 87 % 1026,4 hPa 0,0 l/m 0,1 km/h (0 Bft) S-SW 200 0 min 0,000 mm 0,0 UV-I 0 W/m 5,3 C 7,3 C 1,6 km/h (1 Bft) 100,00 %
22.10.2018 00:56 7,1 C 11,7 C 3,3 C 87 % 1026,4 hPa 0,0 l/m 1,5 km/h (1 Bft) S-SW 200 0 min 0,000 mm 0,0 UV-I 0 W/m 5,1 C 7,1 C 1,6 km/h (1 Bft) 97,87 %
22.10.2018 00:58 6,7 C 11,7 C 3,3 C 87 % 1026,4 hPa 0,0 l/m 1,9 km/h (1 Bft) S-SW 200 0 min 0,000 mm 0,0 UV-I 0 W/m 4,7 C 6,7 C 3,2 km/h (1 Bft) 100,00 %
22.10.2018 01:00 6,5 C 11,7 C 2,8 C 88 % 1026,4 hPa 0,0 l/m 1,7 km/h (1 Bft) S-SW 200 0 min 0,000 mm 0,0 UV-I 0 W/m 4,7 C 6,5 C 3,2 km/h (1 Bft) 100,00 %
22.10.2018 01:02 6,4 C 11,7 C 2,8 C 88 % 1026,3 hPa 0,0 l/m 2,3 km/h (1 Bft) S-SW 200 0 min 0,000 mm 0,0 UV-I 0 W/m 4,6 C 6,4 C 3,2 km/h (1 Bft) 98,00 %
22.10.2018 01:04 6,2 C 11,7 C 2,8 C 88 % 1026,4 hPa 0,0 l/m 2,9 km/h (1 Bft) S-SW 200 0 min 0,000 mm 0,0 UV-I 0 W/m 4,4 C 6,2 C 3,2 km/h (1 Bft) 100,00 %
22.10.2018 01:06 6,0 C 11,7 C 2,2 C 89 % 1026,4 hPa 0,0 l/m 2,6 km/h (1 Bft) S-SW 200 0 min 0,000 mm 0,0 UV-I 0 W/m 4,3 C 6,0 C 3,2 km/h (1 Bft) 100,00 %
22.10.2018 01:08 5,8 C 11,7 C 2,2 C 89 % 1026,4 hPa 0,0 l/m 0,9 km/h (0 Bft) S-SW 200 0 min 0,000 mm 0,0 UV-I 0 W/m 4,1 C 5,8 C 1,6 km/h (1 Bft) 95,12 %
22.10.2018 01:10 5,9 C 11,7 C 2,2 C 90 % 1026,4 hPa 0,0 l/m 0,0 km/h (0 Bft) S-SW 200 0 min 0,000 mm 0,0 UV-I 0 W/m 4,4 C 5,9 C 0,0 km/h (0 Bft) 100,00 %
22.10.2018 01:12 6,1 C 11,7 C 1,7 C 90 % 1026,4 hPa 0,0 l/m 0,0 km/h (0 Bft) S-SW 200 0 min 0,000 mm 0,0 UV-I 0 W/m 4,6 C 6,1 C 0,0 km/h (0 Bft) 94,34 %
22.10.2018 01:14 6,2 C 11,7 C 1,7 C 90 % 1026,4 hPa 0,0 l/m 0,0 km/h (0 Bft) S-SW 200 0 min 0,000 mm 0,0 UV-I 0 W/m 4,7 C 6,2 C 0,0 km/h (0 Bft) 97,56 %
22.10.2018 01:16 6,2 C 11,7 C 1,7 C 89 % 1026,3 hPa 0,0 l/m 0,0 km/h (0 Bft) S-SW 200 0 min 0,000 mm 0,0 UV-I 0 W/m 4,5 C 6,2 C 0,0 km/h (0 Bft) 95,24 %
22.10.2018 01:18 6,2 C 11,7 C 2,2 C 88 % 1026,4 hPa 0,0 l/m 0,0 km/h (0 Bft) S-SW 200 0 min 0,000 mm 0,0 UV-I 0 W/m 4,4 C 6,2 C 0,0 km/h (0 Bft) 92,73 %
22.10.2018 01:20 6,0 C 11,7 C 2,2 C 88 % 1026,3 hPa 0,0 l/m 1,0 km/h (0 Bft) S-SW 200 0 min 0,000 mm 0,0 UV-I 0 W/m 4,2 C 6,0 C 1,6 km/h (1 Bft) 95,83 %
22.10.2018 01:22 5,9 C 11,7 C 1,7 C 89 % 1026,3 hPa 0,0 l/m 0,9 km/h (0 Bft) S-SW 200 0 min 0,000 mm 0,0 UV-I 0 W/m 4,2 C 5,9 C 1,6 km/h (1 Bft) 95,12 %
22.10.2018 01:24 5,9 C 11,7 C 1,7 C 89 % 1026,4 hPa 0,0 l/m 1,0 km/h (0 Bft) S-SW 200 0 min 0,000 mm 0,0 UV-I 0 W/m 4,2 C 5,9 C 1,6 km/h (1 Bft) 95,74 %
22.10.2018 01:26 5,7 C 11,7 C 1,7 C 88 % 1026,4 hPa 0,0 l/m 1,8 km/h (1 Bft) S-SW 200 0 min 0,000 mm 0,0 UV-I 0 W/m 3,9 C 5,7 C 3,2 km/h (1 Bft) 95,74 %
22.10.2018 01:28 5,6 C 11,7 C 1,7 C 88 % 1026,3 hPa 0,0 l/m 2,1 km/h (1 Bft) S-SW 200 0 min 0,000 mm 0,0 UV-I 0 W/m 3,8 C 5,6 C 3,2 km/h (1 Bft) 95,74 %
22.10.2018 01:30 5,6 C 11,7 C 2,2 C 89 % 1026,3 hPa 0,0 l/m 2,0 km/h (1 Bft) S-SW 200 0 min 0,000 mm 0,0 UV-I 0 W/m 3,9 C 5,6 C 3,2 km/h (1 Bft) 94,00 %
22.10.2018 01:32 5,6 C 11,7 C 2,2 C 89 % 1026,3 hPa 0,0 l/m 2,5 km/h (1 Bft) S-SW 200 0 min 0,000 mm 0,0 UV-I 0 W/m 3,9 C 5,6 C 3,2 km/h (1 Bft) 92,00 %
22.10.2018 01:34 5,4 C 11,7 C 1,7 C 89 % 1026,3 hPa 0,0 l/m 3,1 km/h (1 Bft) S-SW 200 0 min 0,000 mm 0,0 UV-I 0 W/m 3,7 C 5,4 C 4,8 km/h (1 Bft) 92,11 %
22.10.2018 01:36 5,2 C 11,7 C 1,7 C 88 % 1026,3 hPa 0,0 l/m 3,6 km/h (1 Bft) S-SW 200 0 min 0,000 mm 0,0 UV-I 0 W/m 3,4 C 5,2 C 4,8 km/h (1 Bft) 95,74 %
22.10.2018 01:38 5,1 C 11,7 C 1,7 C 89 % 1026,3 hPa 0,0 l/m 4,1 km/h (1 Bft) S-SW 200 0 min 0,000 mm 0,0 UV-I 0 W/m 3,4 C 5,1 C 4,8 km/h (1 Bft) 97,87 %
22.10.2018 01:40 4,9 C 11,7 C 1,7 C 90 % 1026,3 hPa 0,0 l/m 4,4 km/h (1 Bft) S-SW 200 0 min 0,000 mm 0,0 UV-I 0 W/m 3,4 C 4,9 C 6,4 km/h (2 Bft) 92,86 %
22.10.2018 01:42 4,7 C 11,7 C 1,1 C 90 % 1026,3 hPa 0,0 l/m 3,4 km/h (1 Bft) S-SW 200 0 min 0,000 mm 0,0 UV-I 0 W/m 3,2 C 4,7 C 4,8 km/h (1 Bft) 97,14 %
22.10.2018 01:44 4,7 C 11,7 C 1,1 C 90 % 1026,3 hPa 0,0 l/m 3,2 km/h (1 Bft) S-SW 200 0 min 0,000 mm 0,0 UV-I 0 W/m 3,2 C 4,7 C 4,8 km/h (1 Bft) 92,45 %
22.10.2018 01:46 4,8 C 11,7 C 1,1 C 91 % 1026,2 hPa 0,0 l/m 4,4 km/h (1 Bft) S-SW 200 0 min 0,000 mm 0,0 UV-I 0 W/m 3,5 C 4,8 C 4,8 km/h (1 Bft) 96,23 %
22.10.2018 01:48 5,0 C 11,7 C 2,2 C 91 % 1026,3 hPa 0,0 l/m 3,7 km/h (1 Bft) S-SW 200 0 min 0,000 mm 0,0 UV-I 0 W/m 3,7 C 5,0 C 4,8 km/h (1 Bft) 97,37 %
22.10.2018 01:50 5,2 C 11,7 C 2,2 C 91 % 1026,2 hPa 0,0 l/m 3,1 km/h (1 Bft) S-SW 200 0 min 0,000 mm 0,0 UV-I 0 W/m 3,9 C 5,2 C 4,8 km/h (1 Bft) 98,00 %
22.10.2018 01:52 5,1 C 11,7 C 2,2 C 90 % 1026,2 hPa 0,0 l/m 3,3 km/h (1 Bft) S-SW 200 0 min 0,000 mm 0,0 UV-I 0 W/m 3,6 C 5,1 C 4,8 km/h (1 Bft) 97,87 %
22.10.2018 01:54 5,1 C 11,7 C 1,7 C 90 % 1026,2 hPa 0,0 l/m 2,6 km/h (1 Bft) S-SW 200 0 min 0,000 mm 0,0 UV-I 0 W/m 3,6 C 5,1 C 4,8 km/h (1 Bft) 98,00 %
22.10.2018 01:56 5,2 C 11,7 C 1,7 C 91 % 1026,2 hPa 0,0 l/m 2,0 km/h (1 Bft) S-SW 200 0 min 0,000 mm 0,0 UV-I 0 W/m 3,9 C 5,2 C 3,2 km/h (1 Bft) 97,62 %
22.10.2018 01:58 5,2 C 11,7 C 1,7 C 91 % 1026,2 hPa 0,0 l/m 1,9 km/h (1 Bft) S-SW 200 0 min 0,000 mm 0,0 UV-I 0 W/m 3,9 C 5,2 C 3,2 km/h (1 Bft) 98,00 %
22.10.2018 02:00 5,1 C 11,7 C 1,1 C 90 % 1026,2 hPa 0,0 l/m 0,4 km/h (0 Bft) S-SW 200 0 min 0,000 mm 0,0 UV-I 0 W/m 3,6 C 5,1 C 1,6 km/h (1 Bft) 98,00 %
22.10.2018 02:02 4,9 C 11,7 C 1,1 C 90 % 1026,2 hPa 0,0 l/m 0,3 km/h (0 Bft) S-SW 200 0 min 0,000 mm 0,0 UV-I 0 W/m 3,4 C 4,9 C 1,6 km/h (1 Bft) 94,74 %
22.10.2018 02:04 4,9 C 11,7 C 1,1 C 90 % 1026,2 hPa 0,0 l/m 1,8 km/h (1 Bft) S-SW 200 0 min 0,000 mm 0,0 UV-I 0 W/m 3,4 C 4,9 C 3,2 km/h (1 Bft) 94,34 %
22.10.2018 02:06 4,9 C 11,7 C 1,7 C 90 % 1026,2 hPa 0,0 l/m 2,6 km/h (1 Bft) S-SW 200 0 min 0,000 mm 0,0 UV-I 0 W/m 3,4 C 4,9 C 3,2 km/h (1 Bft) 97,87 %
22.10.2018 02:08 4,8 C 11,7 C 1,7 C 90 % 1026,2 hPa 0,0 l/m 3,0 km/h (1 Bft) S-SW 200 0 min 0,000 mm 0,0 UV-I 0 W/m 3,3 C 4,8 C 3,2 km/h (1 Bft) 97,87 %
22.10.2018 02:10 4,6 C 11,7 C 1,7 C 89 % 1026,2 hPa 0,0 l/m 2,1 km/h (1 Bft) S-SW 200 0 min 0,000 mm 0,0 UV-I 0 W/m 2,9 C 4,6 C 3,2 km/h (1 Bft) 95,12 %
22.10.2018 02:12 4,4 C 11,7 C 1,7 C 89 % 1026,2 hPa 0,0 l/m 1,9 km/h (1 Bft) S-SW 200 0 min 0,000 mm 0,0 UV-I 0 W/m 2,7 C 4,4 C 3,2 km/h (1 Bft) 98,11 %
22.10.2018 02:14 4,2 C 11,7 C 1,7 C 90 % 1026,2 hPa 0,0 l/m 2,2 km/h (1 Bft) S-SW 200 0 min 0,000 mm 0,0 UV-I 0 W/m 2,7 C 4,2 C 3,2 km/h (1 Bft) 98,00 %
22.10.2018 02:16 4,2 C 11,7 C 1,7 C 91 % 1026,2 hPa 0,0 l/m 1,8 km/h (1 Bft) S-SW 200 0 min 0,000 mm 0,0 UV-I 0 W/m 2,9 C 4,2 C 3,2 km/h (1 Bft) 97,37 %
22.10.2018 02:18 4,2 C 11,7 C 1,7 C 91 % 1026,2 hPa 0,0 l/m 1,4 km/h (1 Bft) S-SW 200 0 min 0,000 mm 0,0 UV-I 0 W/m 2,9 C 4,2 C 1,6 km/h (1 Bft) 100,00 %
22.10.2018 02:20 4,2 C 11,7 C 1,1 C 91 % 1026,2 hPa 0,0 l/m 1,5 km/h (1 Bft) S-SW 200 0 min 0,000 mm 0,0 UV-I 0 W/m 2,9 C 4,2 C 3,2 km/h (1 Bft) 97,87 %
22.10.2018 02:22 4,3 C 11,7 C 1,1 C 91 % 1026,2 hPa 0,0 l/m 2,2 km/h (1 Bft) S-SW 200 0 min 0,000 mm 0,0 UV-I 0 W/m 3,0 C 4,3 C 3,2 km/h (1 Bft) 98,00 %
22.10.2018 02:24 4,3 C 11,7 C 0,6 C 91 % 1026,2 hPa 0,0 l/m 2,5 km/h (1 Bft) S-SW 200 0 min 0,000 mm 0,0 UV-I 0 W/m 3,0 C 4,3 C 3,2 km/h (1 Bft) 98,00 %
22.10.2018 02:26 4,4 C 11,7 C 0,6 C 92 % 1026,2 hPa 0,0 l/m 2,1 km/h (1 Bft) S-SW 200 0 min 0,000 mm 0,0 UV-I 0 W/m 3,2 C 4,4 C 3,2 km/h (1 Bft) 97,73 %
22.10.2018 02:28 4,4 C 11,7 C 0,6 C 91 % 1026,2 hPa 0,0 l/m 1,2 km/h (1 Bft) S-SW 200 0 min 0,000 mm 0,0 UV-I 0 W/m 3,1 C 4,4 C 1,6 km/h (1 Bft) 100,00 %
22.10.2018 02:30 4,4 C 11,7 C 0,0 C 91 % 1026,1 hPa 0,0 l/m 1,5 km/h (1 Bft) S-SW 200 0 min 0,000 mm 0,0 UV-I 0 W/m 3,1 C 4,4 C 1,6 km/h (1 Bft) 98,00 %
22.10.2018 02:32 4,6 C 11,7 C 0,6 C 91 % 1026,2 hPa 0,0 l/m 2,4 km/h (1 Bft) S-SW 200 0 min 0,000 mm 0,0 UV-I 0 W/m 3,3 C 4,6 C 3,2 km/h (1 Bft) 96,00 %
22.10.2018 02:34 4,5 C 11,7 C 1,1 C 91 % 1026,2 hPa 0,0 l/m 3,1 km/h (1 Bft) S-SW 200 0 min 0,000 mm 0,0 UV-I 0 W/m 3,2 C 4,5 C 4,8 km/h (1 Bft) 97,87 %
22.10.2018 02:36 4,3 C 11,7 C 1,1 C 91 % 1026,1 hPa 0,0 l/m 3,1 km/h (1 Bft) S-SW 200 0 min 0,000 mm 0,0 UV-I 0 W/m 3,0 C 4,3 C 4,8 km/h (1 Bft) 96,00 %
22.10.2018 02:38 4,2 C 11,7 C 0,6 C 91 % 1026,1 hPa 0,0 l/m 2,6 km/h (1 Bft) S-SW 200 0 min 0,000 mm 0,0 UV-I 0 W/m 2,9 C 4,2 C 4,8 km/h (1 Bft) 100,00 %
22.10.2018 02:40 4,1 C 11,7 C 0,6 C 91 % 1026,1 hPa 0,0 l/m 2,7 km/h (1 Bft) S-SW 200 0 min 0,000 mm 0,0 UV-I 0 W/m 2,8 C 4,1 C 3,2 km/h (1 Bft) 92,45 %
22.10.2018 02:42 4,1 C 11,7 C 0,6 C 91 % 1026,1 hPa 0,0 l/m 2,7 km/h (1 Bft) S-SW 200 0 min 0,000 mm 0,0 UV-I 0 W/m 2,8 C 4,1 C 3,2 km/h (1 Bft) 95,74 %
22.10.2018 02:44 4,0 C 11,7 C 0,6 C 92 % 1026,1 hPa 0,0 l/m 2,8 km/h (1 Bft) S-SW 200 0 min 0,000 mm 0,0 UV-I 0 W/m 2,8 C 4,0 C 4,8 km/h (1 Bft) 97,87 %
22.10.2018 02:46 4,1 C 11,7 C 0,6 C 92 % 1026,1 hPa 0,0 l/m 2,8 km/h (1 Bft) S-SW 200 0 min 0,000 mm 0,0 UV-I 0 W/m 2,9 C 4,1 C 4,8 km/h (1 Bft) 98,00 %
22.10.2018 02:48 4,3 C 11,7 C 1,1 C 92 % 1026,1 hPa 0,0 l/m 1,9 km/h (1 Bft) S-SW 200 0 min 0,000 mm 0,0 UV-I 0 W/m 3,1 C 4,3 C 3,2 km/h (1 Bft) 97,87 %
22.10.2018 02:50 4,3 C 11,7 C 1,1 C 92 % 1026,0 hPa 0,0 l/m 2,7 km/h (1 Bft) S-SW 200 0 min 0,000 mm 0,0 UV-I 0 W/m 3,1 C 4,3 C 3,2 km/h (1 Bft) 100,00 %
22.10.2018 02:52 4,2 C 11,7 C 0,6 C 91 % 1026,0 hPa 0,0 l/m 2,5 km/h (1 Bft) S-SW 200 0 min 0,000 mm 0,0 UV-I 0 W/m 2,9 C 4,2 C 3,2 km/h (1 Bft) 98,00 %
22.10.2018 02:54 4,1 C 11,7 C 0,6 C 92 % 1026,1 hPa 0,0 l/m 2,0 km/h (1 Bft) S-SW 200 0 min 0,000 mm 0,0 UV-I 0 W/m 2,9 C 4,1 C 3,2 km/h (1 Bft) 100,00 %
22.10.2018 02:56 4,1 C 11,7 C 0,0 C 92 % 1026,0 hPa 0,0 l/m 1,2 km/h (1 Bft) S-SW 200 0 min 0,000 mm 0,0 UV-I 0 W/m 2,9 C 4,1 C 1,6 km/h (1 Bft) 100,00 %
22.10.2018 02:58 4,0 C 11,7 C 0,0 C 92 % 1026,0 hPa 0,0 l/m 1,9 km/h (1 Bft) S-SW 200 0 min 0,000 mm 0,0 UV-I 0 W/m 2,8 C 4,0 C 3,2 km/h (1 Bft) 100,00 %
22.10.2018 03:00 3,9 C 11,7 C 0,0 C 92 % 1026,0 hPa 0,0 l/m 1,8 km/h (1 Bft) S-SW 200 0 min 0,000 mm 0,0 UV-I 0 W/m 2,7 C 3,9 C 3,2 km/h (1 Bft) 100,00 %
22.10.2018 03:02 3,8 C 11,7 C 0,0 C 92 % 1026,0 hPa 0,0 l/m 1,5 km/h (1 Bft) S-SW 200 0 min 0,000 mm 0,0 UV-I 0 W/m 2,6 C 3,8 C 3,2 km/h (1 Bft) 100,00 %
22.10.2018 03:04 3,8 C 11,7 C 0,0 C 92 % 1026,0 hPa 0,0 l/m 1,7 km/h (1 Bft) S-SW 200 0 min 0,000 mm 0,0 UV-I 0 W/m 2,6 C 3,8 C 3,2 km/h (1 Bft) 97,37 %
22.10.2018 03:06 3,8 C 11,7 C 0,0 C 92 % 1026,0 hPa 0,0 l/m 2,3 km/h (1 Bft) S-SW 200 0 min 0,000 mm 0,0 UV-I 0 W/m 2,6 C 3,8 C 3,2 km/h (1 Bft) 100,00 %
22.10.2018 03:08 3,9 C 11,7 C 0,6 C 92 % 1025,9 hPa 0,0 l/m 2,8 km/h (1 Bft) S-SW 200 0 min 0,000 mm 0,0 UV-I 0 W/m 2,7 C 3,9 C 3,2 km/h (1 Bft) 100,00 %
22.10.2018 03:10 3,9 C 11,7 C 0,6 C 93 % 1025,9 hPa 0,0 l/m 2,2 km/h (1 Bft) S-SW 200 0 min 0,000 mm 0,0 UV-I 0 W/m 2,9 C 3,9 C 3,2 km/h (1 Bft) 98,00 %
22.10.2018 03:12 3,9 C 11,7 C 0,0 C 93 % 1025,9 hPa 0,0 l/m 1,6 km/h (1 Bft) S-SW 200 0 min 0,000 mm 0,0 UV-I 0 W/m 2,9 C 3,9 C 3,2 km/h (1 Bft) 100,00 %
22.10.2018 03:14 3,8 C 11,7 C 0,0 C 92 % 1025,9 hPa 0,0 l/m 1,5 km/h (1 Bft) S-SW 200 0 min 0,000 mm 0,0 UV-I 0 W/m 2,6 C 3,8 C 1,6 km/h (1 Bft) 100,00 %
22.10.2018 03:16 3,8 C 11,7 C 0,0 C 92 % 1025,9 hPa 0,0 l/m 0,7 km/h (0 Bft) S-SW 200 0 min 0,000 mm 0,0 UV-I 0 W/m 2,6 C 3,8 C 1,6 km/h (1 Bft) 100,00 %
22.10.2018 03:18 3,9 C 11,7 C -0,6 C 92 % 1025,9 hPa 0,0 l/m 0,0 km/h (0 Bft) S-SW 200 0 min 0,000 mm 0,0 UV-I 0 W/m 2,7 C 3,9 C 0,0 km/h (0 Bft) 100,00 %
22.10.2018 03:20 3,9 C 11,7 C -0,6 C 93 % 1025,9 hPa 0,0 l/m 0,0 km/h (0 Bft) S-SW 200 0 min 0,000 mm 0,0 UV-I 0 W/m 2,9 C 3,9 C 0,0 km/h (0 Bft) 97,56 %
22.10.2018 03:22 4,1 C 11,7 C -0,6 C 93 % 1025,9 hPa 0,0 l/m 0,0 km/h (0 Bft) S-SW 200 0 min 0,000 mm 0,0 UV-I 0 W/m 3,1 C 4,1 C 0,0 km/h (0 Bft) 100,00 %
22.10.2018 03:24 4,1 C 11,7 C 0,0 C 93 % 1025,9 hPa 0,0 l/m 0,8 km/h (0 Bft) S-SW 200 0 min 0,000 mm 0,0 UV-I 0 W/m 3,1 C 4,1 C 3,2 km/h (1 Bft) 100,00 %
22.10.2018 03:26 4,1 C 11,7 C 0,0 C 93 % 1025,9 hPa 0,0 l/m 3,1 km/h (1 Bft) S-SW 200 0 min 0,000 mm 0,0 UV-I 0 W/m 3,1 C 4,1 C 3,2 km/h (1 Bft) 100,00 %
22.10.2018 03:28 3,9 C 11,7 C 0,6 C 92 % 1025,9 hPa 0,0 l/m 1,8 km/h (1 Bft) S-SW 200 0 min 0,000 mm 0,0 UV-I 0 W/m 2,7 C 3,9 C 3,2 km/h (1 Bft) 98,00 %
22.10.2018 03:30 3,6 C 11,7 C 0,6 C 91 % 1025,8 hPa 0,0 l/m 1,6 km/h (1 Bft) S-SW 200 0 min 0,000 mm 0,0 UV-I 0 W/m 2,3 C 3,6 C 3,2 km/h (1 Bft) 100,00 %
22.10.2018 03:32 3,3 C 11,7 C 0,0 C 91 % 1025,8 hPa 0,0 l/m 1,9 km/h (1 Bft) S-SW 200 0 min 0,000 mm 0,0 UV-I 0 W/m 2,0 C 3,3 C 3,2 km/h (1 Bft) 97,56 %
22.10.2018 03:35 3,2 C 11,7 C 0,6 C 92 % 1025,8 hPa 0,0 l/m 1,1 km/h (1 Bft) S-SW 200 0 min 0,000 mm 0,0 UV-I 0 W/m 2,0 C 3,2 C 1,6 km/h (1 Bft) 98,65 %
22.10.2018 03:36 3,2 C 11,7 C 0,6 C 92 % 1025,8 hPa 0,0 l/m 0,5 km/h (0 Bft) S-SW 200 0 min 0,000 mm 0,0 UV-I 0 W/m 2,0 C 3,2 C 1,6 km/h (1 Bft) 96,15 %
22.10.2018 03:38 3,3 C 11,7 C 0,0 C 93 % 1025,8 hPa 0,0 l/m 0,0 km/h (0 Bft) S-SW 200 0 min 0,000 mm 0,0 UV-I 0 W/m 2,3 C 3,3 C 1,6 km/h (1 Bft) 95,74 %
22.10.2018 03:40 3,4 C 11,7 C 0,0 C 93 % 1025,8 hPa 0,0 l/m 0,0 km/h (0 Bft) S-SW 200 0 min 0,000 mm 0,0 UV-I 0 W/m 2,4 C 3,4 C 0,0 km/h (0 Bft) 97,87 %
22.10.2018 03:42 3,6 C 11,7 C -0,6 C 93 % 1025,8 hPa 0,0 l/m 0,0 km/h (0 Bft) S-SW 200 0 min 0,000 mm 0,0 UV-I 0 W/m 2,6 C 3,6 C 0,0 km/h (0 Bft) 96,00 %
22.10.2018 03:44 3,7 C 11,7 C 0,0 C 93 % 1025,9 hPa 0,0 l/m 0,0 km/h (0 Bft) S-SW 200 0 min 0,000 mm 0,0 UV-I 0 W/m 2,7 C 3,7 C 0,0 km/h (0 Bft) 91,67 %
22.10.2018 03:46 3,7 C 11,7 C 0,0 C 93 % 1025,8 hPa 0,0 l/m 0,5 km/h (0 Bft) S-SW 200 0 min 0,000 mm 0,0 UV-I 0 W/m 2,7 C 3,7 C 1,6 km/h (1 Bft) 94,29 %
22.10.2018 03:48 3,6 C 11,7 C 0,0 C 92 % 1025,9 hPa 0,0 l/m 1,1 km/h (1 Bft) S-SW 200 0 min 0,000 mm 0,0 UV-I 0 W/m 2,4 C 3,6 C 1,6 km/h (1 Bft) 94,44 %
22.10.2018 03:50 3,5 C 11,7 C 0,0 C 92 % 1025,9 hPa 0,0 l/m 1,5 km/h (1 Bft) S-SW 200 0 min 0,000 mm 0,0 UV-I 0 W/m 2,3 C 3,5 C 1,6 km/h (1 Bft) 93,62 %
22.10.2018 03:52 3,4 C 11,7 C 0,6 C 93 % 1025,9 hPa 0,0 l/m 1,3 km/h (1 Bft) S-SW 200 0 min 0,000 mm 0,0 UV-I 0 W/m 2,4 C 3,4 C 1,6 km/h (1 Bft) 95,74 %
22.10.2018 03:54 3,3 C 11,7 C 0,6 C 93 % 1025,8 hPa 0,0 l/m 1,1 km/h (1 Bft) S-SW 200 0 min 0,000 mm 0,0 UV-I 0 W/m 2,3 C 3,3 C 1,6 km/h (1 Bft) 96,00 %
22.10.2018 03:56 3,3 C 11,7 C 0,0 C 92 % 1025,8 hPa 0,0 l/m 0,4 km/h (0 Bft) S-SW 200 0 min 0,000 mm 0,0 UV-I 0 W/m 2,1 C 3,3 C 1,6 km/h (1 Bft) 96,23 %
22.10.2018 03:58 3,3 C 11,7 C 0,0 C 93 % 1025,8 hPa 0,0 l/m 0,0 km/h (0 Bft) S-SW 200 0 min 0,000 mm 0,0 UV-I 0 W/m 2,3 C 3,3 C 0,0 km/h (0 Bft) 93,62 %
22.10.2018 04:00 3,4 C 11,7 C 0,0 C 93 % 1025,8 hPa 0,0 l/m 0,0 km/h (0 Bft) S-SW 200 0 min 0,000 mm 0,0 UV-I 0 W/m 2,4 C 3,4 C 0,0 km/h (0 Bft) 97,56 %
22.10.2018 04:02 3,4 C 11,7 C -0,6 C 93 % 1025,8 hPa 0,0 l/m 0,0 km/h (0 Bft) S-SW 200 0 min 0,000 mm 0,0 UV-I 0 W/m 2,4 C 3,4 C 0,0 km/h (0 Bft) 100,00 %
22.10.2018 04:04 3,4 C 11,7 C -0,6 C 93 % 1025,8 hPa 0,0 l/m 0,0 km/h (0 Bft) S-SW 200 0 min 0,000 mm 0,0 UV-I 0 W/m 2,4 C 3,4 C 0,0 km/h (0 Bft) 96,00 %
22.10.2018 04:06 3,5 C 11,7 C -0,6 C 93 % 1025,8 hPa 0,0 l/m 0,0 km/h (0 Bft) S-SW 200 0 min 0,000 mm 0,0 UV-I 0 W/m 2,5 C 3,5 C 0,0 km/h (0 Bft) 98,00 %
22.10.2018 04:08 3,6 C 11,7 C -0,6 C 93 % 1025,8 hPa 0,0 l/m 0,0 km/h (0 Bft) S-SW 200 0 min 0,000 mm 0,0 UV-I 0 W/m 2,6 C 3,6 C 0,0 km/h (0 Bft) 97,37 %
22.10.2018 04:10 3,6 C 11,7 C -0,6 C 93 % 1025,8 hPa 0,0 l/m 0,0 km/h (0 Bft) S-SW 200 0 min 0,000 mm 0,0 UV-I 0 W/m 2,6 C 3,6 C 0,0 km/h (0 Bft) 98,00 %
22.10.2018 04:12 3,6 C 11,7 C -0,6 C 93 % 1025,8 hPa 0,0 l/m 0,0 km/h (0 Bft) S-SW 200 0 min 0,000 mm 0,0 UV-I 0 W/m 2,6 C 3,6 C 0,0 km/h (0 Bft) 96,00 %
22.10.2018 04:14 3,4 C 11,7 C -0,6 C 93 % 1025,7 hPa 0,0 l/m 0,0 km/h (0 Bft) S-SW 200 0 min 0,000 mm 0,0 UV-I 0 W/m 2,4 C 3,4 C 0,0 km/h (0 Bft) 100,00 %
22.10.2018 04:16 3,3 C 11,7 C -0,6 C 92 % 1025,7 hPa 0,0 l/m 0,0 km/h (0 Bft) S-SW 200 0 min 0,000 mm 0,0 UV-I 0 W/m 2,1 C 3,3 C 0,0 km/h (0 Bft) 100,00 %
22.10.2018 04:18 3,3 C 11,7 C -0,6 C 92 % 1025,8 hPa 0,0 l/m 0,0 km/h (0 Bft) S-SW 200 0 min 0,000 mm 0,0 UV-I 0 W/m 2,1 C 3,3 C 0,0 km/h (0 Bft) 100,00 %
22.10.2018 04:20 3,3 C 11,7 C -0,6 C 92 % 1025,7 hPa 0,0 l/m 0,0 km/h (0 Bft) S-SW 200 0 min 0,000 mm 0,0 UV-I 0 W/m 2,1 C 3,3 C 0,0 km/h (0 Bft) 96,72 %
22.10.2018 04:22 3,2 C 11,7 C -0,6 C 92 % 1025,7 hPa 0,0 l/m 0,0 km/h (0 Bft) S-SW 200 0 min 0,000 mm 0,0 UV-I 0 W/m 2,0 C 3,2 C 0,0 km/h (0 Bft) 97,87 %
22.10.2018 04:24 3,0 C 11,7 C -0,6 C 92 % 1025,7 hPa 0,0 l/m 0,0 km/h (0 Bft) S-SW 200 0 min 0,000 mm 0,0 UV-I 0 W/m 1,8 C 3,0 C 0,0 km/h (0 Bft) 96,00 %
22.10.2018 04:26 2,9 C 11,7 C -0,6 C 92 % 1025,7 hPa 0,0 l/m 0,0 km/h (0 Bft) S-SW 200 0 min 0,000 mm 0,0 UV-I 0 W/m 1,7 C 2,9 C 0,0 km/h (0 Bft) 98,00 %
22.10.2018 04:28 2,9 C 11,7 C -1,1 C 93 % 1025,7 hPa 0,0 l/m 0,0 km/h (0 Bft) S-SW 200 0 min 0,000 mm 0,0 UV-I 0 W/m 1,9 C 2,9 C 0,0 km/h (0 Bft) 97,22 %
22.10.2018 04:30 2,9 C 11,7 C -1,1 C 93 % 1025,8 hPa 0,0 l/m 0,0 km/h (0 Bft) S-SW 200 0 min 0,000 mm 0,0 UV-I 0 W/m 1,9 C 2,9 C 0,0 km/h (0 Bft) 96,23 %
22.10.2018 04:32 3,0 C 11,7 C -1,1 C 93 % 1025,8 hPa 0,0 l/m 0,0 km/h (0 Bft) S-SW 200 0 min 0,000 mm 0,0 UV-I 0 W/m 2,0 C 3,0 C 0,0 km/h (0 Bft) 97,87 %
22.10.2018 04:34 3,2 C 11,7 C -1,1 C 93 % 1025,8 hPa 0,0 l/m 0,0 km/h (0 Bft) S-SW 200 0 min 0,000 mm 0,0 UV-I 0 W/m 2,2 C 3,2 C 0,0 km/h (0 Bft) 100,00 %
22.10.2018 04:36 3,2 C 11,7 C -1,1 C 94 % 1025,8 hPa 0,0 l/m 0,0 km/h (0 Bft) S-SW 200 0 min 0,000 mm 0,0 UV-I 0 W/m 2,3 C 3,2 C 0,0 km/h (0 Bft) 96,77 %
22.10.2018 04:38 3,3 C 11,7 C -1,7 C 94 % 1025,8 hPa 0,0 l/m 0,0 km/h (0 Bft) S-SW 200 0 min 0,000 mm 0,0 UV-I 0 W/m 2,4 C 3,3 C 0,0 km/h (0 Bft) 97,87 %
22.10.2018 04:40 3,3 C 11,7 C -1,7 C 94 % 1025,8 hPa 0,0 l/m 0,0 km/h (0 Bft) S-SW 200 0 min 0,000 mm 0,0 UV-I 0 W/m 2,4 C 3,3 C 0,0 km/h (0 Bft) 95,74 %
22.10.2018 04:42 3,4 C 11,7 C -1,7 C 94 % 1025,8 hPa 0,0 l/m 0,0 km/h (0 Bft) S-SW 200 0 min 0,000 mm 0,0 UV-I 0 W/m 2,5 C 3,4 C 0,0 km/h (0 Bft) 97,37 %
22.10.2018 04:44 3,3 C 11,7 C -1,7 C 94 % 1025,8 hPa 0,0 l/m 0,2 km/h (0 Bft) S-SW 200 0 min 0,000 mm 0,0 UV-I 0 W/m 2,4 C 3,3 C 1,6 km/h (1 Bft) 97,87 %
22.10.2018 04:46 3,4 C 11,7 C -1,1 C 94 % 1025,7 hPa 0,0 l/m 1,1 km/h (1 Bft) S-SW 200 0 min 0,000 mm 0,0 UV-I 0 W/m 2,5 C 3,4 C 1,6 km/h (1 Bft) 94,00 %
22.10.2018 04:48 3,3 C 11,7 C -1,1 C 94 % 1025,7 hPa 0,0 l/m 1,0 km/h (0 Bft) S-SW 200 0 min 0,000 mm 0,0 UV-I 0 W/m 2,4 C 3,3 C 1,6 km/h (1 Bft) 97,56 %
22.10.2018 04:50 3,2 C 11,7 C -1,1 C 93 % 1025,8 hPa 0,0 l/m 0,6 km/h (0 Bft) S-SW 200 0 min 0,000 mm 0,0 UV-I 0 W/m 2,2 C 3,2 C 1,6 km/h (1 Bft) 97,14 %
22.10.2018 04:52 3,1 C 11,7 C -1,1 C 93 % 1025,7 hPa 0,0 l/m 0,0 km/h (0 Bft) S-SW 200 0 min 0,000 mm 0,0 UV-I 0 W/m 2,1 C 3,1 C 0,0 km/h (0 Bft) 98,39 %
22.10.2018 04:54 3,0 C 11,7 C -1,1 C 93 % 1025,8 hPa 0,0 l/m 0,0 km/h (0 Bft) S-SW 200 0 min 0,000 mm 0,0 UV-I 0 W/m 2,0 C 3,0 C 0,0 km/h (0 Bft) 95,74 %
22.10.2018 04:56 2,9 C 11,7 C -0,6 C 93 % 1025,7 hPa 0,0 l/m 0,0 km/h (0 Bft) S-SW 200 0 min 0,000 mm 0,0 UV-I 0 W/m 1,9 C 2,9 C 0,0 km/h (0 Bft) 97,56 %
22.10.2018 04:58 2,9 C 11,7 C -1,1 C 93 % 1025,8 hPa 0,0 l/m 0,0 km/h (0 Bft) S-SW 200 0 min 0,000 mm 0,0 UV-I 0 W/m 1,9 C 2,9 C 0,0 km/h (0 Bft) 94,00 %
22.10.2018 05:00 2,9 C 11,7 C -1,1 C 93 % 1025,8 hPa 0,0 l/m 0,0 km/h (0 Bft) S-SW 200 0 min 0,000 mm 0,0 UV-I 0 W/m 1,9 C 2,9 C 0,0 km/h (0 Bft) 96,00 %
22.10.2018 05:02 2,9 C 11,7 C -1,1 C 93 % 1025,8 hPa 0,0 l/m 0,0 km/h (0 Bft) S-SW 200 0 min 0,000 mm 0,0 UV-I 0 W/m 1,9 C 2,9 C 0,0 km/h (0 Bft) 95,74 %
22.10.2018 05:04 2,9 C 11,7 C -1,7 C 93 % 1025,8 hPa 0,0 l/m 0,0 km/h (0 Bft) S-SW 200 0 min 0,000 mm 0,0 UV-I 0 W/m 1,9 C 2,9 C 0,0 km/h (0 Bft) 96,00 %
22.10.2018 05:06 2,8 C 11,7 C -1,7 C 93 % 1025,8 hPa 0,0 l/m 0,0 km/h (0 Bft) S-SW 200 0 min 0,000 mm 0,0 UV-I 0 W/m 1,8 C 2,8 C 0,0 km/h (0 Bft) 95,74 %
22.10.2018 05:08 2,9 C 11,7 C -1,7 C 93 % 1025,9 hPa 0,0 l/m 0,0 km/h (0 Bft) S-SW 200 0 min 0,000 mm 0,0 UV-I 0 W/m 1,9 C 2,9 C 0,0 km/h (0 Bft) 97,44 %
22.10.2018 05:10 2,9 C 11,7 C -1,7 C 94 % 1025,9 hPa 0,0 l/m 0,1 km/h (0 Bft) S-SW 200 0 min 0,000 mm 0,0 UV-I 0 W/m 2,0 C 2,9 C 1,6 km/h (1 Bft) 98,00 %
22.10.2018 05:12 2,8 C 11,7 C -1,1 C 93 % 1025,9 hPa 0,0 l/m 0,7 km/h (0 Bft) S-SW 200 0 min 0,000 mm 0,0 UV-I 0 W/m 1,8 C 2,8 C 1,6 km/h (1 Bft) 95,74 %
22.10.2018 05:15 2,7 C 11,7 C -1,1 C 93 % 1025,9 hPa 0,0 l/m 1,2 km/h (1 Bft) S-SW 200 0 min 0,000 mm 0,0 UV-I 0 W/m 1,7 C 2,7 C 3,2 km/h (1 Bft) 96,72 %
22.10.2018 05:16 2,7 C 11,7 C -1,1 C 93 % 1025,9 hPa 0,0 l/m 2,3 km/h (1 Bft) S-SW 200 0 min 0,000 mm 0,0 UV-I 0 W/m 1,7 C 2,7 C 3,2 km/h (1 Bft) 97,44 %
22.10.2018 05:18 2,7 C 11,7 C -1,1 C 93 % 1025,9 hPa 0,0 l/m 3,1 km/h (1 Bft) S-SW 200 0 min 0,000 mm 0,0 UV-I 0 W/m 1,7 C 2,7 C 3,2 km/h (1 Bft) 97,37 %
22.10.2018 05:20 2,7 C 11,7 C -0,6 C 93 % 1025,9 hPa 0,0 l/m 2,5 km/h (1 Bft) S-SW 200 0 min 0,000 mm 0,0 UV-I 0 W/m 1,7 C 2,7 C 3,2 km/h (1 Bft) 96,23 %
22.10.2018 05:22 2,6 C 11,7 C -0,6 C 93 % 1025,9 hPa 0,0 l/m 2,3 km/h (1 Bft) S-SW 200 0 min 0,000 mm 0,0 UV-I 0 W/m 1,6 C 2,6 C 3,2 km/h (1 Bft) 98,00 %
22.10.2018 05:24 2,7 C 11,7 C -1,1 C 94 % 1025,9 hPa 0,0 l/m 2,2 km/h (1 Bft) S-SW 200 0 min 0,000 mm 0,0 UV-I 0 W/m 1,8 C 2,7 C 3,2 km/h (1 Bft) 100,00 %
22.10.2018 05:26 2,8 C 11,7 C -1,1 C 94 % 1025,9 hPa 0,0 l/m 1,1 km/h (1 Bft) S-SW 200 0 min 0,000 mm 0,0 UV-I 0 W/m 1,9 C 2,8 C 3,2 km/h (1 Bft) 100,00 %
22.10.2018 05:28 2,9 C 11,7 C -1,1 C 94 % 1025,9 hPa 0,0 l/m 1,4 km/h (1 Bft) S-SW 200 0 min 0,000 mm 0,0 UV-I 0 W/m 2,0 C 2,9 C 1,6 km/h (1 Bft) 100,00 %
22.10.2018 05:30 3,0 C 11,7 C -1,7 C 94 % 1025,9 hPa 0,0 l/m 0,4 km/h (0 Bft) S-SW 200 0 min 0,000 mm 0,0 UV-I 0 W/m 2,1 C 3,0 C 1,6 km/h (1 Bft) 100,00 %
22.10.2018 05:32 2,9 C 11,7 C -1,7 C 94 % 1025,9 hPa 0,0 l/m 0,0 km/h (0 Bft) S-SW 200 0 min 0,000 mm 0,0 UV-I 0 W/m 2,0 C 2,9 C 0,0 km/h (0 Bft) 100,00 %
22.10.2018 05:34 2,7 C 11,7 C -1,1 C 93 % 1026,0 hPa 0,0 l/m 0,0 km/h (0 Bft) S-SW 200 0 min 0,000 mm 0,0 UV-I 0 W/m 1,7 C 2,7 C 0,0 km/h (0 Bft) 100,00 %
22.10.2018 05:36 2,5 C 11,7 C -0,6 C 93 % 1026,0 hPa 0,0 l/m 0,0 km/h (0 Bft) S-SW 200 0 min 0,000 mm 0,0 UV-I 0 W/m 1,5 C 2,5 C 0,0 km/h (0 Bft) 100,00 %
22.10.2018 05:38 2,4 C 11,7 C 0,0 C 93 % 1026,0 hPa 0,0 l/m 0,0 km/h (0 Bft) S-SW 200 0 min 0,000 mm 0,0 UV-I 0 W/m 1,4 C 2,4 C 0,0 km/h (0 Bft) 97,87 %
22.10.2018 05:40 2,4 C 11,7 C 0,0 C 93 % 1026,0 hPa 0,0 l/m 0,2 km/h (0 Bft) S-SW 200 0 min 0,000 mm 0,0 UV-I 0 W/m 1,4 C 2,4 C 1,6 km/h (1 Bft) 100,00 %
22.10.2018 05:42 2,3 C 11,7 C 0,0 C 93 % 1025,9 hPa 0,0 l/m 1,9 km/h (1 Bft) S-SW 200 0 min 0,000 mm 0,0 UV-I 0 W/m 1,3 C 2,3 C 3,2 km/h (1 Bft) 100,00 %
22.10.2018 05:44 2,2 C 11,7 C -0,6 C 93 % 1025,9 hPa 0,0 l/m 3,3 km/h (1 Bft) S-SW 200 0 min 0,000 mm 0,0 UV-I 0 W/m 1,2 C 2,2 C 4,8 km/h (1 Bft) 100,00 %
22.10.2018 05:46 2,2 C 11,7 C -0,6 C 94 % 1025,9 hPa 0,0 l/m 3,1 km/h (1 Bft) S-SW 200 0 min 0,000 mm 0,0 UV-I 0 W/m 1,3 C 2,2 C 4,8 km/h (1 Bft) 96,00 %
22.10.2018 05:48 2,2 C 11,7 C -1,1 C 93 % 1026,0 hPa 0,0 l/m 2,4 km/h (1 Bft) S-SW 200 0 min 0,000 mm 0,0 UV-I 0 W/m 1,2 C 2,2 C 3,2 km/h (1 Bft) 100,00 %
22.10.2018 05:50 2,2 C 11,7 C -1,1 C 94 % 1026,0 hPa 0,0 l/m 2,5 km/h (1 Bft) S-SW 200 0 min 0,000 mm 0,0 UV-I 0 W/m 1,3 C 2,2 C 3,2 km/h (1 Bft) 98,00 %
22.10.2018 05:52 2,2 C 11,7 C -1,1 C 94 % 1026,0 hPa 0,0 l/m 2,1 km/h (1 Bft) S-SW 200 0 min 0,000 mm 0,0 UV-I 0 W/m 1,3 C 2,2 C 3,2 km/h (1 Bft) 100,00 %
22.10.2018 05:54 2,3 C 11,7 C -1,1 C 94 % 1026,0 hPa 0,0 l/m 2,3 km/h (1 Bft) S-SW 200 0 min 0,000 mm 0,0 UV-I 0 W/m 1,4 C 2,3 C 3,2 km/h (1 Bft) 100,00 %
22.10.2018 05:56 2,4 C 11,7 C -1,1 C 94 % 1026,0 hPa 0,0 l/m 2,5 km/h (1 Bft) S-SW 200 0 min 0,000 mm 0,0 UV-I 0 W/m 1,5 C 2,4 C 3,2 km/h (1 Bft) 98,00 %
22.10.2018 05:58 2,5 C 11,7 C -1,1 C 94 % 1026,0 hPa 0,0 l/m 2,3 km/h (1 Bft) S-SW 200 0 min 0,000 mm 0,0 UV-I 0 W/m 1,6 C 2,5 C 3,2 km/h (1 Bft) 97,14 %
22.10.2018 06:00 2,6 C 11,7 C -1,7 C 94 % 1026,0 hPa 0,0 l/m 1,4 km/h (1 Bft) S-SW 200 0 min 0,000 mm 0,0 UV-I 0 W/m 1,7 C 2,6 C 3,2 km/h (1 Bft) 97,14 %
22.10.2018 06:02 2,4 C 11,7 C -1,1 C 94 % 1026,0 hPa 0,0 l/m 1,8 km/h (1 Bft) S-SW 200 0 min 0,000 mm 0,0 UV-I 0 W/m 1,5 C 2,4 C 3,2 km/h (1 Bft) 98,46 %
22.10.2018 06:04 2,4 C 11,7 C -1,1 C 94 % 1026,0 hPa 0,0 l/m 1,9 km/h (1 Bft) S-SW 200 0 min 0,000 mm 0,0 UV-I 0 W/m 1,5 C 2,4 C 3,2 km/h (1 Bft) 97,87 %
22.10.2018 06:06 2,5 C 11,7 C -1,1 C 94 % 1026,0 hPa 0,0 l/m 0,7 km/h (0 Bft) S-SW 200 0 min 0,000 mm 0,0 UV-I 0 W/m 1,6 C 2,5 C 3,2 km/h (1 Bft) 94,00 %
22.10.2018 06:08 2,6 C 11,7 C -1,1 C 94 % 1026,0 hPa 0,0 l/m 0,6 km/h (0 Bft) S-SW 200 0 min 0,000 mm 0,0 UV-I 0 W/m 1,7 C 2,6 C 1,6 km/h (1 Bft) 95,12 %
22.10.2018 06:10 2,6 C 11,7 C -1,7 C 95 % 1026,1 hPa 0,0 l/m 0,4 km/h (0 Bft) S-SW 200 0 min 0,000 mm 0,0 UV-I 0 W/m 1,9 C 2,6 C 1,6 km/h (1 Bft) 96,00 %
22.10.2018 06:12 2,6 C 11,7 C -1,1 C 94 % 1026,1 hPa 0,0 l/m 0,1 km/h (0 Bft) S-SW 200 0 min 0,000 mm 0,0 UV-I 0 W/m 1,7 C 2,6 C 1,6 km/h (1 Bft) 93,62 %
22.10.2018 06:14 2,4 C 11,7 C -1,1 C 94 % 1026,1 hPa 0,0 l/m 1,5 km/h (1 Bft) S-SW 200 0 min 0,000 mm 0,0 UV-I 0 W/m 1,5 C 2,4 C 3,2 km/h (1 Bft) 95,45 %
22.10.2018 06:16 2,3 C 11,7 C -0,6 C 94 % 1026,1 hPa 0,0 l/m 3,1 km/h (1 Bft) S-SW 200 0 min 0,000 mm 0,0 UV-I 0 W/m 1,4 C 2,3 C 4,8 km/h (1 Bft) 93,62 %
22.10.2018 06:18 2,2 C 11,7 C -0,6 C 94 % 1026,0 hPa 0,0 l/m 2,2 km/h (1 Bft) S-SW 200 0 min 0,000 mm 0,0 UV-I 0 W/m 1,3 C 2,2 C 3,2 km/h (1 Bft) 93,62 %
22.10.2018 06:20 2,2 C 11,7 C -1,1 C 94 % 1026,1 hPa 0,0 l/m 1,6 km/h (1 Bft) S-SW 200 0 min 0,000 mm 0,0 UV-I 0 W/m 1,3 C 2,2 C 3,2 km/h (1 Bft) 96,23 %
22.10.2018 06:22 2,1 C 11,7 C -1,1 C 94 % 1026,1 hPa 0,0 l/m 1,4 km/h (1 Bft) S-SW 200 0 min 0,000 mm 0,0 UV-I 0 W/m 1,2 C 2,1 C 3,2 km/h (1 Bft) 94,87 %
22.10.2018 06:24 2,1 C 11,7 C -0,6 C 94 % 1026,1 hPa 0,0 l/m 3,0 km/h (1 Bft) S-SW 200 0 min 0,000 mm 0,0 UV-I 0 W/m 1,2 C 2,1 C 4,8 km/h (1 Bft) 92,00 %
22.10.2018 06:26 2,2 C 11,7 C -0,6 C 94 % 1026,1 hPa 0,0 l/m 3,2 km/h (1 Bft) S-SW 200 0 min 0,000 mm 0,0 UV-I 0 W/m 1,3 C 2,2 C 4,8 km/h (1 Bft) 95,12 %
22.10.2018 06:28 2,1 C 11,7 C -0,6 C 94 % 1026,0 hPa 0,0 l/m 3,6 km/h (1 Bft) S-SW 200 0 min 0,000 mm 0,0 UV-I 0 W/m 1,2 C 2,1 C 4,8 km/h (1 Bft) 96,00 %
22.10.2018 06:30 2,0 C 11,7 C -0,6 C 94 % 1026,1 hPa 0,0 l/m 3,9 km/h (1 Bft) S-SW 200 0 min 0,000 mm 0,0 UV-I 0 W/m 1,1 C 2,0 C 4,8 km/h (1 Bft) 97,87 %
22.10.2018 06:32 1,9 C 11,7 C -0,6 C 94 % 1026,0 hPa 0,0 l/m 3,4 km/h (1 Bft) S-SW 200 0 min 0,000 mm 0,0 UV-I 0 W/m 1,0 C 1,9 C 4,8 km/h (1 Bft) 97,87 %
22.10.2018 06:34 1,8 C 11,7 C -1,1 C 94 % 1026,0 hPa 0,0 l/m 1,8 km/h (1 Bft) S-SW 200 0 min 0,000 mm 0,0 UV-I 0 W/m 0,9 C 1,8 C 3,2 km/h (1 Bft) 98,00 %
22.10.2018 06:36 1,8 C 11,7 C -1,1 C 94 % 1026,0 hPa 0,0 l/m 2,0 km/h (1 Bft) S-SW 200 0 min 0,000 mm 0,0 UV-I 0 W/m 0,9 C 1,8 C 3,2 km/h (1 Bft) 97,87 %
22.10.2018 06:38 1,8 C 11,7 C -1,1 C 94 % 1025,9 hPa 0,0 l/m 3,9 km/h (1 Bft) S-SW 200 0 min 0,000 mm 0,0 UV-I 0 W/m 0,9 C 1,8 C 4,8 km/h (1 Bft) 98,00 %
22.10.2018 06:40 1,8 C 11,7 C -1,1 C 94 % 1025,9 hPa 0,0 l/m 2,1 km/h (1 Bft) S-SW 200 0 min 0,000 mm 0,0 UV-I 0 W/m 0,9 C 1,8 C 4,8 km/h (1 Bft) 100,00 %
22.10.2018 06:42 1,8 C 11,7 C -1,1 C 94 % 1025,9 hPa 0,0 l/m 4,1 km/h (1 Bft) S-SW 200 0 min 0,000 mm 0,0 UV-I 0 W/m 0,9 C 1,8 C 4,8 km/h (1 Bft) 100,00 %
22.10.2018 06:44 1,8 C 11,7 C -0,6 C 94 % 1026,0 hPa 0,0 l/m 2,7 km/h (1 Bft) S-SW 200 0 min 0,000 mm 0,0 UV-I 0 W/m 0,9 C 1,8 C 4,8 km/h (1 Bft) 97,87 %
22.10.2018 06:46 1,7 C 11,7 C -0,6 C 94 % 1025,9 hPa 0,0 l/m 2,8 km/h (1 Bft) S-SW 200 0 min 0,000 mm 0,0 UV-I 0 W/m 0,8 C 1,7 C 4,8 km/h (1 Bft) 100,00 %
22.10.2018 06:48 1,8 C 11,7 C -0,6 C 94 % 1025,9 hPa 0,0 l/m 3,5 km/h (1 Bft) S-SW 200 0 min 0,000 mm 0,0 UV-I 0 W/m 0,9 C 1,8 C 4,8 km/h (1 Bft) 100,00 %
22.10.2018 06:50 2,0 C 11,7 C -0,6 C 95 % 1025,9 hPa 0,0 l/m 3,5 km/h (1 Bft) S-SW 200 0 min 0,000 mm 0,0 UV-I 0 W/m 1,3 C 2,0 C 4,8 km/h (1 Bft) 100,00 %
22.10.2018 06:52 2,1 C 11,7 C -1,1 C 95 % 1025,9 hPa 0,0 l/m 2,7 km/h (1 Bft) S-SW 200 0 min 0,000 mm 0,0 UV-I 0 W/m 1,4 C 2,1 C 4,8 km/h (1 Bft) 100,00 %
22.10.2018 06:54 2,0 C 11,7 C -1,1 C 95 % 1025,9 hPa 0,0 l/m 2,4 km/h (1 Bft) S-SW 200 0 min 0,000 mm 0,0 UV-I 0 W/m 1,3 C 2,0 C 3,2 km/h (1 Bft) 100,00 %
22.10.2018 06:56 2,1 C 11,7 C -1,1 C 95 % 1026,0 hPa 0,0 l/m 2,6 km/h (1 Bft) S-SW 200 0 min 0,000 mm 0,0 UV-I 0 W/m 1,4 C 2,1 C 4,8 km/h (1 Bft) 100,00 %
22.10.2018 06:58 2,2 C 11,7 C -1,1 C 95 % 1025,9 hPa 0,0 l/m 2,6 km/h (1 Bft) S-SW 200 0 min 0,000 mm 0,0 UV-I 0 W/m 1,5 C 2,2 C 3,2 km/h (1 Bft) 100,00 %
22.10.2018 07:00 2,3 C 11,7 C -1,1 C 95 % 1026,0 hPa 0,0 l/m 2,6 km/h (1 Bft) S-SW 200 0 min 0,000 mm 0,0 UV-I 0 W/m 1,6 C 2,3 C 3,2 km/h (1 Bft) 97,87 %
22.10.2018 07:02 2,3 C 11,7 C -1,1 C 95 % 1026,0 hPa 0,0 l/m 3,7 km/h (1 Bft) S-SW 200 0 min 0,000 mm 0,0 UV-I 0 W/m 1,6 C 2,3 C 4,8 km/h (1 Bft) 98,11 %
22.10.2018 07:04 2,3 C 11,7 C -0,6 C 95 % 1026,0 hPa 0,0 l/m 3,6 km/h (1 Bft) S-SW 200 0 min 0,000 mm 0,0 UV-I 0 W/m 1,6 C 2,3 C 4,8 km/h (1 Bft) 100,00 %
22.10.2018 07:06 2,3 C 11,7 C -0,6 C 95 % 1026,0 hPa 0,0 l/m 3,0 km/h (1 Bft) S-SW 200 0 min 0,000 mm 0,0 UV-I 0 W/m 1,6 C 2,3 C 4,8 km/h (1 Bft) 100,00 %
22.10.2018 07:08 2,3 C 11,7 C -0,6 C 95 % 1026,1 hPa 0,0 l/m 2,2 km/h (1 Bft) S-SW 200 0 min 0,000 mm 0,0 UV-I 0 W/m 1,6 C 2,3 C 3,2 km/h (1 Bft) 100,00 %
22.10.2018 07:10 2,2 C 11,7 C -0,6 C 94 % 1026,0 hPa 0,0 l/m 3,0 km/h (1 Bft) S-SW 200 0 min 0,000 mm 0,0 UV-I 0 W/m 1,3 C 2,2 C 4,8 km/h (1 Bft) 94,74 %
22.10.2018 07:12 2,0 C 11,7 C -1,1 C 94 % 1026,1 hPa 0,0 l/m 3,1 km/h (1 Bft) S 174 0 min 0,000 mm 0,0 UV-I 0 W/m 1,1 C 2,0 C 4,8 km/h (1 Bft) 97,87 %
22.10.2018 07:14 2,0 C 11,7 C -1,1 C 94 % 1026,0 hPa 0,0 l/m 2,5 km/h (1 Bft) S 174 0 min 0,000 mm 0,0 UV-I 0 W/m 1,1 C 2,0 C 3,2 km/h (1 Bft) 96,00 %
22.10.2018 07:16 2,2 C 11,7 C -1,1 C 95 % 1026,0 hPa 0,0 l/m 2,8 km/h (1 Bft) S 174 0 min 0,000 mm 0,0 UV-I 0 W/m 1,5 C 2,2 C 4,8 km/h (1 Bft) 98,00 %
22.10.2018 07:18 2,3 C 11,7 C -1,1 C 95 % 1026,1 hPa 0,0 l/m 1,9 km/h (1 Bft) S 174 0 min 0,000 mm 0,0 UV-I 0 W/m 1,6 C 2,3 C 3,2 km/h (1 Bft) 93,62 %
22.10.2018 07:20 2,3 C 11,7 C -1,7 C 95 % 1026,1 hPa 0,0 l/m 1,0 km/h (0 Bft) S 174 0 min 0,000 mm 0,0 UV-I 0 W/m 1,6 C 2,3 C 1,6 km/h (1 Bft) 96,00 %
22.10.2018 07:22 2,4 C 11,7 C -1,7 C 95 % 1026,1 hPa 0,0 l/m 0,0 km/h (0 Bft) S 174 0 min 0,000 mm 0,0 UV-I 5 W/m 1,7 C 2,4 C 0,0 km/h (0 Bft) 94,29 %
22.10.2018 07:24 2,4 C 11,7 C -1,7 C 95 % 1026,2 hPa 0,0 l/m 0,0 km/h (0 Bft) S 174 0 min 0,000 mm 0,0 UV-I 5 W/m 1,7 C 2,4 C 0,0 km/h (0 Bft) 95,74 %
22.10.2018 07:26 2,4 C 11,7 C -1,7 C 95 % 1026,2 hPa 0,0 l/m 0,3 km/h (0 Bft) S 174 0 min 0,000 mm 0,0 UV-I 5 W/m 1,7 C 2,4 C 1,6 km/h (1 Bft) 96,00 %
22.10.2018 07:28 2,5 C 11,7 C -2,2 C 95 % 1026,2 hPa 0,0 l/m 0,0 km/h (0 Bft) S 174 0 min 0,000 mm 0,0 UV-I 5 W/m 1,8 C 2,5 C 1,6 km/h (1 Bft) 95,74 %
22.10.2018 07:30 2,6 C 11,7 C -1,7 C 95 % 1026,1 hPa 0,0 l/m 0,0 km/h (0 Bft) S 174 0 min 0,000 mm 0,0 UV-I 7 W/m 1,9 C 2,6 C 0,0 km/h (0 Bft) 93,62 %
22.10.2018 07:32 2,6 C 11,7 C -1,7 C 95 % 1026,2 hPa 0,0 l/m 0,0 km/h (0 Bft) S 174 0 min 0,000 mm 0,0 UV-I 7 W/m 1,9 C 2,6 C 0,0 km/h (0 Bft) 95,74 %
22.10.2018 07:34 2,6 C 11,7 C -1,7 C 95 % 1026,2 hPa 0,0 l/m 0,0 km/h (0 Bft) S 174 0 min 0,000 mm 0,0 UV-I 7 W/m 1,9 C 2,6 C 0,0 km/h (0 Bft) 96,00 %
22.10.2018 07:36 2,3 C 11,7 C -1,7 C 94 % 1026,2 hPa 0,0 l/m 0,0 km/h (0 Bft) S 174 0 min 0,000 mm 0,0 UV-I 9 W/m 1,4 C 2,3 C 0,0 km/h (0 Bft) 93,62 %
22.10.2018 07:38 2,2 C 11,7 C -1,1 C 94 % 1026,2 hPa 0,0 l/m 0,0 km/h (0 Bft) S 174 0 min 0,000 mm 0,0 UV-I 9 W/m 1,3 C 2,2 C 0,0 km/h (0 Bft) 98,00 %
22.10.2018 07:40 2,1 C 11,7 C -1,1 C 94 % 1026,2 hPa 0,0 l/m 0,0 km/h (0 Bft) S 174 0 min 0,000 mm 0,0 UV-I 11 W/m 1,2 C 2,1 C 0,0 km/h (0 Bft) 97,22 %
22.10.2018 07:42 2,1 C 11,7 C -1,7 C 94 % 1026,2 hPa 0,0 l/m 0,0 km/h (0 Bft) S 174 0 min 0,000 mm 0,0 UV-I 11 W/m 1,2 C 2,1 C 0,0 km/h (0 Bft) 98,00 %
22.10.2018 07:44 1,9 C 11,7 C -1,1 C 94 % 1026,3 hPa 0,0 l/m 0,0 km/h (0 Bft) S 174 2 min 0,000 mm 0,0 UV-I 12 W/m 1,0 C 1,9 C 0,0 km/h (0 Bft) 95,74 %
22.10.2018 07:46 1,8 C 11,7 C -1,1 C 94 % 1026,3 hPa 0,0 l/m 1,2 km/h (1 Bft) S 175 2 min 0,000 mm 0,0 UV-I 13 W/m 0,9 C 1,8 C 3,2 km/h (1 Bft) 98,00 %
22.10.2018 07:48 1,8 C 11,7 C -1,1 C 94 % 1026,3 hPa 0,0 l/m 1,4 km/h (1 Bft) S 175 0 min 0,000 mm 0,0 UV-I 14 W/m 0,9 C 1,8 C 3,2 km/h (1 Bft) 97,87 %
22.10.2018 07:50 1,9 C 11,7 C -1,1 C 95 % 1026,3 hPa 0,0 l/m 1,4 km/h (1 Bft) S 175 0 min 0,000 mm 0,0 UV-I 16 W/m 1,2 C 1,9 C 3,2 km/h (1 Bft) 96,00 %
22.10.2018 07:52 2,0 C 11,7 C -1,1 C 95 % 1026,3 hPa 0,0 l/m 0,9 km/h (0 Bft) O 96 0 min 0,000 mm 0,0 UV-I 17 W/m 1,3 C 2,0 C 1,6 km/h (1 Bft) 94,74 %
22.10.2018 07:54 2,0 C 11,7 C -1,1 C 95 % 1026,3 hPa 0,0 l/m 0,2 km/h (0 Bft) N-NO 17 0 min 0,000 mm 0,0 UV-I 18 W/m 1,3 C 2,0 C 1,6 km/h (1 Bft) 96,23 %
22.10.2018 07:56 1,8 C 11,7 C -1,1 C 95 % 1026,3 hPa 0,0 l/m 0,1 km/h (0 Bft) N-NO 17 0 min 0,000 mm 0,0 UV-I 19 W/m 1,1 C 1,8 C 1,6 km/h (1 Bft) 98,00 %
22.10.2018 07:58 1,7 C 11,7 C -1,1 C 94 % 1026,3 hPa 0,0 l/m 0,0 km/h (0 Bft) N-NO 17 0 min 0,000 mm 0,0 UV-I 20 W/m 0,8 C 1,7 C 0,0 km/h (0 Bft) 100,00 %
22.10.2018 08:00 1,7 C 11,7 C -1,1 C 94 % 1026,3 hPa 0,0 l/m 0,5 km/h (0 Bft) N-NO 17 0 min 0,000 mm 0,0 UV-I 21 W/m 0,8 C 1,7 C 1,6 km/h (1 Bft) 100,00 %
22.10.2018 08:02 1,7 C 11,7 C -1,1 C 95 % 1026,3 hPa 0,0 l/m 0,7 km/h (0 Bft) N-NO 17 0 min 0,000 mm 0,0 UV-I 25 W/m 1,0 C 1,7 C 1,6 km/h (1 Bft) 100,00 %
22.10.2018 08:04 1,8 C 11,7 C -1,1 C 95 % 1026,4 hPa 0,0 l/m 0,7 km/h (0 Bft) N-NO 17 0 min 0,000 mm 0,0 UV-I 37 W/m 1,1 C 1,8 C 1,6 km/h (1 Bft) 100,00 %
22.10.2018 08:06 1,9 C 11,1 C -1,1 C 95 % 1026,5 hPa 0,0 l/m 1,3 km/h (1 Bft) N-NO 17 2 min 0,000 mm 0,0 UV-I 46 W/m 1,2 C 1,9 C 1,6 km/h (1 Bft) 100,00 %
22.10.2018 08:08 1,9 C 11,1 C -1,1 C 95 % 1026,5 hPa 0,0 l/m 1,5 km/h (1 Bft) N-NO 17 2 min 0,000 mm 0,0 UV-I 50 W/m 1,2 C 1,9 C 1,6 km/h (1 Bft) 100,00 %
22.10.2018 08:10 1,9 C 11,7 C -1,1 C 95 % 1026,5 hPa 0,0 l/m 1,2 km/h (1 Bft) N-NO 17 2 min 0,000 mm 0,0 UV-I 54 W/m 1,2 C 1,9 C 1,6 km/h (1 Bft) 100,00 %
22.10.2018 08:12 1,9 C 11,1 C -1,1 C 95 % 1026,5 hPa 0,0 l/m 0,9 km/h (0 Bft) N-NO 17 2 min 0,000 mm 0,0 UV-I 58 W/m 1,2 C 1,9 C 1,6 km/h (1 Bft) 95,74 %
22.10.2018 08:14 2,0 C 11,1 C -1,1 C 95 % 1026,5 hPa 0,0 l/m 0,7 km/h (0 Bft) N-NO 17 2 min 0,000 mm 0,0 UV-I 62 W/m 1,3 C 2,0 C 1,6 km/h (1 Bft) 100,00 %
22.10.2018 08:16 2,2 C 11,1 C -1,1 C 95 % 1026,5 hPa 0,0 l/m 0,4 km/h (0 Bft) N-NO 17 2 min 0,000 mm 0,0 UV-I 65 W/m 1,5 C 2,2 C 1,6 km/h (1 Bft) 100,00 %
22.10.2018 08:18 2,3 C 11,1 C -1,1 C 95 % 1026,6 hPa 0,0 l/m 0,0 km/h (0 Bft) N-NO 17 2 min 0,000 mm 0,0 UV-I 69 W/m 1,6 C 2,3 C 0,0 km/h (0 Bft) 100,00 %
22.10.2018 08:20 2,3 C 11,1 C -1,1 C 95 % 1026,6 hPa 0,0 l/m 0,0 km/h (0 Bft) N-NO 17 2 min 0,000 mm 0,0 UV-I 73 W/m 1,6 C 2,3 C 0,0 km/h (0 Bft) 97,87 %
22.10.2018 08:22 2,4 C 11,1 C -1,1 C 95 % 1026,6 hPa 0,0 l/m 0,0 km/h (0 Bft) N-NO 17 2 min 0,000 mm 0,0 UV-I 77 W/m 1,7 C 2,4 C 0,0 km/h (0 Bft) 100,00 %
22.10.2018 08:24 2,6 C 11,1 C -0,6 C 95 % 1026,6 hPa 0,0 l/m 0,0 km/h (0 Bft) N-NO 17 2 min 0,000 mm 0,0 UV-I 80 W/m 1,9 C 2,6 C 0,0 km/h (0 Bft) 97,56 %
22.10.2018 08:26 2,7 C 11,1 C -0,6 C 95 % 1026,6 hPa 0,0 l/m 0,0 km/h (0 Bft) N-NO 17 2 min 0,000 mm 0,0 UV-I 84 W/m 2,0 C 2,7 C 0,0 km/h (0 Bft) 96,00 %
22.10.2018 08:28 2,7 C 11,1 C -0,6 C 95 % 1026,6 hPa 0,0 l/m 0,0 km/h (0 Bft) N-NO 17 2 min 0,000 mm 0,0 UV-I 88 W/m 2,0 C 2,7 C 1,6 km/h (1 Bft) 96,00 %
22.10.2018 08:30 2,6 C 11,1 C 0,6 C 95 % 1026,6 hPa 0,0 l/m 1,0 km/h (0 Bft) N-NO 17 2 min 0,000 mm 0,0 UV-I 91 W/m 1,9 C 2,6 C 1,6 km/h (1 Bft) 95,74 %
22.10.2018 08:32 2,7 C 11,1 C 0,6 C 95 % 1026,6 hPa 0,0 l/m 1,3 km/h (1 Bft) N-NO 18 2 min 0,000 mm 0,0 UV-I 98 W/m 2,0 C 2,7 C 1,6 km/h (1 Bft) 95,12 %
22.10.2018 08:34 2,8 C 11,1 C 0,6 C 95 % 1026,6 hPa 0,0 l/m 1,2 km/h (1 Bft) N-NO 18 2 min 0,000 mm 0,0 UV-I 101 W/m 2,1 C 2,8 C 1,6 km/h (1 Bft) 95,74 %
22.10.2018 08:36 2,8 C 11,7 C 0,6 C 95 % 1026,7 hPa 0,0 l/m 0,8 km/h (0 Bft) N-NO 18 2 min 0,000 mm 0,0 UV-I 105 W/m 2,1 C 2,8 C 1,6 km/h (1 Bft) 96,23 %
22.10.2018 08:38 2,9 C 11,1 C 0,6 C 95 % 1026,7 hPa 0,0 l/m 0,0 km/h (0 Bft) N-NO 18 2 min 0,000 mm 0,0 UV-I 111 W/m 2,2 C 2,9 C 1,6 km/h (1 Bft) 93,62 %
22.10.2018 08:40 3,0 C 11,1 C 0,6 C 95 % 1026,7 hPa 0,0 l/m 0,0 km/h (0 Bft) N-NO 18 2 min 0,000 mm 0,0 UV-I 114 W/m 2,3 C 3,0 C 0,0 km/h (0 Bft) 94,74 %
22.10.2018 08:42 3,1 C 11,1 C 1,1 C 95 % 1026,7 hPa 0,0 l/m 0,1 km/h (0 Bft) N-NO 18 2 min 0,000 mm 0,0 UV-I 119 W/m 2,4 C 3,1 C 1,6 km/h (1 Bft) 95,74 %
22.10.2018 08:44 3,1 C 11,1 C 1,1 C 95 % 1026,7 hPa 0,0 l/m 1,6 km/h (1 Bft) N-NO 18 2 min 0,000 mm 0,0 UV-I 121 W/m 2,4 C 3,1 C 3,2 km/h (1 Bft) 92,00 %
22.10.2018 08:46 3,0 C 11,1 C 1,7 C 94 % 1026,7 hPa 0,0 l/m 2,1 km/h (1 Bft) N-NO 18 2 min 0,000 mm 0,0 UV-I 127 W/m 2,1 C 3,0 C 3,2 km/h (1 Bft) 95,45 %
22.10.2018 08:48 2,9 C 11,1 C 1,7 C 94 % 1026,8 hPa 0,0 l/m 1,6 km/h (1 Bft) N-NO 18 2 min 0,000 mm 0,0 UV-I 128 W/m 2,0 C 2,9 C 3,2 km/h (1 Bft) 96,00 %
22.10.2018 08:50 2,9 C 11,1 C 1,7 C 94 % 1026,8 hPa 0,0 l/m 1,9 km/h (1 Bft) N-NO 18 2 min 0,000 mm 0,0 UV-I 133 W/m 2,0 C 2,9 C 3,2 km/h (1 Bft) 98,00 %
22.10.2018 08:52 2,9 C 11,1 C 1,7 C 94 % 1026,8 hPa 0,0 l/m 1,2 km/h (1 Bft) N-NO 18 2 min 0,000 mm 0,0 UV-I 137 W/m 2,0 C 2,9 C 1,6 km/h (1 Bft) 97,87 %
22.10.2018 08:54 3,1 C 11,1 C 2,2 C 94 % 1026,8 hPa 0,0 l/m 0,0 km/h (0 Bft) N-NO 18 2 min 0,000 mm 0,0 UV-I 143 W/m 2,2 C 3,1 C 0,0 km/h (0 Bft) 95,74 %
22.10.2018 08:56 3,2 C 11,1 C 2,2 C 94 % 1026,8 hPa 0,0 l/m 0,4 km/h (0 Bft) N-NO 18 2 min 0,000 mm 0,0 UV-I 147 W/m 2,3 C 3,2 C 1,6 km/h (1 Bft) 100,00 %
22.10.2018 08:58 3,2 C 11,1 C 2,2 C 95 % 1026,8 hPa 0,0 l/m 1,3 km/h (1 Bft) N-NO 18 2 min 0,000 mm 0,0 UV-I 151 W/m 2,5 C 3,2 C 1,6 km/h (1 Bft) 100,00 %
22.10.2018 09:00 3,3 C 11,1 C 2,8 C 95 % 1026,8 hPa 0,0 l/m 1,9 km/h (1 Bft) N-NO 18 2 min 0,025 mm 0,0 UV-I 155 W/m 2,6 C 3,3 C 3,2 km/h (1 Bft) 100,00 %
22.10.2018 09:02 3,4 C 11,1 C 2,8 C 94 % 1026,8 hPa 0,0 l/m 1,4 km/h (1 Bft) N-NO 18 2 min 0,000 mm 0,0 UV-I 160 W/m 2,5 C 3,4 C 3,2 km/h (1 Bft) 100,00 %
22.10.2018 09:04 3,5 C 11,1 C 2,8 C 95 % 1026,8 hPa 0,0 l/m 1,0 km/h (0 Bft) N-NO 18 2 min 0,000 mm 0,0 UV-I 163 W/m 2,8 C 3,5 C 1,6 km/h (1 Bft) 100,00 %
22.10.2018 09:06 3,7 C 11,1 C 2,8 C 95 % 1026,8 hPa 0,0 l/m 0,7 km/h (0 Bft) N-NO 18 2 min 0,000 mm 0,0 UV-I 170 W/m 3,0 C 3,7 C 1,6 km/h (1 Bft) 100,00 %
22.10.2018 09:08 3,8 C 11,1 C 2,8 C 94 % 1026,8 hPa 0,0 l/m 0,1 km/h (0 Bft) N-NO 18 2 min 0,000 mm 0,0 UV-I 174 W/m 2,9 C 3,8 C 1,6 km/h (1 Bft) 97,73 %
22.10.2018 09:10 3,9 C 11,1 C 3,3 C 94 % 1026,8 hPa 0,0 l/m 0,0 km/h (0 Bft) N-NO 18 2 min 0,000 mm 0,0 UV-I 178 W/m 3,0 C 3,9 C 1,6 km/h (1 Bft) 100,00 %
22.10.2018 09:12 3,9 C 11,1 C 3,3 C 94 % 1026,8 hPa 0,0 l/m 0,9 km/h (0 Bft) N-NO 18 2 min 0,000 mm 0,0 UV-I 182 W/m 3,0 C 3,9 C 3,2 km/h (1 Bft) 100,00 %
22.10.2018 09:14 4,1 C 11,1 C 3,3 C 94 % 1026,8 hPa 0,0 l/m 2,1 km/h (1 Bft) N-NO 18 2 min 0,000 mm 0,0 UV-I 185 W/m 3,2 C 4,1 C 3,2 km/h (1 Bft) 100,00 %
22.10.2018 09:16 4,1 C 11,1 C 3,9 C 94 % 1026,8 hPa 0,0 l/m 1,3 km/h (1 Bft) N-NO 18 2 min 0,000 mm 0,0 UV-I 190 W/m 3,2 C 4,1 C 1,6 km/h (1 Bft) 97,87 %
22.10.2018 09:18 4,2 C 11,1 C 3,9 C 94 % 1026,9 hPa 0,0 l/m 0,1 km/h (0 Bft) N-NO 18 2 min 0,000 mm 0,0 UV-I 194 W/m 3,3 C 4,2 C 1,6 km/h (1 Bft) 97,56 %
22.10.2018 09:20 4,3 C 11,1 C 3,9 C 94 % 1026,9 hPa 0,0 l/m 0,0 km/h (0 Bft) N-NO 18 2 min 0,000 mm 0,0 UV-I 199 W/m 3,4 C 4,3 C 0,0 km/h (0 Bft) 100,00 %
22.10.2018 09:22 4,5 C 11,1 C 3,9 C 94 % 1026,9 hPa 0,0 l/m 0,0 km/h (0 Bft) N-NO 18 2 min 0,000 mm 0,0 UV-I 202 W/m 3,6 C 4,5 C 0,0 km/h (0 Bft) 100,00 %
22.10.2018 09:24 4,9 C 11,1 C 3,9 C 94 % 1027,0 hPa 0,0 l/m 0,0 km/h (0 Bft) N-NO 18 2 min 0,000 mm 0,0 UV-I 208 W/m 4,0 C 4,9 C 0,0 km/h (0 Bft) 100,00 %
22.10.2018 09:26 5,1 C 11,1 C 3,9 C 93 % 1027,0 hPa 0,0 l/m 0,0 km/h (0 Bft) N-NO 18 2 min 0,000 mm 0,0 UV-I 213 W/m 4,1 C 5,1 C 0,0 km/h (0 Bft) 100,00 %
22.10.2018 09:28 5,3 C 11,1 C 3,9 C 92 % 1027,0 hPa 0,0 l/m 0,0 km/h (0 Bft) N-NO 18 2 min 0,000 mm 0,0 UV-I 216 W/m 4,1 C 5,3 C 0,0 km/h (0 Bft) 100,00 %
22.10.2018 09:30 5,3 C 11,1 C 4,4 C 91 % 1027,0 hPa 0,0 l/m 0,0 km/h (0 Bft) N-NO 18 2 min 0,000 mm 0,0 UV-I 223 W/m 4,0 C 5,3 C 0,0 km/h (0 Bft) 100,00 %
22.10.2018 09:32 5,3 C 11,1 C 4,4 C 91 % 1027,0 hPa 0,0 l/m 0,0 km/h (0 Bft) N-NO 18 2 min 0,000 mm 0,0 UV-I 231 W/m 4,0 C 5,3 C 0,0 km/h (0 Bft) 100,00 %
22.10.2018 09:34 5,2 C 11,1 C 4,4 C 91 % 1027,1 hPa 0,0 l/m 0,7 km/h (0 Bft) N-NO 18 2 min 0,000 mm 0,0 UV-I 237 W/m 3,9 C 5,2 C 3,2 km/h (1 Bft) 100,00 %
22.10.2018 09:36 5,5 C 11,1 C 4,4 C 92 % 1027,0 hPa 0,0 l/m 1,1 km/h (1 Bft) N-NO 18 2 min 0,000 mm 0,0 UV-I 244 W/m 4,3 C 5,5 C 3,2 km/h (1 Bft) 97,44 %
22.10.2018 09:38 5,7 C 11,1 C 5,0 C 91 % 1027,0 hPa 0,0 l/m 1,5 km/h (1 Bft) N-NO 18 2 min 0,000 mm 0,0 UV-I 248 W/m 4,3 C 5,7 C 3,2 km/h (1 Bft) 94,29 %
22.10.2018 09:40 5,9 C 11,1 C 5,0 C 91 % 1027,1 hPa 0,0 l/m 1,9 km/h (1 Bft) N-NO 18 2 min 0,000 mm 0,2 UV-I 254 W/m 4,5 C 5,9 C 3,2 km/h (1 Bft) 96,43 %
22.10.2018 09:42 6,1 C 11,1 C 5,0 C 90 % 1027,1 hPa 0,0 l/m 3,2 km/h (1 Bft) N-NO 18 2 min 0,000 mm 0,5 UV-I 258 W/m 4,6 C 6,1 C 4,8 km/h (1 Bft) 97,87 %
22.10.2018 09:45 6,2 C 11,1 C 5,6 C 90 % 1027,1 hPa 0,0 l/m 2,9 km/h (1 Bft) N-NO 24 3 min 0,000 mm 0,5 UV-I 263 W/m 4,7 C 6,2 C 4,8 km/h (1 Bft) 97,56 %
22.10.2018 09:46 6,3 C 11,1 C 5,6 C 90 % 1027,1 hPa 0,0 l/m 3,3 km/h (1 Bft) N-NO 24 1 min 0,000 mm 0,5 UV-I 265 W/m 4,8 C 6,3 C 4,8 km/h (1 Bft) 100,00 %
22.10.2018 09:48 6,3 C 11,1 C 5,6 C 90 % 1027,1 hPa 0,0 l/m 2,8 km/h (1 Bft) N-NO 24 2 min 0,000 mm 0,5 UV-I 268 W/m 4,8 C 6,3 C 4,8 km/h (1 Bft) 98,00 %
22.10.2018 09:50 6,4 C 11,1 C 5,6 C 90 % 1027,1 hPa 0,0 l/m 4,3 km/h (1 Bft) NO 45 2 min 0,000 mm 0,5 UV-I 273 W/m 4,9 C 6,4 C 6,4 km/h (2 Bft) 97,73 %
22.10.2018 09:52 6,6 C 11,1 C 5,6 C 89 % 1027,1 hPa 0,0 l/m 4,2 km/h (1 Bft) NO 56 2 min 0,000 mm 0,5 UV-I 277 W/m 4,9 C 6,6 C 6,4 km/h (2 Bft) 96,00 %
22.10.2018 09:55 6,5 C 11,1 C 6,1 C 89 % 1027,1 hPa 0,0 l/m 4,0 km/h (1 Bft) O-NO 71 3 min 0,000 mm 0,5 UV-I 279 W/m 4,8 C 6,5 C 6,4 km/h (2 Bft) 98,46 %
22.10.2018 09:56 6,5 C 11,1 C 6,1 C 89 % 1027,1 hPa 0,0 l/m 2,9 km/h (1 Bft) O-NO 71 1 min 0,000 mm 0,5 UV-I 280 W/m 4,8 C 6,5 C 4,8 km/h (1 Bft) 100,00 %
22.10.2018 09:58 6,6 C 11,1 C 6,1 C 89 % 1027,1 hPa 0,0 l/m 2,6 km/h (1 Bft) SO 131 2 min 0,000 mm 0,6 UV-I 284 W/m 4,9 C 6,6 C 3,2 km/h (1 Bft) 100,00 %
22.10.2018 10:00 6,6 C 11,1 C 6,1 C 88 % 1027,1 hPa 0,0 l/m 2,0 km/h (1 Bft) SO 131 2 min 0,102 mm 0,6 UV-I 289 W/m 4,8 C 6,6 C 3,2 km/h (1 Bft) 100,00 %
22.10.2018 10:02 6,4 C 11,1 C 6,7 C 88 % 1027,1 hPa 0,0 l/m 1,7 km/h (1 Bft) SO 131 2 min 0,000 mm 0,6 UV-I 294 W/m 4,6 C 6,4 C 3,2 km/h (1 Bft) 100,00 %
22.10.2018 10:04 6,5 C 11,1 C 6,7 C 88 % 1027,0 hPa 0,0 l/m 1,1 km/h (1 Bft) SO 131 2 min 0,000 mm 0,6 UV-I 298 W/m 4,7 C 6,5 C 3,2 km/h (1 Bft) 97,87 %
22.10.2018 10:06 6,7 C 11,1 C 6,7 C 89 % 1027,1 hPa 0,0 l/m 2,8 km/h (1 Bft) O 92 2 min 0,000 mm 0,6 UV-I 295 W/m 5,0 C 6,7 C 4,8 km/h (1 Bft) 98,11 %
22.10.2018 10:08 6,9 C 11,1 C 6,7 C 88 % 1027,0 hPa 0,0 l/m 3,6 km/h (1 Bft) O 92 2 min 0,000 mm 0,6 UV-I 308 W/m 5,1 C 6,9 C 4,8 km/h (1 Bft) 96,00 %
22.10.2018 10:10 7,1 C 11,1 C 6,7 C 88 % 1027,0 hPa 0,0 l/m 3,2 km/h (1 Bft) O 91 2 min 0,000 mm 0,6 UV-I 310 W/m 5,2 C 7,1 C 4,8 km/h (1 Bft) 97,87 %
22.10.2018 10:12 7,3 C 11,1 C 7,2 C 87 % 1027,0 hPa 0,0 l/m 3,8 km/h (1 Bft) N-NO 22 2 min 0,000 mm 0,7 UV-I 303 W/m 5,3 C 7,3 C 6,4 km/h (2 Bft) 97,22 %
22.10.2018 10:14 7,5 C 11,1 C 7,2 C 87 % 1027,1 hPa 0,0 l/m 5,7 km/h (1 Bft) N-NO 23 2 min 0,000 mm 0,7 UV-I 316 W/m 5,5 C 7,5 C 8,0 km/h (2 Bft) 100,00 %
22.10.2018 10:16 7,5 C 11,1 C 7,8 C 87 % 1027,0 hPa 0,0 l/m 4,9 km/h (1 Bft) N 11 2 min 0,000 mm 0,7 UV-I 322 W/m 5,5 C 7,5 C 6,4 km/h (2 Bft) 96,92 %
22.10.2018 10:18 7,5 C 11,1 C 7,8 C 87 % 1027,1 hPa 0,0 l/m 5,1 km/h (1 Bft) N-NO 30 2 min 0,000 mm 0,7 UV-I 316 W/m 5,5 C 7,5 C 6,4 km/h (2 Bft) 98,00 %
22.10.2018 10:20 7,5 C 11,1 C 7,8 C 86 % 1027,1 hPa 0,0 l/m 3,7 km/h (1 Bft) NO 36 2 min 0,000 mm 0,7 UV-I 319 W/m 5,3 C 7,5 C 4,8 km/h (1 Bft) 98,00 %
22.10.2018 10:22 7,6 C 11,1 C 7,8 C 87 % 1027,1 hPa 0,0 l/m 4,6 km/h (1 Bft) N-NO 16 2 min 0,000 mm 0,7 UV-I 331 W/m 5,6 C 7,6 C 6,4 km/h (2 Bft) 97,56 %
22.10.2018 10:24 7,6 C 11,1 C 8,3 C 86 % 1027,2 hPa 0,0 l/m 5,8 km/h (2 Bft) N-NO 15 2 min 0,000 mm 0,8 UV-I 334 W/m 5,4 C 7,6 C 8,0 km/h (2 Bft) 98,11 %
22.10.2018 10:26 7,7 C 11,1 C 8,3 C 87 % 1027,1 hPa 0,0 l/m 5,8 km/h (2 Bft) N-NO 28 2 min 0,000 mm 0,8 UV-I 332 W/m 5,7 C 7,7 C 8,0 km/h (2 Bft) 100,00 %
22.10.2018 10:28 7,8 C 11,1 C 8,3 C 86 % 1027,2 hPa 0,0 l/m 4,0 km/h (1 Bft) O-NO 75 2 min 0,000 mm 0,8 UV-I 339 W/m 5,6 C 7,8 C 4,8 km/h (1 Bft) 100,00 %
22.10.2018 10:30 7,8 C 11,1 C 8,9 C 85 % 1027,2 hPa 0,0 l/m 5,3 km/h (1 Bft) O-NO 64 2 min 0,000 mm 0,8 UV-I 339 W/m 5,4 C 7,8 C 8,0 km/h (2 Bft) 97,87 %
22.10.2018 10:32 7,9 C 11,1 C 8,9 C 85 % 1027,2 hPa 0,0 l/m 4,5 km/h (1 Bft) NO 40 2 min 0,000 mm 0,8 UV-I 339 W/m 5,5 C 7,9 C 6,4 km/h (2 Bft) 97,87 %
22.10.2018 10:34 8,1 C 11,1 C 9,4 C 85 % 1027,2 hPa 0,0 l/m 5,3 km/h (1 Bft) NO 45 2 min 0,000 mm 0,8 UV-I 346 W/m 5,7 C 8,1 C 8,0 km/h (2 Bft) 100,00 %
22.10.2018 10:36 8,2 C 11,1 C 10,0 C 85 % 1027,2 hPa 0,0 l/m 4,1 km/h (1 Bft) NO 37 2 min 0,000 mm 0,8 UV-I 342 W/m 5,8 C 8,2 C 6,4 km/h (2 Bft) 100,00 %
22.10.2018 10:38 8,2 C 11,1 C 10,0 C 84 % 1027,1 hPa 0,0 l/m 3,8 km/h (1 Bft) O-NO 67 2 min 0,000 mm 0,8 UV-I 357 W/m 5,7 C 8,2 C 6,4 km/h (2 Bft) 100,00 %
22.10.2018 10:40 8,3 C 11,1 C 10,6 C 84 % 1027,1 hPa 0,0 l/m 5,8 km/h (2 Bft) N-NO 33 2 min 0,000 mm 0,9 UV-I 357 W/m 5,8 C 8,3 C 8,0 km/h (2 Bft) 94,74 %
22.10.2018 10:42 8,4 C 11,1 C 11,7 C 85 % 1027,1 hPa 0,0 l/m 7,2 km/h (2 Bft) NO 46 2 min 0,000 mm 0,9 UV-I 347 W/m 6,0 C 7,8 C 11,3 km/h (2 Bft) 96,61 %
22.10.2018 10:44 8,5 C 11,1 C 12,2 C 84 % 1027,1 hPa 0,0 l/m 7,3 km/h (2 Bft) NO 42 2 min 0,000 mm 0,9 UV-I 365 W/m 6,0 C 7,8 C 9,7 km/h (2 Bft) 97,87 %
22.10.2018 10:46 8,5 C 11,1 C 12,8 C 84 % 1027,2 hPa 0,0 l/m 6,1 km/h (2 Bft) N-NO 26 2 min 0,000 mm 0,9 UV-I 361 W/m 6,0 C 8,5 C 9,7 km/h (2 Bft) 95,74 %
22.10.2018 10:48 8,6 C 11,1 C 13,9 C 84 % 1027,1 hPa 0,0 l/m 5,6 km/h (1 Bft) NO 34 2 min 0,000 mm 0,9 UV-I 362 W/m 6,1 C 8,6 C 9,7 km/h (2 Bft) 94,87 %
22.10.2018 10:50 8,6 C 11,1 C 15,0 C 83 % 1027,2 hPa 0,0 l/m 6,3 km/h (2 Bft) N-NO 28 2 min 0,000 mm 0,9 UV-I 371 W/m 5,9 C 8,6 C 9,7 km/h (2 Bft) 98,18 %
22.10.2018 10:52 8,6 C 11,1 C 15,6 C 83 % 1027,1 hPa 0,0 l/m 6,5 km/h (2 Bft) NO 48 2 min 0,000 mm 0,9 UV-I 366 W/m 5,9 C 8,5 C 9,7 km/h (2 Bft) 97,78 %
22.10.2018 10:54 8,6 C 11,1 C 16,1 C 83 % 1027,1 hPa 0,0 l/m 5,7 km/h (1 Bft) NO 36 2 min 0,000 mm 0,9 UV-I 360 W/m 5,9 C 8,6 C 9,7 km/h (2 Bft) 97,56 %
22.10.2018 10:56 8,6 C 11,1 C 16,1 C 83 % 1027,1 hPa 0,0 l/m 5,2 km/h (1 Bft) NO 49 2 min 0,000 mm 0,9 UV-I 361 W/m 5,9 C 8,6 C 8,0 km/h (2 Bft) 98,00 %
22.10.2018 10:58 8,8 C 11,1 C 17,2 C 84 % 1027,0 hPa 0,0 l/m 7,4 km/h (2 Bft) NO 38 2 min 0,000 mm 1,0 UV-I 374 W/m 6,2 C 8,0 C 9,7 km/h (2 Bft) 97,73 %
22.10.2018 11:00 8,8 C 11,1 C 17,8 C 83 % 1027,0 hPa 0,0 l/m 6,3 km/h (2 Bft) N-NO 32 2 min 0,152 mm 1,0 UV-I 379 W/m 6,1 C 8,8 C 8,0 km/h (2 Bft) 100,00 %
22.10.2018 11:02 8,9 C 11,1 C 17,8 C 83 % 1027,0 hPa 0,0 l/m 7,1 km/h (2 Bft) N-NO 27 2 min 0,000 mm 1,0 UV-I 387 W/m 6,2 C 8,4 C 9,7 km/h (2 Bft) 100,00 %
22.10.2018 11:04 9,1 C 11,1 C 17,8 C 84 % 1027,0 hPa 0,0 l/m 7,6 km/h (2 Bft) NO 38 2 min 0,000 mm 1,0 UV-I 390 W/m 6,5 C 8,2 C 11,3 km/h (2 Bft) 97,87 %
22.10.2018 11:06 9,1 C 11,1 C 17,2 C 81 % 1027,0 hPa 0,0 l/m 7,8 km/h (2 Bft) NO 53 2 min 0,000 mm 1,0 UV-I 394 W/m 6,0 C 8,1 C 11,3 km/h (2 Bft) 97,87 %
22.10.2018 11:08 9,1 C 11,1 C 17,8 C 81 % 1027,0 hPa 0,0 l/m 4,4 km/h (1 Bft) N-NO 31 2 min 0,000 mm 1,0 UV-I 396 W/m 6,0 C 9,1 C 6,4 km/h (2 Bft) 97,87 %
22.10.2018 11:10 9,2 C 11,1 C 18,9 C 82 % 1027,0 hPa 0,0 l/m 6,0 km/h (2 Bft) NO 44 2 min 0,000 mm 1,1 UV-I 393 W/m 6,3 C 9,2 C 8,0 km/h (2 Bft) 97,37 %
22.10.2018 11:12 9,4 C 11,7 C 20,0 C 82 % 1027,0 hPa 0,0 l/m 4,9 km/h (1 Bft) O-NO 78 2 min 0,000 mm 1,1 UV-I 397 W/m 6,5 C 9,4 C 8,0 km/h (2 Bft) 97,87 %
22.10.2018 11:14 9,5 C 11,7 C 20,6 C 79 % 1026,9 hPa 0,0 l/m 5,0 km/h (1 Bft) O-NO 62 2 min 0,000 mm 1,1 UV-I 401 W/m 6,0 C 9,5 C 9,7 km/h (2 Bft) 98,00 %
22.10.2018 11:16 9,5 C 11,1 C 20,6 C 79 % 1026,9 hPa 0,0 l/m 5,9 km/h (2 Bft) O-NO 57 2 min 0,000 mm 1,1 UV-I 404 W/m 6,0 C 9,5 C 9,7 km/h (2 Bft) 96,00 %
22.10.2018 11:18 9,7 C 11,1 C 21,1 C 79 % 1026,9 hPa 0,0 l/m 4,1 km/h (1 Bft) O-NO 76 2 min 0,000 mm 1,1 UV-I 407 W/m 6,2 C 9,7 C 6,4 km/h (2 Bft) 93,62 %
22.10.2018 11:20 9,8 C 11,1 C 21,1 C 79 % 1026,9 hPa 0,0 l/m 6,6 km/h (2 Bft) NO 49 2 min 0,000 mm 1,1 UV-I 410 W/m 6,3 C 9,7 C 11,3 km/h (2 Bft) 94,00 %
22.10.2018 11:22 9,9 C 11,7 C 20,6 C 80 % 1026,9 hPa 0,0 l/m 6,9 km/h (2 Bft) NO 41 2 min 0,000 mm 1,1 UV-I 414 W/m 6,6 C 9,5 C 11,3 km/h (2 Bft) 95,45 %
22.10.2018 11:24 9,8 C 11,1 C 20,0 C 78 % 1026,9 hPa 0,0 l/m 4,8 km/h (1 Bft) NO 48 2 min 0,000 mm 1,2 UV-I 417 W/m 6,1 C 9,8 C 11,3 km/h (2 Bft) 95,83 %
22.10.2018 11:26 9,8 C 11,1 C 18,9 C 79 % 1027,0 hPa 0,0 l/m 8,2 km/h (2 Bft) NO 42 2 min 0,000 mm 1,2 UV-I 418 W/m 6,3 C 8,5 C 9,7 km/h (2 Bft) 94,12 %
22.10.2018 11:28 9,8 C 11,7 C 18,9 C 79 % 1027,0 hPa 0,0 l/m 4,2 km/h (1 Bft) NO 54 2 min 0,000 mm 1,2 UV-I 423 W/m 6,3 C 9,8 C 8,0 km/h (2 Bft) 96,00 %
22.10.2018 11:30 9,8 C 11,7 C 18,9 C 80 % 1026,9 hPa 0,0 l/m 7,6 km/h (2 Bft) N-NO 18 2 min 0,000 mm 1,2 UV-I 422 W/m 6,5 C 8,9 C 11,3 km/h (2 Bft) 94,74 %
22.10.2018 11:32 10,1 C 11,7 C 20,0 C 80 % 1026,9 hPa 0,0 l/m 8,4 km/h (2 Bft) NO 40 2 min 0,000 mm 1,2 UV-I 420 W/m 6,8 C 8,7 C 11,3 km/h (2 Bft) 96,00 %
22.10.2018 11:34 10,2 C 11,7 C 20,0 C 78 % 1026,9 hPa 0,0 l/m 5,4 km/h (1 Bft) O-NO 67 2 min 0,000 mm 1,2 UV-I 423 W/m 6,5 C 10,2 C 11,3 km/h (2 Bft) 94,00 %
22.10.2018 11:36 10,3 C 11,7 C 21,1 C 75 % 1026,9 hPa 0,0 l/m 5,3 km/h (1 Bft) NO 41 2 min 0,000 mm 1,2 UV-I 432 W/m 6,1 C 10,3 C 9,7 km/h (2 Bft) 97,56 %
22.10.2018 11:38 10,4 C 11,7 C 21,1 C 77 % 1026,9 hPa 0,0 l/m 3,7 km/h (1 Bft) NO 46 2 min 0,000 mm 1,2 UV-I 432 W/m 6,5 C 10,4 C 6,4 km/h (2 Bft) 93,62 %
22.10.2018 11:40 10,5 C 11,7 C 21,1 C 78 % 1026,9 hPa 0,0 l/m 7,8 km/h (2 Bft) NO 40 2 min 0,000 mm 1,2 UV-I 434 W/m 6,8 C 9,5 C 14,5 km/h (3 Bft) 97,87 %
22.10.2018 11:42 10,5 C 11,7 C 21,1 C 77 % 1026,9 hPa 0,0 l/m 4,5 km/h (1 Bft) O-NO 57 2 min 0,000 mm 1,3 UV-I 433 W/m 6,6 C 10,5 C 8,0 km/h (2 Bft) 95,74 %
22.10.2018 11:44 10,6 C 11,7 C 21,7 C 77 % 1026,8 hPa 0,0 l/m 4,1 km/h (1 Bft) NO 52 2 min 0,000 mm 1,3 UV-I 436 W/m 6,7 C 10,6 C 9,7 km/h (2 Bft) 97,87 %
22.10.2018 11:46 10,4 C 11,7 C 21,7 C 76 % 1026,8 hPa 0,0 l/m 6,6 km/h (2 Bft) N-NO 17 2 min 0,000 mm 1,3 UV-I 436 W/m 6,4 C 10,3 C 9,7 km/h (2 Bft) 98,00 %
22.10.2018 11:48 10,4 C 11,7 C 20,6 C 77 % 1026,8 hPa 0,0 l/m 5,8 km/h (2 Bft) N 9 2 min 0,000 mm 1,3 UV-I 439 W/m 6,5 C 10,4 C 8,0 km/h (2 Bft) 97,56 %
22.10.2018 11:50 10,4 C 11,7 C 20,0 C 78 % 1026,8 hPa 0,0 l/m 6,0 km/h (2 Bft) NO 44 2 min 0,000 mm 1,3 UV-I 441 W/m 6,7 C 10,4 C 8,0 km/h (2 Bft) 96,23 %
22.10.2018 11:52 10,5 C 11,7 C 20,0 C 76 % 1026,8 hPa 0,0 l/m 6,3 km/h (2 Bft) NO 43 2 min 0,000 mm 1,3 UV-I 443 W/m 6,5 C 10,5 C 11,3 km/h (2 Bft) 95,45 %
22.10.2018 11:54 10,6 C 11,7 C 20,6 C 76 % 1026,8 hPa 0,0 l/m 4,1 km/h (1 Bft) NO 38 2 min 0,000 mm 1,3 UV-I 445 W/m 6,5 C 10,6 C 8,0 km/h (2 Bft) 96,00 %
22.10.2018 11:56 10,7 C 11,7 C 20,6 C 77 % 1026,8 hPa 0,0 l/m 7,1 km/h (2 Bft) O-NO 67 2 min 0,000 mm 1,3 UV-I 445 W/m 6,8 C 10,2 C 9,7 km/h (2 Bft) 94,00 %
22.10.2018 11:58 10,6 C 11,7 C 20,0 C 75 % 1026,8 hPa 0,0 l/m 6,3 km/h (2 Bft) NO 36 2 min 0,000 mm 1,3 UV-I 446 W/m 6,4 C 10,6 C 11,3 km/h (2 Bft) 95,74 %
22.10.2018 12:00 10,7 C 11,7 C 20,0 C 74 % 1026,8 hPa 0,0 l/m 5,4 km/h (1 Bft) O-NO 64 2 min 0,204 mm 1,3 UV-I 448 W/m 6,3 C 10,7 C 11,3 km/h (2 Bft) 95,74 %
22.10.2018 12:02 10,8 C 11,7 C 20,6 C 75 % 1026,7 hPa 0,0 l/m 4,3 km/h (1 Bft) O-NO 58 2 min 0,000 mm 1,3 UV-I 449 W/m 6,5 C 10,8 C 8,0 km/h (2 Bft) 92,86 %
22.10.2018 12:04 11,0 C 11,7 C 21,1 C 74 % 1026,7 hPa 0,0 l/m 4,9 km/h (1 Bft) SO 125 2 min 0,000 mm 1,3 UV-I 449 W/m 6,5 C 11,0 C 8,0 km/h (2 Bft) 92,00 %
22.10.2018 12:06 11,2 C 11,7 C 21,1 C 72 % 1026,7 hPa 0,0 l/m 6,1 km/h (2 Bft) O-SO 107 2 min 0,000 mm 1,3 UV-I 453 W/m 6,3 C 11,2 C 11,3 km/h (2 Bft) 95,45 %
22.10.2018 12:08 11,1 C 11,7 C 20,6 C 73 % 1026,7 hPa 0,0 l/m 6,3 km/h (2 Bft) NO 36 2 min 0,000 mm 1,3 UV-I 453 W/m 6,4 C 11,1 C 9,7 km/h (2 Bft) 95,45 %
22.10.2018 12:10 11,3 C 11,7 C 20,0 C 76 % 1026,7 hPa 0,0 l/m 8,3 km/h (2 Bft) NO 42 2 min 0,000 mm 1,4 UV-I 453 W/m 7,2 C 10,0 C 12,9 km/h (3 Bft) 96,00 %
22.10.2018 12:12 11,6 C 11,7 C 19,4 C 73 % 1026,6 hPa 0,0 l/m 5,4 km/h (1 Bft) O-NO 58 2 min 0,000 mm 1,4 UV-I 455 W/m 6,9 C 11,6 C 8,0 km/h (2 Bft) 93,62 %
22.10.2018 12:14 11,7 C 11,7 C 20,6 C 72 % 1026,7 hPa 0,0 l/m 5,2 km/h (1 Bft) NO 42 2 min 0,000 mm 1,4 UV-I 455 W/m 6,8 C 11,7 C 9,7 km/h (2 Bft) 100,00 %
22.10.2018 12:16 11,8 C 11,7 C 20,6 C 72 % 1026,7 hPa 0,0 l/m 6,3 km/h (2 Bft) O 95 2 min 0,000 mm 1,4 UV-I 456 W/m 6,9 C 11,8 C 9,7 km/h (2 Bft) 94,92 %
22.10.2018 12:18 11,7 C 11,7 C 20,6 C 70 % 1026,6 hPa 0,0 l/m 6,0 km/h (2 Bft) O 94 2 min 0,000 mm 1,4 UV-I 458 W/m 6,4 C 11,7 C 11,3 km/h (2 Bft) 94,74 %
22.10.2018 12:20 11,7 C 11,7 C 20,6 C 71 % 1026,5 hPa 0,0 l/m 6,8 km/h (2 Bft) N-NO 27 2 min 0,000 mm 1,4 UV-I 458 W/m 6,6 C 11,4 C 9,7 km/h (2 Bft) 98,00 %
22.10.2018 12:22 11,8 C 11,7 C 20,6 C 72 % 1026,5 hPa 0,0 l/m 7,1 km/h (2 Bft) N 5 2 min 0,000 mm 1,4 UV-I 458 W/m 6,9 C 11,3 C 11,3 km/h (2 Bft) 97,56 %
22.10.2018 12:24 11,9 C 11,7 C 20,6 C 72 % 1026,5 hPa 0,0 l/m 6,0 km/h (2 Bft) N-NO 29 2 min 0,000 mm 1,4 UV-I 459 W/m 7,0 C 11,9 C 8,0 km/h (2 Bft) 98,53 %
22.10.2018 12:26 12,0 C 11,7 C 21,1 C 72 % 1026,5 hPa 0,0 l/m 4,4 km/h (1 Bft) N-NO 30 2 min 0,000 mm 1,4 UV-I 460 W/m 7,1 C 12,0 C 9,7 km/h (2 Bft) 97,87 %
22.10.2018 12:29 11,9 C 11,7 C 20,6 C 71 % 1026,5 hPa 0,0 l/m 5,5 km/h (1 Bft) N-NO 26 3 min 0,000 mm 1,4 UV-I 461 W/m 6,8 C 11,9 C 9,7 km/h (2 Bft) 97,18 %
22.10.2018 12:30 11,9 C 11,7 C 20,6 C 70 % 1026,5 hPa 0,0 l/m 6,0 km/h (2 Bft) NO 36 1 min 0,000 mm 1,4 UV-I 461 W/m 6,6 C 11,9 C 8,0 km/h (2 Bft) 95,65 %
22.10.2018 12:32 12,0 C 11,7 C 20,6 C 72 % 1026,5 hPa 0,0 l/m 7,9 km/h (2 Bft) NO 38 2 min 0,000 mm 1,4 UV-I 462 W/m 7,1 C 11,0 C 16,1 km/h (3 Bft) 95,74 %
22.10.2018 12:34 12,1 C 11,7 C 21,1 C 66 % 1026,5 hPa 0,0 l/m 6,6 km/h (2 Bft) O-NO 68 2 min 0,000 mm 1,4 UV-I 462 W/m 5,9 C 12,0 C 16,1 km/h (3 Bft) 97,73 %
22.10.2018 12:36 12,2 C 11,7 C 21,1 C 68 % 1026,4 hPa 0,0 l/m 7,0 km/h (2 Bft) NO 36 2 min 0,000 mm 1,4 UV-I 462 W/m 6,5 C 11,8 C 14,5 km/h (3 Bft) 95,12 %
22.10.2018 12:38 12,2 C 11,7 C 19,4 C 69 % 1026,4 hPa 0,0 l/m 7,2 km/h (2 Bft) N 5 2 min 0,000 mm 1,4 UV-I 462 W/m 6,7 C 11,7 C 11,3 km/h (2 Bft) 98,11 %
22.10.2018 12:40 12,2 C 11,7 C 18,9 C 69 % 1026,4 hPa 0,0 l/m 5,8 km/h (2 Bft) NO 51 2 min 0,000 mm 1,4 UV-I 461 W/m 6,7 C 12,2 C 8,0 km/h (2 Bft) 95,24 %
22.10.2018 12:42 12,2 C 11,7 C 18,3 C 69 % 1026,4 hPa 0,0 l/m 8,4 km/h (2 Bft) N-NO 19 2 min 0,000 mm 1,4 UV-I 462 W/m 6,7 C 10,9 C 11,3 km/h (2 Bft) 95,74 %
22.10.2018 12:44 12,3 C 11,7 C 17,2 C 70 % 1026,3 hPa 0,0 l/m 10,7 km/h (2 Bft) NO 45 2 min 0,000 mm 1,4 UV-I 464 W/m 7,0 C 9,8 C 16,1 km/h (3 Bft) 94,00 %
22.10.2018 12:46 12,4 C 11,7 C 16,1 C 67 % 1026,3 hPa 0,0 l/m 8,8 km/h (2 Bft) NO 37 2 min 0,000 mm 1,4 UV-I 462 W/m 6,4 C 10,9 C 12,9 km/h (3 Bft) 95,74 %
22.10.2018 12:48 12,3 C 11,7 C 15,6 C 67 % 1026,3 hPa 0,0 l/m 6,7 km/h (2 Bft) NO 44 2 min 0,000 mm 1,4 UV-I 462 W/m 6,4 C 12,1 C 14,5 km/h (3 Bft) 93,62 %
22.10.2018 12:50 12,3 C 11,7 C 15,0 C 67 % 1026,3 hPa 0,0 l/m 12,2 km/h (2 Bft) NO 40 2 min 0,000 mm 1,4 UV-I 460 W/m 6,4 C 9,1 C 16,1 km/h (3 Bft) 94,74 %
22.10.2018 12:52 12,3 C 11,7 C 15,0 C 68 % 1026,3 hPa 0,0 l/m 10,7 km/h (2 Bft) NO 37 2 min 0,000 mm 1,4 UV-I 459 W/m 6,6 C 9,8 C 14,5 km/h (3 Bft) 96,43 %
22.10.2018 12:54 12,4 C 11,7 C 15,6 C 68 % 1026,2 hPa 0,0 l/m 10,2 km/h (2 Bft) NO 40 2 min 0,000 mm 1,4 UV-I 458 W/m 6,7 C 10,1 C 16,1 km/h (3 Bft) 94,74 %
22.10.2018 12:56 12,3 C 11,7 C 15,0 C 66 % 1026,1 hPa 0,0 l/m 8,0 km/h (2 Bft) N 9 2 min 0,000 mm 1,4 UV-I 459 W/m 6,1 C 11,3 C 12,9 km/h (3 Bft) 92,45 %
22.10.2018 12:58 12,3 C 11,7 C 14,4 C 65 % 1026,1 hPa 0,0 l/m 8,0 km/h (2 Bft) O-NO 77 2 min 0,000 mm 1,4 UV-I 459 W/m 5,9 C 11,3 C 12,9 km/h (3 Bft) 95,74 %
22.10.2018 13:00 12,3 C 11,7 C 14,4 C 65 % 1026,1 hPa 0,0 l/m 7,2 km/h (2 Bft) O-NO 73 2 min 0,000 mm 1,4 UV-I 461 W/m 5,9 C 11,8 C 12,9 km/h (3 Bft) 95,74 %
22.10.2018 13:02 12,4 C 11,7 C 14,4 C 66 % 1026,1 hPa 0,0 l/m 7,0 km/h (2 Bft) O-NO 69 2 min 0,254 mm 1,4 UV-I 459 W/m 6,2 C 12,0 C 11,3 km/h (2 Bft) 94,00 %
22.10.2018 13:04 12,6 C 11,7 C 14,4 C 64 % 1026,1 hPa 0,0 l/m 7,7 km/h (2 Bft) NO 55 2 min 0,000 mm 1,4 UV-I 458 W/m 6,0 C 11,8 C 9,7 km/h (2 Bft) 98,00 %
22.10.2018 13:06 12,6 C 11,7 C 13,9 C 63 % 1026,1 hPa 0,0 l/m 5,9 km/h (2 Bft) N-NO 30 2 min 0,000 mm 1,4 UV-I 456 W/m 5,7 C 12,6 C 8,0 km/h (2 Bft) 94,74 %
22.10.2018 13:08 12,7 C 11,7 C 13,9 C 64 % 1026,1 hPa 0,0 l/m 7,0 km/h (2 Bft) NO 46 2 min 0,000 mm 1,4 UV-I 455 W/m 6,1 C 12,3 C 8,0 km/h (2 Bft) 98,00 %
22.10.2018 13:10 12,6 C 11,7 C 13,3 C 64 % 1026,0 hPa 0,0 l/m 6,3 km/h (2 Bft) N 355 2 min 0,000 mm 1,4 UV-I 457 W/m 6,0 C 12,6 C 9,7 km/h (2 Bft) 97,73 %
22.10.2018 13:12 12,7 C 11,7 C 13,9 C 64 % 1026,0 hPa 0,0 l/m 7,1 km/h (2 Bft) N-NO 15 2 min 0,000 mm 1,4 UV-I 455 W/m 6,1 C 12,3 C 11,3 km/h (2 Bft) 94,34 %
22.10.2018 13:14 12,9 C 11,7 C 13,9 C 65 % 1026,0 hPa 0,0 l/m 9,2 km/h (2 Bft) NO 35 2 min 0,000 mm 1,4 UV-I 456 W/m 6,5 C 11,2 C 14,5 km/h (3 Bft) 94,87 %
22.10.2018 13:16 13,1 C 11,7 C 13,9 C 64 % 1026,0 hPa 0,0 l/m 11,5 km/h (2 Bft) NO 38 2 min 0,000 mm 1,4 UV-I 454 W/m 6,4 C 10,3 C 16,1 km/h (3 Bft) 96,00 %
22.10.2018 13:18 13,1 C 11,7 C 13,9 C 63 % 1026,0 hPa 0,0 l/m 10,6 km/h (2 Bft) N-NO 30 2 min 0,000 mm 1,4 UV-I 454 W/m 6,2 C 10,7 C 14,5 km/h (3 Bft) 92,00 %
22.10.2018 13:20 13,1 C 11,7 C 13,9 C 64 % 1026,0 hPa 0,0 l/m 7,5 km/h (2 Bft) N-NO 30 2 min 0,000 mm 1,4 UV-I 454 W/m 6,4 C 12,4 C 14,5 km/h (3 Bft) 97,37 %
22.10.2018 13:22 13,2 C 11,7 C 13,9 C 62 % 1025,9 hPa 0,0 l/m 5,3 km/h (1 Bft) N-NO 32 2 min 0,000 mm 1,4 UV-I 452 W/m 6,1 C 13,2 C 8,0 km/h (2 Bft) 94,00 %
22.10.2018 13:24 13,1 C 11,7 C 13,3 C 63 % 1025,9 hPa 0,0 l/m 7,0 km/h (2 Bft) NO 51 2 min 0,000 mm 1,4 UV-I 453 W/m 6,2 C 12,7 C 11,3 km/h (2 Bft) 96,43 %
22.10.2018 13:26 13,1 C 11,7 C 13,3 C 63 % 1025,8 hPa 0,0 l/m 8,0 km/h (2 Bft) N 5 2 min 0,000 mm 1,4 UV-I 451 W/m 6,2 C 12,1 C 9,7 km/h (2 Bft) 94,74 %
22.10.2018 13:28 13,1 C 11,7 C 13,3 C 62 % 1025,9 hPa 0,0 l/m 8,3 km/h (2 Bft) N 355 2 min 0,000 mm 1,4 UV-I 448 W/m 6,0 C 11,9 C 12,9 km/h (3 Bft) 95,74 %
22.10.2018 13:30 13,2 C 11,7 C 13,9 C 64 % 1025,8 hPa 0,0 l/m 6,3 km/h (2 Bft) N-NO 26 2 min 0,000 mm 1,4 UV-I 447 W/m 6,5 C 13,2 C 11,3 km/h (2 Bft) 92,45 %
22.10.2018 13:32 13,2 C 11,7 C 13,9 C 63 % 1025,8 hPa 0,0 l/m 6,8 km/h (2 Bft) N-NO 12 2 min 0,000 mm 1,4 UV-I 446 W/m 6,3 C 13,0 C 9,7 km/h (2 Bft) 97,87 %
22.10.2018 13:34 13,2 C 11,7 C 13,9 C 63 % 1025,7 hPa 0,0 l/m 6,4 km/h (2 Bft) NO 43 2 min 0,000 mm 1,4 UV-I 446 W/m 6,3 C 13,2 C 8,0 km/h (2 Bft) 97,56 %
22.10.2018 13:36 13,1 C 11,7 C 13,3 C 61 % 1025,7 hPa 0,0 l/m 4,6 km/h (1 Bft) N 9 2 min 0,000 mm 1,4 UV-I 445 W/m 5,8 C 13,1 C 8,0 km/h (2 Bft) 98,00 %
22.10.2018 13:38 13,1 C 11,7 C 13,9 C 61 % 1025,7 hPa 0,0 l/m 5,9 km/h (2 Bft) NO 40 2 min 0,000 mm 1,3 UV-I 443 W/m 5,8 C 13,1 C 9,7 km/h (2 Bft) 97,56 %
22.10.2018 13:40 13,2 C 11,7 C 13,9 C 60 % 1025,7 hPa 0,0 l/m 8,2 km/h (2 Bft) O-NO 67 2 min 0,000 mm 1,3 UV-I 440 W/m 5,6 C 12,1 C 14,5 km/h (3 Bft) 96,00 %
22.10.2018 13:42 13,1 C 11,7 C 13,9 C 59 % 1025,7 hPa 0,0 l/m 6,5 km/h (2 Bft) O-SO 113 2 min 0,000 mm 1,3 UV-I 437 W/m 5,3 C 13,1 C 12,9 km/h (3 Bft) 97,56 %
22.10.2018 13:44 13,1 C 11,7 C 13,9 C 58 % 1025,7 hPa 0,0 l/m 8,9 km/h (2 Bft) O 98 2 min 0,000 mm 1,3 UV-I 437 W/m 5,0 C 11,6 C 12,9 km/h (3 Bft) 96,00 %
22.10.2018 13:46 13,1 C 11,7 C 13,3 C 58 % 1025,7 hPa 0,0 l/m 6,0 km/h (2 Bft) O-NO 74 2 min 0,000 mm 1,3 UV-I 436 W/m 5,0 C 13,1 C 9,7 km/h (2 Bft) 98,00 %
22.10.2018 13:48 13,1 C 11,7 C 13,3 C 58 % 1025,7 hPa 0,0 l/m 3,4 km/h (1 Bft) O-NO 67 2 min 0,000 mm 1,3 UV-I 434 W/m 5,0 C 13,1 C 6,4 km/h (2 Bft) 97,87 %
22.10.2018 13:50 13,1 C 11,7 C 13,3 C 59 % 1025,7 hPa 0,0 l/m 4,6 km/h (1 Bft) O 92 2 min 0,000 mm 1,3 UV-I 432 W/m 5,3 C 13,1 C 8,0 km/h (2 Bft) 97,44 %
22.10.2018 13:52 13,0 C 11,7 C 13,3 C 59 % 1025,7 hPa 0,0 l/m 3,0 km/h (1 Bft) SO 142 2 min 0,000 mm 1,3 UV-I 430 W/m 5,2 C 13,0 C 4,8 km/h (1 Bft) 98,21 %
22.10.2018 13:54 12,9 C 11,7 C 13,3 C 60 % 1025,7 hPa 0,0 l/m 4,7 km/h (1 Bft) NO 55 2 min 0,000 mm 1,3 UV-I 430 W/m 5,3 C 12,9 C 16,1 km/h (3 Bft) 98,08 %
22.10.2018 13:56 13,2 C 11,7 C 13,3 C 60 % 1025,7 hPa 0,0 l/m 8,2 km/h (2 Bft) O 84 2 min 0,000 mm 1,3 UV-I 424 W/m 5,6 C 12,1 C 12,9 km/h (3 Bft) 94,87 %
22.10.2018 13:58 13,3 C 11,7 C 13,3 C 60 % 1025,7 hPa 0,0 l/m 5,3 km/h (1 Bft) NO 50 2 min 0,000 mm 1,3 UV-I 426 W/m 5,7 C 13,3 C 8,0 km/h (2 Bft) 98,11 %
22.10.2018 14:00 13,3 C 11,7 C 13,3 C 61 % 1025,7 hPa 0,0 l/m 9,0 km/h (2 Bft) O 96 2 min 0,254 mm 1,3 UV-I 423 W/m 5,9 C 11,8 C 12,9 km/h (3 Bft) 97,87 %
22.10.2018 14:02 13,3 C 11,7 C 13,3 C 59 % 1025,7 hPa 0,0 l/m 5,3 km/h (1 Bft) O 85 2 min 0,000 mm 1,2 UV-I 420 W/m 5,5 C 13,3 C 9,7 km/h (2 Bft) 95,74 %
22.10.2018 14:04 13,3 C 11,7 C 13,3 C 61 % 1025,7 hPa 0,0 l/m 6,9 km/h (2 Bft) N-NO 13 2 min 0,000 mm 1,2 UV-I 418 W/m 5,9 C 13,0 C 12,9 km/h (3 Bft) 100,00 %
22.10.2018 14:06 13,4 C 11,7 C 13,3 C 62 % 1025,7 hPa 0,0 l/m 6,2 km/h (2 Bft) O-NO 60 2 min 0,000 mm 1,2 UV-I 416 W/m 6,3 C 13,4 C 9,7 km/h (2 Bft) 96,23 %
22.10.2018 14:08 13,3 C 11,7 C 13,3 C 59 % 1025,6 hPa 0,0 l/m 3,8 km/h (1 Bft) N-NW 332 2 min 0,000 mm 1,2 UV-I 413 W/m 5,5 C 13,3 C 6,4 km/h (2 Bft) 98,00 %
22.10.2018 14:10 13,2 C 11,7 C 12,8 C 59 % 1025,6 hPa 0,0 l/m 3,0 km/h (1 Bft) NW 312 2 min 0,000 mm 1,2 UV-I 410 W/m 5,4 C 13,2 C 6,4 km/h (2 Bft) 95,92 %
22.10.2018 14:12 13,2 C 11,7 C 12,8 C 59 % 1025,6 hPa 0,0 l/m 4,2 km/h (1 Bft) W-NW 283 2 min 0,000 mm 1,2 UV-I 408 W/m 5,4 C 13,2 C 6,4 km/h (2 Bft) 95,12 %
22.10.2018 14:14 13,1 C 11,7 C 12,8 C 60 % 1025,5 hPa 0,0 l/m 3,5 km/h (1 Bft) W-SW 246 2 min 0,000 mm 1,2 UV-I 406 W/m 5,5 C 13,1 C 4,8 km/h (1 Bft) 95,74 %
22.10.2018 14:16 13,2 C 11,7 C 12,8 C 59 % 1025,5 hPa 0,0 l/m 2,3 km/h (1 Bft) W-SW 245 2 min 0,000 mm 1,2 UV-I 405 W/m 5,4 C 13,2 C 6,4 km/h (2 Bft) 95,74 %
22.10.2018 14:18 13,1 C 11,7 C 12,8 C 60 % 1025,5 hPa 0,0 l/m 2,7 km/h (1 Bft) NO 44 2 min 0,000 mm 1,2 UV-I 401 W/m 5,5 C 13,1 C 6,4 km/h (2 Bft) 94,00 %
22.10.2018 14:20 13,3 C 11,7 C 12,8 C 62 % 1025,5 hPa 0,0 l/m 4,2 km/h (1 Bft) N-NO 21 2 min 0,000 mm 1,2 UV-I 398 W/m 6,2 C 13,3 C 6,4 km/h (2 Bft) 94,00 %
22.10.2018 14:22 13,4 C 11,7 C 12,8 C 59 % 1025,5 hPa 0,0 l/m 4,9 km/h (1 Bft) N 11 2 min 0,000 mm 1,1 UV-I 399 W/m 5,6 C 13,4 C 8,0 km/h (2 Bft) 94,74 %
22.10.2018 14:24 13,5 C 11,7 C 12,8 C 61 % 1025,5 hPa 0,0 l/m 3,5 km/h (1 Bft) N-NO 15 2 min 0,000 mm 1,1 UV-I 395 W/m 6,1 C 13,5 C 4,8 km/h (1 Bft) 94,34 %
22.10.2018 14:26 13,6 C 11,7 C 12,8 C 61 % 1025,5 hPa 0,0 l/m 4,7 km/h (1 Bft) O-NO 61 2 min 0,000 mm 1,1 UV-I 394 W/m 6,2 C 13,6 C 6,4 km/h (2 Bft) 97,56 %
22.10.2018 14:28 13,6 C 11,7 C 12,8 C 58 % 1025,5 hPa 0,0 l/m 3,7 km/h (1 Bft) W-SW 247 2 min 0,000 mm 1,1 UV-I 389 W/m 5,5 C 13,6 C 6,4 km/h (2 Bft) 92,00 %
22.10.2018 14:30 13,4 C 11,7 C 12,8 C 58 % 1025,5 hPa 0,0 l/m 2,3 km/h (1 Bft) N-NW 345 2 min 0,000 mm 1,1 UV-I 386 W/m 5,3 C 13,4 C 4,8 km/h (1 Bft) 96,00 %
22.10.2018 14:32 13,5 C 11,7 C 12,8 C 59 % 1025,5 hPa 0,0 l/m 2,0 km/h (1 Bft) N-NO 31 2 min 0,000 mm 1,1 UV-I 383 W/m 5,6 C 13,5 C 4,8 km/h (1 Bft) 92,31 %
22.10.2018 14:34 13,5 C 11,7 C 12,8 C 59 % 1025,5 hPa 0,0 l/m 3,4 km/h (1 Bft) NO 43 2 min 0,000 mm 1,1 UV-I 380 W/m 5,6 C 13,5 C 8,0 km/h (2 Bft) 94,34 %
22.10.2018 14:36 13,6 C 11,7 C 12,8 C 60 % 1025,5 hPa 0,0 l/m 6,3 km/h (2 Bft) NO 44 2 min 0,000 mm 1,1 UV-I 379 W/m 6,0 C 13,6 C 8,0 km/h (2 Bft) 94,00 %
22.10.2018 14:38 13,5 C 11,7 C 12,8 C 59 % 1025,5 hPa 0,0 l/m 4,0 km/h (1 Bft) NO 41 2 min 0,000 mm 1,0 UV-I 376 W/m 5,6 C 13,5 C 6,4 km/h (2 Bft) 94,74 %
22.10.2018 14:40 13,6 C 11,7 C 12,8 C 60 % 1025,5 hPa 0,0 l/m 4,4 km/h (1 Bft) O-NO 61 2 min 0,000 mm 1,0 UV-I 373 W/m 6,0 C 13,6 C 6,4 km/h (2 Bft) 98,11 %
22.10.2018 14:42 13,5 C 11,7 C 12,8 C 59 % 1025,5 hPa 0,0 l/m 2,8 km/h (1 Bft) N-NO 29 2 min 0,000 mm 1,0 UV-I 370 W/m 5,6 C 13,5 C 4,8 km/h (1 Bft) 95,74 %
22.10.2018 14:44 13,4 C 11,7 C 12,8 C 58 % 1025,4 hPa 0,0 l/m 0,5 km/h (0 Bft) N-NO 29 2 min 0,000 mm 1,0 UV-I 366 W/m 5,3 C 13,4 C 1,6 km/h (1 Bft) 95,74 %
22.10.2018 14:46 13,3 C 11,7 C 12,8 C 58 % 1025,4 hPa 0,0 l/m 2,5 km/h (1 Bft) N-NO 28 2 min 0,000 mm 1,0 UV-I 364 W/m 5,2 C 13,3 C 4,8 km/h (1 Bft) 95,12 %
22.10.2018 14:48 13,2 C 11,7 C 12,8 C 58 % 1025,4 hPa 0,0 l/m 1,6 km/h (1 Bft) N-NO 28 2 min 0,000 mm 1,0 UV-I 360 W/m 5,1 C 13,2 C 3,2 km/h (1 Bft) 92,00 %
22.10.2018 14:50 13,3 C 11,7 C 12,8 C 59 % 1025,4 hPa 0,0 l/m 0,6 km/h (0 Bft) N-NO 28 2 min 0,000 mm 1,0 UV-I 357 W/m 5,5 C 13,3 C 1,6 km/h (1 Bft) 92,00 %
22.10.2018 14:52 13,4 C 11,7 C 12,2 C 58 % 1025,4 hPa 0,0 l/m 0,5 km/h (0 Bft) N-NO 28 2 min 0,000 mm 1,0 UV-I 354 W/m 5,3 C 13,4 C 1,6 km/h (1 Bft) 96,00 %
22.10.2018 14:54 13,4 C 11,7 C 12,2 C 59 % 1025,4 hPa 0,0 l/m 1,1 km/h (1 Bft) N-NO 27 2 min 0,000 mm 1,0 UV-I 351 W/m 5,6 C 13,4 C 3,2 km/h (1 Bft) 97,14 %
22.10.2018 14:56 13,3 C 11,7 C 12,2 C 58 % 1025,4 hPa 0,0 l/m 2,8 km/h (1 Bft) NW 315 2 min 0,000 mm 1,0 UV-I 348 W/m 5,2 C 13,3 C 4,8 km/h (1 Bft) 96,23 %
22.10.2018 14:58 13,3 C 11,7 C 12,2 C 58 % 1025,4 hPa 0,0 l/m 2,7 km/h (1 Bft) N-NO 21 2 min 0,000 mm 1,0 UV-I 345 W/m 5,2 C 13,3 C 4,8 km/h (1 Bft) 95,74 %
22.10.2018 15:00 13,5 C 11,7 C 12,8 C 60 % 1025,5 hPa 0,0 l/m 5,9 km/h (2 Bft) NO 36 2 min 0,203 mm 0,9 UV-I 341 W/m 5,9 C 13,5 C 8,0 km/h (2 Bft) 98,00 %
22.10.2018 15:02 13,7 C 11,7 C 12,8 C 59 % 1025,5 hPa 0,0 l/m 5,2 km/h (1 Bft) NO 38 2 min 0,000 mm 0,9 UV-I 338 W/m 5,8 C 13,7 C 6,4 km/h (2 Bft) 97,87 %
22.10.2018 15:04 13,7 C 11,7 C 12,8 C 60 % 1025,5 hPa 0,0 l/m 6,4 km/h (2 Bft) NO 44 2 min 0,000 mm 0,9 UV-I 335 W/m 6,1 C 13,7 C 8,0 km/h (2 Bft) 95,74 %
22.10.2018 15:06 13,8 C 11,7 C 12,8 C 59 % 1025,5 hPa 0,0 l/m 5,3 km/h (1 Bft) N-NO 32 2 min 0,000 mm 0,9 UV-I 330 W/m 5,9 C 13,8 C 6,4 km/h (2 Bft) 97,56 %
22.10.2018 15:08 13,8 C 11,7 C 12,8 C 59 % 1025,5 hPa 0,0 l/m 4,6 km/h (1 Bft) O-NO 60 2 min 0,000 mm 0,8 UV-I 327 W/m 5,9 C 13,8 C 6,4 km/h (2 Bft) 98,00 %
22.10.2018 15:10 13,9 C 11,7 C 12,8 C 59 % 1025,5 hPa 0,0 l/m 2,7 km/h (1 Bft) O-NO 61 2 min 0,000 mm 0,8 UV-I 324 W/m 6,0 C 13,9 C 4,8 km/h (1 Bft) 96,00 %
22.10.2018 15:12 13,8 C 11,7 C 12,8 C 57 % 1025,5 hPa 0,0 l/m 1,3 km/h (1 Bft) O-NO 61 2 min 0,000 mm 0,8 UV-I 316 W/m 5,4 C 13,8 C 3,2 km/h (1 Bft) 97,44 %
22.10.2018 15:14 13,7 C 11,7 C 12,2 C 57 % 1025,4 hPa 0,0 l/m 1,2 km/h (1 Bft) O-NO 61 2 min 0,000 mm 0,8 UV-I 314 W/m 5,3 C 13,7 C 1,6 km/h (1 Bft) 97,73 %
22.10.2018 15:16 13,7 C 11,7 C 12,2 C 57 % 1025,5 hPa 0,0 l/m 1,1 km/h (1 Bft) O-NO 61 2 min 0,000 mm 0,8 UV-I 313 W/m 5,3 C 13,7 C 3,2 km/h (1 Bft) 96,00 %
22.10.2018 15:19 13,8 C 11,7 C 12,2 C 58 % 1025,4 hPa 0,0 l/m 3,5 km/h (1 Bft) N 5 3 min 0,000 mm 0,8 UV-I 309 W/m 5,7 C 13,8 C 4,8 km/h (1 Bft) 98,51 %
22.10.2018 15:20 13,8 C 11,7 C 12,2 C 58 % 1025,4 hPa 0,0 l/m 4,1 km/h (1 Bft) N-NO 23 1 min 0,000 mm 0,8 UV-I 306 W/m 5,7 C 13,8 C 4,8 km/h (1 Bft) 93,33 %
22.10.2018 15:22 13,9 C 11,7 C 12,2 C 58 % 1025,4 hPa 0,0 l/m 4,2 km/h (1 Bft) O-NO 65 2 min 0,000 mm 0,7 UV-I 303 W/m 5,8 C 13,9 C 6,4 km/h (2 Bft) 94,74 %
22.10.2018 15:24 13,8 C 11,7 C 12,2 C 57 % 1025,4 hPa 0,0 l/m 3,5 km/h (1 Bft) O-NO 62 2 min 0,000 mm 0,7 UV-I 301 W/m 5,4 C 13,8 C 6,4 km/h (2 Bft) 96,23 %
22.10.2018 15:26 13,8 C 11,7 C 12,2 C 58 % 1025,4 hPa 0,0 l/m 3,3 km/h (1 Bft) N-NO 32 2 min 0,000 mm 0,7 UV-I 296 W/m 5,7 C 13,8 C 4,8 km/h (1 Bft) 98,00 %
22.10.2018 15:28 13,9 C 11,7 C 12,2 C 58 % 1025,5 hPa 0,0 l/m 4,6 km/h (1 Bft) N-NW 343 2 min 0,000 mm 0,7 UV-I 293 W/m 5,8 C 13,9 C 6,4 km/h (2 Bft) 96,00 %
22.10.2018 15:30 13,9 C 11,7 C 12,2 C 58 % 1025,5 hPa 0,0 l/m 3,9 km/h (1 Bft) N 9 2 min 0,000 mm 0,7 UV-I 288 W/m 5,8 C 13,9 C 6,4 km/h (2 Bft) 97,14 %
22.10.2018 15:32 13,9 C 11,7 C 12,2 C 57 % 1025,5 hPa 0,0 l/m 3,3 km/h (1 Bft) N-NO 12 2 min 0,000 mm 0,7 UV-I 284 W/m 5,5 C 13,9 C 6,4 km/h (2 Bft) 96,43 %
22.10.2018 15:34 13,8 C 11,7 C 12,2 C 57 % 1025,5 hPa 0,0 l/m 1,9 km/h (1 Bft) N 11 2 min 0,000 mm 0,7 UV-I 281 W/m 5,4 C 13,8 C 3,2 km/h (1 Bft) 98,00 %
22.10.2018 15:36 13,7 C 11,7 C 12,2 C 57 % 1025,5 hPa 0,0 l/m 4,7 km/h (1 Bft) W-NW 301 2 min 0,000 mm 0,6 UV-I 276 W/m 5,3 C 13,7 C 9,7 km/h (2 Bft) 97,56 %
22.10.2018 15:38 13,6 C 11,7 C 12,2 C 57 % 1025,5 hPa 0,0 l/m 2,9 km/h (1 Bft) NW 319 2 min 0,000 mm 0,6 UV-I 272 W/m 5,2 C 13,6 C 4,8 km/h (1 Bft) 98,11 %
22.10.2018 15:40 13,5 C 11,7 C 12,2 C 58 % 1025,5 hPa 0,0 l/m 2,4 km/h (1 Bft) N 5 2 min 0,000 mm 0,6 UV-I 267 W/m 5,4 C 13,5 C 4,8 km/h (1 Bft) 97,56 %
22.10.2018 15:42 13,6 C 11,7 C 11,7 C 58 % 1025,5 hPa 0,0 l/m 1,5 km/h (1 Bft) N 5 2 min 0,000 mm 0,6 UV-I 264 W/m 5,5 C 13,6 C 3,2 km/h (1 Bft) 98,00 %
22.10.2018 15:44 13,7 C 11,7 C 11,7 C 58 % 1025,5 hPa 0,0 l/m 2,7 km/h (1 Bft) N 5 2 min 0,000 mm 0,6 UV-I 259 W/m 5,6 C 13,7 C 3,2 km/h (1 Bft) 97,87 %
22.10.2018 15:46 13,7 C 11,7 C 11,7 C 58 % 1025,5 hPa 0,0 l/m 1,0 km/h (0 Bft) N 5 2 min 0,000 mm 0,6 UV-I 256 W/m 5,6 C 13,7 C 3,2 km/h (1 Bft) 98,00 %
22.10.2018 15:48 13,7 C 11,7 C 11,7 C 58 % 1025,5 hPa 0,0 l/m 1,8 km/h (1 Bft) N 5 2 min 0,000 mm 0,5 UV-I 253 W/m 5,6 C 13,7 C 3,2 km/h (1 Bft) 94,87 %
22.10.2018 15:50 13,5 C 11,7 C 11,7 C 57 % 1025,5 hPa 0,0 l/m 1,7 km/h (1 Bft) N 5 2 min 0,000 mm 0,5 UV-I 249 W/m 5,2 C 13,5 C 3,2 km/h (1 Bft) 98,00 %
22.10.2018 15:52 13,3 C 11,7 C 11,1 C 58 % 1025,5 hPa 0,0 l/m 1,3 km/h (1 Bft) N 5 2 min 0,000 mm 0,5 UV-I 245 W/m 5,2 C 13,3 C 3,2 km/h (1 Bft) 95,74 %
22.10.2018 15:54 13,3 C 11,7 C 11,7 C 59 % 1025,5 hPa 0,0 l/m 3,0 km/h (1 Bft) W-NW 297 2 min 0,000 mm 0,5 UV-I 241 W/m 5,5 C 13,3 C 4,8 km/h (1 Bft) 92,00 %
22.10.2018 15:56 13,3 C 11,7 C 11,7 C 60 % 1025,5 hPa 0,0 l/m 4,2 km/h (1 Bft) NO 42 2 min 0,000 mm 0,5 UV-I 236 W/m 5,7 C 13,3 C 6,4 km/h (2 Bft) 93,62 %
22.10.2018 15:58 13,3 C 11,7 C 11,7 C 60 % 1025,5 hPa 0,0 l/m 4,1 km/h (1 Bft) N-NO 23 2 min 0,000 mm 0,5 UV-I 232 W/m 5,7 C 13,3 C 6,4 km/h (2 Bft) 91,49 %
22.10.2018 16:00 13,4 C 11,7 C 11,7 C 60 % 1025,5 hPa 0,0 l/m 3,1 km/h (1 Bft) N-NO 27 2 min 0,152 mm 0,5 UV-I 228 W/m 5,8 C 13,4 C 6,4 km/h (2 Bft) 92,11 %
22.10.2018 16:02 13,4 C 11,7 C 11,7 C 59 % 1025,5 hPa 0,0 l/m 3,8 km/h (1 Bft) N 9 2 min 0,000 mm 0,5 UV-I 224 W/m 5,6 C 13,4 C 6,4 km/h (2 Bft) 93,62 %
22.10.2018 16:04 13,4 C 11,7 C 11,7 C 59 % 1025,5 hPa 0,0 l/m 1,5 km/h (1 Bft) NW 304 2 min 0,000 mm 0,0 UV-I 220 W/m 5,6 C 13,4 C 4,8 km/h (1 Bft) 91,49 %
22.10.2018 16:06 13,4 C 11,7 C 11,7 C 59 % 1025,5 hPa 0,0 l/m 2,7 km/h (1 Bft) NW 311 2 min 0,000 mm 0,0 UV-I 216 W/m 5,6 C 13,4 C 4,8 km/h (1 Bft) 94,34 %
22.10.2018 16:08 13,4 C 11,7 C 11,1 C 60 % 1025,5 hPa 0,0 l/m 2,2 km/h (1 Bft) NW 320 2 min 0,000 mm 0,0 UV-I 212 W/m 5,8 C 13,4 C 4,8 km/h (1 Bft) 94,00 %
22.10.2018 16:10 13,4 C 11,7 C 11,1 C 59 % 1025,5 hPa 0,0 l/m 3,6 km/h (1 Bft) W-NW 292 2 min 0,000 mm 0,0 UV-I 207 W/m 5,6 C 13,4 C 6,4 km/h (2 Bft) 92,11 %
22.10.2018 16:12 13,4 C 11,7 C 11,7 C 58 % 1025,5 hPa 0,0 l/m 3,1 km/h (1 Bft) W-NW 282 2 min 0,000 mm 0,0 UV-I 204 W/m 5,3 C 13,4 C 6,4 km/h (2 Bft) 95,74 %
22.10.2018 16:14 13,4 C 11,7 C 11,7 C 58 % 1025,5 hPa 0,0 l/m 2,6 km/h (1 Bft) N-NW 332 2 min 0,000 mm 0,0 UV-I 199 W/m 5,3 C 13,4 C 3,2 km/h (1 Bft) 92,00 %
22.10.2018 16:16 13,4 C 11,7 C 11,7 C 59 % 1025,4 hPa 0,0 l/m 3,8 km/h (1 Bft) NW 306 2 min 0,000 mm 0,0 UV-I 194 W/m 5,6 C 13,4 C 4,8 km/h (1 Bft) 95,74 %
22.10.2018 16:18 13,4 C 11,7 C 11,7 C 59 % 1025,4 hPa 0,0 l/m 3,1 km/h (1 Bft) NW 306 2 min 0,000 mm 0,0 UV-I 192 W/m 5,6 C 13,4 C 4,8 km/h (1 Bft) 94,87 %
22.10.2018 16:20 13,4 C 11,7 C 11,1 C 58 % 1025,5 hPa 0,0 l/m 1,5 km/h (1 Bft) NW 306 2 min 0,000 mm 0,0 UV-I 187 W/m 5,3 C 13,4 C 3,2 km/h (1 Bft) 98,28 %
22.10.2018 16:22 13,4 C 11,7 C 11,1 C 58 % 1025,4 hPa 0,0 l/m 1,8 km/h (1 Bft) NW 306 2 min 0,000 mm 0,0 UV-I 180 W/m 5,3 C 13,4 C 4,8 km/h (1 Bft) 97,87 %
22.10.2018 16:24 13,4 C 11,7 C 11,1 C 58 % 1025,4 hPa 0,0 l/m 3,1 km/h (1 Bft) NW 306 2 min 0,000 mm 0,0 UV-I 177 W/m 5,3 C 13,4 C 4,8 km/h (1 Bft) 97,44 %
22.10.2018 16:26 13,4 C 11,7 C 11,1 C 58 % 1025,4 hPa 0,0 l/m 3,5 km/h (1 Bft) NW 308 2 min 0,000 mm 0,0 UV-I 173 W/m 5,3 C 13,4 C 4,8 km/h (1 Bft) 100,00 %
22.10.2018 16:28 13,3 C 11,7 C 11,1 C 58 % 1025,5 hPa 0,0 l/m 2,3 km/h (1 Bft) NW 309 2 min 0,000 mm 0,0 UV-I 169 W/m 5,2 C 13,3 C 3,2 km/h (1 Bft) 100,00 %
22.10.2018 16:30 13,3 C 11,7 C 10,6 C 58 % 1025,5 hPa 0,0 l/m 3,2 km/h (1 Bft) NW 319 2 min 0,000 mm 0,0 UV-I 164 W/m 5,2 C 13,3 C 4,8 km/h (1 Bft) 100,00 %
22.10.2018 16:32 13,3 C 11,7 C 10,6 C 58 % 1025,5 hPa 0,0 l/m 2,4 km/h (1 Bft) W-NW 303 2 min 0,000 mm 0,0 UV-I 161 W/m 5,2 C 13,3 C 4,8 km/h (1 Bft) 94,74 %
22.10.2018 16:34 13,3 C 11,7 C 10,6 C 57 % 1025,6 hPa 0,0 l/m 1,8 km/h (1 Bft) W-NW 303 2 min 0,000 mm 0,0 UV-I 156 W/m 5,0 C 13,3 C 3,2 km/h (1 Bft) 98,11 %
22.10.2018 16:36 13,2 C 11,7 C 10,6 C 58 % 1025,6 hPa 0,0 l/m 1,5 km/h (1 Bft) W-NW 303 2 min 0,000 mm 0,0 UV-I 152 W/m 5,1 C 13,2 C 3,2 km/h (1 Bft) 100,00 %
22.10.2018 16:38 13,2 C 11,7 C 10,6 C 59 % 1025,6 hPa 0,0 l/m 1,8 km/h (1 Bft) NW 304 2 min 0,000 mm 0,0 UV-I 147 W/m 5,4 C 13,2 C 3,2 km/h (1 Bft) 100,00 %
22.10.2018 16:40 13,2 C 11,7 C 10,6 C 58 % 1025,6 hPa 0,0 l/m 3,3 km/h (1 Bft) W-SW 254 2 min 0,000 mm 0,0 UV-I 142 W/m 5,1 C 13,2 C 6,4 km/h (2 Bft) 100,00 %
22.10.2018 16:42 13,3 C 11,7 C 10,6 C 58 % 1025,6 hPa 0,0 l/m 4,7 km/h (1 Bft) W-SW 250 2 min 0,000 mm 0,0 UV-I 139 W/m 5,2 C 13,3 C 9,7 km/h (2 Bft) 100,00 %
22.10.2018 16:44 13,3 C 11,7 C 11,1 C 58 % 1025,6 hPa 0,0 l/m 4,4 km/h (1 Bft) W 268 2 min 0,000 mm 0,0 UV-I 136 W/m 5,2 C 13,3 C 6,4 km/h (2 Bft) 98,00 %
22.10.2018 16:46 13,3 C 11,7 C 11,1 C 58 % 1025,6 hPa 0,0 l/m 3,7 km/h (1 Bft) SW 214 2 min 0,000 mm 0,0 UV-I 132 W/m 5,2 C 13,3 C 6,4 km/h (2 Bft) 100,00 %
22.10.2018 16:48 13,3 C 11,7 C 11,1 C 58 % 1025,6 hPa 0,0 l/m 4,4 km/h (1 Bft) SW 235 2 min 0,000 mm 0,0 UV-I 128 W/m 5,2 C 13,3 C 6,4 km/h (2 Bft) 100,00 %
22.10.2018 16:50 13,4 C 11,7 C 11,1 C 58 % 1025,6 hPa 0,0 l/m 1,8 km/h (1 Bft) SW 236 2 min 0,000 mm 0,0 UV-I 123 W/m 5,3 C 13,4 C 3,2 km/h (1 Bft) 96,23 %
22.10.2018 16:52 13,4 C 11,7 C 10,6 C 59 % 1025,7 hPa 0,0 l/m 2,3 km/h (1 Bft) NW 310 2 min 0,000 mm 0,0 UV-I 120 W/m 5,6 C 13,4 C 4,8 km/h (1 Bft) 100,00 %
22.10.2018 16:54 13,3 C 11,7 C 10,6 C 60 % 1025,7 hPa 0,0 l/m 4,0 km/h (1 Bft) W-SW 253 2 min 0,000 mm 0,0 UV-I 115 W/m 5,7 C 13,3 C 8,0 km/h (2 Bft) 100,00 %
22.10.2018 16:56 13,3 C 11,7 C 11,1 C 59 % 1025,7 hPa 0,0 l/m 5,0 km/h (1 Bft) W-SW 246 2 min 0,000 mm 0,0 UV-I 111 W/m 5,5 C 13,3 C 9,7 km/h (2 Bft) 100,00 %
22.10.2018 16:58 13,4 C 11,7 C 11,1 C 59 % 1025,7 hPa 0,0 l/m 3,9 km/h (1 Bft) W 274 2 min 0,000 mm 0,0 UV-I 108 W/m 5,6 C 13,4 C 6,4 km/h (2 Bft) 100,00 %
22.10.2018 17:00 13,3 C 11,7 C 11,1 C 59 % 1025,6 hPa 0,0 l/m 5,6 km/h (1 Bft) W-SW 256 2 min 0,000 mm 0,0 UV-I 105 W/m 5,5 C 13,3 C 11,3 km/h (2 Bft) 100,00 %
22.10.2018 17:02 13,3 C 11,7 C 11,1 C 59 % 1025,7 hPa 0,0 l/m 7,7 km/h (2 Bft) W 266 2 min 0,102 mm 0,0 UV-I 100 W/m 5,5 C 12,5 C 11,3 km/h (2 Bft) 100,00 %
22.10.2018 17:04 13,3 C 11,7 C 11,1 C 59 % 1025,6 hPa 0,0 l/m 7,0 km/h (2 Bft) W 265 2 min 0,000 mm 0,0 UV-I 97 W/m 5,5 C 12,9 C 11,3 km/h (2 Bft) 100,00 %
22.10.2018 17:06 13,3 C 11,7 C 11,1 C 59 % 1025,6 hPa 0,0 l/m 8,5 km/h (2 Bft) W-SW 257 2 min 0,000 mm 0,0 UV-I 92 W/m 5,5 C 12,0 C 12,9 km/h (3 Bft) 100,00 %
22.10.2018 17:08 13,2 C 11,7 C 11,1 C 59 % 1025,7 hPa 0,0 l/m 6,5 km/h (2 Bft) W 263 2 min 0,000 mm 0,0 UV-I 90 W/m 5,4 C 13,2 C 11,3 km/h (2 Bft) 100,00 %
22.10.2018 17:10 13,2 C 11,7 C 11,1 C 59 % 1025,6 hPa 0,0 l/m 8,8 km/h (2 Bft) W-SW 244 2 min 0,000 mm 0,0 UV-I 86 W/m 5,4 C 11,8 C 11,3 km/h (2 Bft) 96,00 %
22.10.2018 17:12 13,2 C 11,7 C 11,1 C 59 % 1025,7 hPa 0,0 l/m 9,5 km/h (2 Bft) W 269 2 min 0,000 mm 0,0 UV-I 82 W/m 5,4 C 11,4 C 12,9 km/h (3 Bft) 97,87 %
22.10.2018 17:14 13,1 C 11,7 C 10,6 C 60 % 1025,7 hPa 0,0 l/m 4,9 km/h (1 Bft) W 264 2 min 0,000 mm 0,0 UV-I 78 W/m 5,5 C 13,1 C 6,4 km/h (2 Bft) 97,14 %
22.10.2018 17:16 13,1 C 11,7 C 11,1 C 60 % 1025,7 hPa 0,0 l/m 6,8 km/h (2 Bft) W-SW 237 2 min 0,000 mm 0,0 UV-I 75 W/m 5,5 C 12,9 C 11,3 km/h (2 Bft) 98,11 %
22.10.2018 17:18 13,1 C 11,7 C 11,1 C 60 % 1025,7 hPa 0,0 l/m 7,8 km/h (2 Bft) W-SW 251 2 min 0,000 mm 0,0 UV-I 71 W/m 5,5 C 12,2 C 11,3 km/h (2 Bft) 98,00 %
22.10.2018 17:20 13,0 C 11,7 C 11,1 C 60 % 1025,7 hPa 0,0 l/m 6,0 km/h (2 Bft) W 267 2 min 0,000 mm 0,0 UV-I 69 W/m 5,4 C 13,0 C 11,3 km/h (2 Bft) 93,62 %
22.10.2018 17:22 12,9 C 11,7 C 10,6 C 61 % 1025,7 hPa 0,0 l/m 6,1 km/h (2 Bft) W-SW 254 2 min 0,000 mm 0,0 UV-I 65 W/m 5,6 C 12,9 C 9,7 km/h (2 Bft) 98,00 %
22.10.2018 17:24 12,9 C 11,7 C 10,6 C 61 % 1025,7 hPa 0,0 l/m 7,8 km/h (2 Bft) W 268 2 min 0,000 mm 0,0 UV-I 62 W/m 5,6 C 12,0 C 11,3 km/h (2 Bft) 97,87 %
22.10.2018 17:26 12,8 C 11,7 C 10,6 C 61 % 1025,6 hPa 0,0 l/m 7,2 km/h (2 Bft) W 264 2 min 0,000 mm 0,0 UV-I 59 W/m 5,5 C 12,3 C 11,3 km/h (2 Bft) 92,11 %
22.10.2018 17:28 12,8 C 11,7 C 10,6 C 61 % 1025,7 hPa 0,0 l/m 6,1 km/h (2 Bft) W 266 2 min 0,000 mm 0,0 UV-I 56 W/m 5,5 C 12,8 C 11,3 km/h (2 Bft) 98,00 %
22.10.2018 17:30 12,7 C 11,7 C 10,0 C 61 % 1025,7 hPa 0,0 l/m 7,0 km/h (2 Bft) W 263 2 min 0,000 mm 0,0 UV-I 53 W/m 5,4 C 12,3 C 12,9 km/h (3 Bft) 96,23 %
22.10.2018 17:32 12,7 C 11,7 C 10,0 C 62 % 1025,8 hPa 0,0 l/m 6,8 km/h (2 Bft) W-SW 257 2 min 0,000 mm 0,0 UV-I 49 W/m 5,6 C 12,5 C 11,3 km/h (2 Bft) 94,74 %
22.10.2018 17:34 12,6 C 11,7 C 10,0 C 62 % 1025,9 hPa 0,0 l/m 6,7 km/h (2 Bft) W-SW 246 2 min 0,000 mm 0,0 UV-I 47 W/m 5,5 C 12,4 C 9,7 km/h (2 Bft) 100,00 %
22.10.2018 17:36 12,6 C 11,7 C 10,0 C 62 % 1025,9 hPa 0,0 l/m 5,1 km/h (1 Bft) W 261 2 min 0,000 mm 0,0 UV-I 43 W/m 5,5 C 12,6 C 6,4 km/h (2 Bft) 100,00 %
22.10.2018 17:38 12,5 C 11,7 C 10,0 C 63 % 1025,9 hPa 0,0 l/m 5,2 km/h (1 Bft) W 263 2 min 0,000 mm 0,0 UV-I 39 W/m 5,7 C 12,5 C 9,7 km/h (2 Bft) 100,00 %
22.10.2018 17:40 12,4 C 11,7 C 9,4 C 63 % 1025,9 hPa 0,0 l/m 4,6 km/h (1 Bft) W 275 2 min 0,000 mm 0,0 UV-I 37 W/m 5,6 C 12,4 C 6,4 km/h (2 Bft) 100,00 %
22.10.2018 17:42 12,3 C 11,7 C 9,4 C 64 % 1026,0 hPa 0,0 l/m 5,2 km/h (1 Bft) W 273 2 min 0,000 mm 0,0 UV-I 32 W/m 5,7 C 12,3 C 9,7 km/h (2 Bft) 100,00 %
22.10.2018 17:44 12,2 C 11,7 C 9,4 C 64 % 1026,0 hPa 0,0 l/m 4,9 km/h (1 Bft) W 275 2 min 0,000 mm 0,0 UV-I 30 W/m 5,6 C 12,2 C 9,7 km/h (2 Bft) 100,00 %
22.10.2018 17:46 12,1 C 11,7 C 8,9 C 64 % 1026,0 hPa 0,0 l/m 4,7 km/h (1 Bft) W 272 2 min 0,000 mm 0,0 UV-I 26 W/m 5,5 C 12,1 C 6,4 km/h (2 Bft) 100,00 %
22.10.2018 17:48 12,1 C 11,7 C 8,9 C 64 % 1026,0 hPa 0,0 l/m 5,5 km/h (1 Bft) W 262 2 min 0,000 mm 0,0 UV-I 24 W/m 5,5 C 12,1 C 9,7 km/h (2 Bft) 98,11 %
22.10.2018 17:50 12,0 C 11,7 C 8,3 C 65 % 1026,0 hPa 0,0 l/m 5,2 km/h (1 Bft) W 263 2 min 0,000 mm 0,0 UV-I 20 W/m 5,6 C 12,0 C 6,4 km/h (2 Bft) 100,00 %
22.10.2018 17:52 11,9 C 11,7 C 8,3 C 65 % 1026,0 hPa 0,0 l/m 4,9 km/h (1 Bft) W 275 0 min 0,000 mm 0,0 UV-I 18 W/m 5,5 C 11,9 C 9,7 km/h (2 Bft) 97,87 %
22.10.2018 17:54 11,8 C 11,7 C 8,3 C 65 % 1026,0 hPa 0,0 l/m 5,0 km/h (1 Bft) W 270 0 min 0,000 mm 0,0 UV-I 15 W/m 5,4 C 11,8 C 6,4 km/h (2 Bft) 100,00 %
22.10.2018 17:56 11,8 C 11,7 C 8,3 C 65 % 1026,0 hPa 0,0 l/m 5,8 km/h (2 Bft) W-SW 256 0 min 0,000 mm 0,0 UV-I 13 W/m 5,4 C 11,8 C 9,7 km/h (2 Bft) 100,00 %
22.10.2018 17:58 11,8 C 11,7 C 8,9 C 65 % 1026,0 hPa 0,0 l/m 5,4 km/h (1 Bft) W-SW 254 0 min 0,000 mm 0,0 UV-I 11 W/m 5,4 C 11,8 C 8,0 km/h (2 Bft) 100,00 %
22.10.2018 18:00 11,8 C 11,7 C 8,9 C 65 % 1026,0 hPa 0,0 l/m 4,6 km/h (1 Bft) W-SW 258 0 min 0,051 mm 0,0 UV-I 11 W/m 5,4 C 11,8 C 6,4 km/h (2 Bft) 100,00 %
22.10.2018 18:02 11,7 C 11,7 C 8,3 C 65 % 1026,0 hPa 0,0 l/m 4,5 km/h (1 Bft) W 271 0 min 0,000 mm 0,0 UV-I 9 W/m 5,3 C 11,7 C 6,4 km/h (2 Bft) 100,00 %
22.10.2018 18:04 11,7 C 11,7 C 8,3 C 66 % 1026,1 hPa 0,0 l/m 5,2 km/h (1 Bft) W 261 0 min 0,000 mm 0,0 UV-I 9 W/m 5,6 C 11,7 C 6,4 km/h (2 Bft) 100,00 %
22.10.2018 18:06 11,6 C 11,7 C 7,8 C 66 % 1026,0 hPa 0,0 l/m 4,8 km/h (1 Bft) W 267 0 min 0,000 mm 0,0 UV-I 7 W/m 5,5 C 11,6 C 6,4 km/h (2 Bft) 100,00 %
22.10.2018 18:08 11,4 C 11,7 C 7,2 C 66 % 1026,1 hPa 0,0 l/m 4,3 km/h (1 Bft) W 267 0 min 0,000 mm 0,0 UV-I 7 W/m 5,3 C 11,4 C 6,4 km/h (2 Bft) 98,21 %
22.10.2018 18:10 11,4 C 11,7 C 7,2 C 67 % 1026,0 hPa 0,0 l/m 4,3 km/h (1 Bft) W 260 0 min 0,000 mm 0,0 UV-I 7 W/m 5,5 C 11,4 C 6,4 km/h (2 Bft) 100,00 %
22.10.2018 18:12 11,3 C 11,7 C 7,8 C 67 % 1026,1 hPa 0,0 l/m 5,5 km/h (1 Bft) W 261 0 min 0,000 mm 0,0 UV-I 5 W/m 5,4 C 11,3 C 9,7 km/h (2 Bft) 100,00 %
22.10.2018 18:14 11,2 C 11,7 C 7,8 C 68 % 1026,0 hPa 0,0 l/m 4,7 km/h (1 Bft) W-SW 244 0 min 0,000 mm 0,0 UV-I 5 W/m 5,5 C 11,2 C 8,0 km/h (2 Bft) 100,00 %
22.10.2018 18:16 11,1 C 11,7 C 7,8 C 68 % 1026,0 hPa 0,0 l/m 4,6 km/h (1 Bft) W 259 0 min 0,000 mm 0,0 UV-I 5 W/m 5,4 C 11,1 C 6,4 km/h (2 Bft) 97,73 %
22.10.2018 18:18 10,9 C 11,7 C 7,2 C 69 % 1026,1 hPa 0,0 l/m 4,9 km/h (1 Bft) W-SW 252 0 min 0,000 mm 0,0 UV-I 5 W/m 5,4 C 10,9 C 6,4 km/h (2 Bft) 100,00 %
22.10.2018 18:20 10,8 C 11,7 C 6,7 C 69 % 1026,1 hPa 0,0 l/m 6,1 km/h (2 Bft) W-SW 253 0 min 0,000 mm 0,0 UV-I 1 W/m 5,3 C 10,8 C 11,3 km/h (2 Bft) 97,06 %
22.10.2018 18:22 10,8 C 11,7 C 6,7 C 69 % 1026,1 hPa 0,0 l/m 6,4 km/h (2 Bft) W 261 0 min 0,000 mm 0,0 UV-I 0 W/m 5,3 C 10,8 C 9,7 km/h (2 Bft) 97,87 %
22.10.2018 18:24 10,8 C 11,7 C 6,7 C 69 % 1026,2 hPa 0,0 l/m 5,8 km/h (2 Bft) W 266 0 min 0,000 mm 0,0 UV-I 0 W/m 5,3 C 10,8 C 9,7 km/h (2 Bft) 98,11 %
22.10.2018 18:26 10,7 C 11,7 C 6,7 C 69 % 1026,3 hPa 0,0 l/m 5,0 km/h (1 Bft) W 267 0 min 0,000 mm 0,0 UV-I 0 W/m 5,2 C 10,7 C 6,4 km/h (2 Bft) 97,37 %
22.10.2018 18:28 10,6 C 11,7 C 6,1 C 70 % 1026,3 hPa 0,0 l/m 4,3 km/h (1 Bft) W 274 0 min 0,000 mm 0,0 UV-I 0 W/m 5,4 C 10,6 C 6,4 km/h (2 Bft) 97,87 %
22.10.2018 18:30 10,5 C 11,7 C 6,7 C 70 % 1026,3 hPa 0,0 l/m 3,3 km/h (1 Bft) W 270 0 min 0,000 mm 0,0 UV-I 0 W/m 5,3 C 10,5 C 4,8 km/h (1 Bft) 90,57 %
22.10.2018 18:32 10,4 C 11,7 C 6,7 C 70 % 1026,3 hPa 0,0 l/m 3,7 km/h (1 Bft) W-SW 251 0 min 0,000 mm 0,0 UV-I 0 W/m 5,2 C 10,4 C 4,8 km/h (1 Bft) 97,37 %
22.10.2018 18:34 10,4 C 11,7 C 6,1 C 70 % 1026,3 hPa 0,0 l/m 4,0 km/h (1 Bft) W 267 0 min 0,000 mm 0,0 UV-I 0 W/m 5,2 C 10,4 C 6,4 km/h (2 Bft) 96,23 %
22.10.2018 18:36 10,3 C 11,7 C 6,7 C 70 % 1026,3 hPa 0,0 l/m 5,6 km/h (1 Bft) W 279 0 min 0,000 mm 0,0 UV-I 0 W/m 5,1 C 10,3 C 9,7 km/h (2 Bft) 95,74 %
22.10.2018 18:38 10,3 C 11,7 C 6,7 C 70 % 1026,4 hPa 0,0 l/m 4,6 km/h (1 Bft) W-SW 250 0 min 0,000 mm 0,0 UV-I 0 W/m 5,1 C 10,3 C 6,4 km/h (2 Bft) 95,12 %
22.10.2018 18:40 10,2 C 11,7 C 6,7 C 71 % 1026,4 hPa 0,0 l/m 5,9 km/h (2 Bft) W 265 0 min 0,000 mm 0,0 UV-I 0 W/m 5,2 C 10,2 C 9,7 km/h (2 Bft) 96,23 %
22.10.2018 18:42 10,2 C 11,7 C 6,7 C 71 % 1026,5 hPa 0,0 l/m 4,9 km/h (1 Bft) W 273 0 min 0,000 mm 0,0 UV-I 0 W/m 5,2 C 10,2 C 6,4 km/h (2 Bft) 94,00 %
22.10.2018 18:44 10,2 C 11,7 C 6,7 C 71 % 1026,4 hPa 0,0 l/m 5,3 km/h (1 Bft) W 271 0 min 0,000 mm 0,0 UV-I 0 W/m 5,2 C 10,2 C 9,7 km/h (2 Bft) 94,74 %
22.10.2018 18:46 10,1 C 11,7 C 7,2 C 71 % 1026,4 hPa 0,0 l/m 5,2 km/h (1 Bft) W-SW 258 0 min 0,000 mm 0,0 UV-I 0 W/m 5,1 C 10,1 C 8,0 km/h (2 Bft) 94,64 %
22.10.2018 18:48 9,9 C 11,7 C 6,7 C 71 % 1026,4 hPa 0,0 l/m 5,9 km/h (2 Bft) W-SW 257 0 min 0,000 mm 0,0 UV-I 0 W/m 4,9 C 9,9 C 11,3 km/h (2 Bft) 97,37 %
22.10.2018 18:50 9,8 C 11,7 C 6,7 C 72 % 1026,5 hPa 0,0 l/m 5,3 km/h (1 Bft) W 275 0 min 0,000 mm 0,0 UV-I 0 W/m 5,0 C 9,8 C 9,7 km/h (2 Bft) 93,62 %
22.10.2018 18:52 9,8 C 11,7 C 6,1 C 72 % 1026,6 hPa 0,0 l/m 5,3 km/h (1 Bft) W 270 0 min 0,000 mm 0,0 UV-I 0 W/m 5,0 C 9,8 C 6,4 km/h (2 Bft) 95,74 %
22.10.2018 18:54 9,8 C 11,7 C 6,1 C 72 % 1026,7 hPa 0,0 l/m 4,1 km/h (1 Bft) W 278 0 min 0,000 mm 0,0 UV-I 0 W/m 5,0 C 9,8 C 6,4 km/h (2 Bft) 94,34 %
22.10.2018 18:56 9,8 C 11,7 C 6,1 C 72 % 1026,7 hPa 0,0 l/m 5,2 km/h (1 Bft) W 275 0 min 0,000 mm 0,0 UV-I 0 W/m 5,0 C 9,8 C 6,4 km/h (2 Bft) 97,44 %
22.10.2018 18:58 9,7 C 11,7 C 6,1 C 72 % 1026,8 hPa 0,0 l/m 5,3 km/h (1 Bft) W 275 0 min 0,000 mm 0,0 UV-I 0 W/m 4,9 C 9,7 C 9,7 km/h (2 Bft) 98,00 %
22.10.2018 19:00 9,6 C 11,7 C 6,1 C 73 % 1026,8 hPa 0,0 l/m 4,5 km/h (1 Bft) W 264 0 min 0,000 mm 0,0 UV-I 0 W/m 5,0 C 9,6 C 6,4 km/h (2 Bft) 98,00 %
22.10.2018 19:02 9,6 C 11,7 C 5,6 C 73 % 1026,7 hPa 0,0 l/m 5,2 km/h (1 Bft) W 279 0 min 0,025 mm 0,0 UV-I 0 W/m 5,0 C 9,6 C 6,4 km/h (2 Bft) 97,56 %
22.10.2018 19:04 9,7 C 11,7 C 6,1 C 73 % 1026,7 hPa 0,0 l/m 6,3 km/h (2 Bft) W 272 0 min 0,000 mm 0,0 UV-I 0 W/m 5,1 C 9,7 C 9,7 km/h (2 Bft) 93,62 %
22.10.2018 19:06 9,7 C 11,7 C 6,1 C 72 % 1026,7 hPa 0,0 l/m 6,3 km/h (2 Bft) W 265 0 min 0,000 mm 0,0 UV-I 0 W/m 4,9 C 9,7 C 9,7 km/h (2 Bft) 98,00 %
22.10.2018 19:08 9,8 C 11,7 C 6,1 C 72 % 1026,8 hPa 0,0 l/m 6,1 km/h (2 Bft) W 267 0 min 0,000 mm 0,0 UV-I 0 W/m 5,0 C 9,8 C 11,3 km/h (2 Bft) 96,00 %
22.10.2018 19:10 9,8 C 11,7 C 6,1 C 72 % 1026,8 hPa 0,0 l/m 5,9 km/h (2 Bft) W 271 0 min 0,000 mm 0,0 UV-I 0 W/m 5,0 C 9,8 C 9,7 km/h (2 Bft) 97,37 %
22.10.2018 19:12 9,8 C 11,7 C 6,1 C 72 % 1026,8 hPa 0,0 l/m 6,0 km/h (2 Bft) W 269 0 min 0,000 mm 0,0 UV-I 0 W/m 5,0 C 9,8 C 6,4 km/h (2 Bft) 98,00 %
22.10.2018 19:14 9,8 C 11,7 C 6,7 C 72 % 1026,9 hPa 0,0 l/m 7,2 km/h (2 Bft) W 261 0 min 0,000 mm 0,0 UV-I 0 W/m 5,0 C 9,2 C 11,3 km/h (2 Bft) 96,00 %
22.10.2018 19:16 9,8 C 11,7 C 6,7 C 72 % 1026,8 hPa 0,0 l/m 5,7 km/h (1 Bft) W-SW 255 0 min 0,000 mm 0,0 UV-I 0 W/m 5,0 C 9,8 C 9,7 km/h (2 Bft) 97,56 %
22.10.2018 19:18 9,7 C 11,7 C 6,7 C 72 % 1026,8 hPa 0,0 l/m 6,7 km/h (2 Bft) W-SW 255 0 min 0,000 mm 0,0 UV-I 0 W/m 4,9 C 9,5 C 9,7 km/h (2 Bft) 98,11 %
22.10.2018 19:20 9,7 C 11,7 C 6,7 C 72 % 1026,9 hPa 0,0 l/m 6,8 km/h (2 Bft) W 268 0 min 0,000 mm 0,0 UV-I 0 W/m 4,9 C 9,4 C 11,3 km/h (2 Bft) 97,87 %
22.10.2018 19:22 9,6 C 11,7 C 6,7 C 72 % 1026,9 hPa 0,0 l/m 6,1 km/h (2 Bft) W 269 0 min 0,000 mm 0,0 UV-I 0 W/m 4,8 C 9,6 C 9,7 km/h (2 Bft) 97,73 %
22.10.2018 19:24 9,6 C 11,7 C 6,7 C 73 % 1026,9 hPa 0,0 l/m 5,8 km/h (2 Bft) W 271 0 min 0,000 mm 0,0 UV-I 0 W/m 5,0 C 9,6 C 8,0 km/h (2 Bft) 97,73 %
22.10.2018 19:26 9,5 C 11,7 C 6,7 C 73 % 1026,9 hPa 0,0 l/m 5,4 km/h (1 Bft) W-SW 247 0 min 0,000 mm 0,0 UV-I 0 W/m 4,9 C 9,5 C 6,4 km/h (2 Bft) 98,21 %
22.10.2018 19:28 9,5 C 11,7 C 7,2 C 73 % 1026,9 hPa 0,0 l/m 5,7 km/h (1 Bft) W-SW 246 0 min 0,000 mm 0,0 UV-I 0 W/m 4,9 C 9,5 C 11,3 km/h (2 Bft) 97,37 %
22.10.2018 19:30 9,4 C 11,7 C 7,2 C 73 % 1026,9 hPa 0,0 l/m 5,8 km/h (2 Bft) W 271 0 min 0,000 mm 0,0 UV-I 0 W/m 4,8 C 9,4 C 9,7 km/h (2 Bft) 96,00 %
22.10.2018 19:32 9,3 C 11,7 C 6,7 C 74 % 1026,9 hPa 0,0 l/m 6,2 km/h (2 Bft) W 267 0 min 0,000 mm 0,0 UV-I 0 W/m 4,9 C 9,3 C 9,7 km/h (2 Bft) 100,00 %
22.10.2018 19:34 9,3 C 11,7 C 6,7 C 74 % 1027,0 hPa 0,0 l/m 5,7 km/h (1 Bft) W 270 0 min 0,000 mm 0,0 UV-I 0 W/m 4,9 C 9,3 C 9,7 km/h (2 Bft) 96,00 %
22.10.2018 19:36 9,3 C 11,7 C 6,7 C 74 % 1027,0 hPa 0,0 l/m 5,1 km/h (1 Bft) W 275 0 min 0,000 mm 0,0 UV-I 0 W/m 4,9 C 9,3 C 6,4 km/h (2 Bft) 95,74 %
22.10.2018 19:38 9,2 C 11,7 C 6,1 C 74 % 1027,0 hPa 0,0 l/m 5,7 km/h (1 Bft) W 268 0 min 0,000 mm 0,0 UV-I 0 W/m 4,8 C 9,2 C 6,4 km/h (2 Bft) 96,00 %
22.10.2018 19:40 9,2 C 11,7 C 6,1 C 74 % 1027,1 hPa 0,0 l/m 5,6 km/h (1 Bft) W 269 0 min 0,000 mm 0,0 UV-I 0 W/m 4,8 C 9,2 C 6,4 km/h (2 Bft) 98,00 %
22.10.2018 19:42 9,2 C 11,7 C 6,1 C 75 % 1027,1 hPa 0,0 l/m 5,1 km/h (1 Bft) W 263 0 min 0,000 mm 0,0 UV-I 0 W/m 5,0 C 9,2 C 6,4 km/h (2 Bft) 97,37 %
22.10.2018 19:44 9,2 C 11,7 C 5,6 C 75 % 1027,1 hPa 0,0 l/m 5,8 km/h (2 Bft) W 272 0 min 0,000 mm 0,0 UV-I 0 W/m 5,0 C 9,2 C 9,7 km/h (2 Bft) 98,00 %
22.10.2018 19:46 9,2 C 11,7 C 5,6 C 75 % 1027,1 hPa 0,0 l/m 5,7 km/h (1 Bft) W 263 0 min 0,000 mm 0,0 UV-I 0 W/m 5,0 C 9,2 C 9,7 km/h (2 Bft) 98,11 %
22.10.2018 19:48 9,1 C 11,7 C 5,0 C 75 % 1027,2 hPa 0,0 l/m 5,3 km/h (1 Bft) W-NW 287 0 min 0,000 mm 0,0 UV-I 0 W/m 4,9 C 9,1 C 6,4 km/h (2 Bft) 97,37 %
22.10.2018 19:50 9,1 C 11,7 C 5,0 C 75 % 1027,2 hPa 0,0 l/m 5,4 km/h (1 Bft) W 269 0 min 0,000 mm 0,0 UV-I 0 W/m 4,9 C 9,1 C 6,4 km/h (2 Bft) 95,74 %
22.10.2018 19:52 9,1 C 11,7 C 5,0 C 75 % 1027,2 hPa 0,0 l/m 5,7 km/h (1 Bft) W 275 0 min 0,000 mm 0,0 UV-I 0 W/m 4,9 C 9,1 C 9,7 km/h (2 Bft) 93,62 %
22.10.2018 19:54 9,2 C 11,7 C 5,6 C 75 % 1027,2 hPa 0,0 l/m 6,4 km/h (2 Bft) W-SW 257 0 min 0,000 mm 0,0 UV-I 0 W/m 5,0 C 9,2 C 9,7 km/h (2 Bft) 98,25 %
22.10.2018 19:56 9,2 C 11,7 C 6,1 C 75 % 1027,3 hPa 0,0 l/m 5,1 km/h (1 Bft) W 266 0 min 0,000 mm 0,0 UV-I 0 W/m 5,0 C 9,2 C 6,4 km/h (2 Bft) 95,12 %
22.10.2018 19:59 9,1 C 11,7 C 6,1 C 75 % 1027,3 hPa 0,0 l/m 5,6 km/h (1 Bft) W-SW 258 0 min 0,000 mm 0,0 UV-I 0 W/m 4,9 C 9,1 C 12,9 km/h (3 Bft) 97,18 %
22.10.2018 20:00 9,1 C 11,7 C 6,1 C 75 % 1027,3 hPa 0,0 l/m 7,6 km/h (2 Bft) W-SW 249 0 min 0,000 mm 0,0 UV-I 0 W/m 4,9 C 8,2 C 11,3 km/h (2 Bft) 96,15 %
22.10.2018 20:02 9,1 C 11,7 C 6,1 C 75 % 1027,2 hPa 0,0 l/m 6,0 km/h (2 Bft) SW 229 0 min 0,025 mm 0,0 UV-I 0 W/m 4,9 C 9,1 C 9,7 km/h (2 Bft) 98,00 %
22.10.2018 20:04 9,1 C 11,7 C 6,7 C 75 % 1027,2 hPa 0,0 l/m 6,1 km/h (2 Bft) W-SW 256 0 min 0,000 mm 0,0 UV-I 0 W/m 4,9 C 9,1 C 11,3 km/h (2 Bft) 94,74 %
22.10.2018 20:06 9,0 C 11,7 C 6,1 C 75 % 1027,2 hPa 0,0 l/m 6,4 km/h (2 Bft) W 264 0 min 0,000 mm 0,0 UV-I 0 W/m 4,8 C 9,0 C 11,3 km/h (2 Bft) 98,00 %
22.10.2018 20:08 9,0 C 11,7 C 6,7 C 75 % 1027,2 hPa 0,0 l/m 6,8 km/h (2 Bft) W-SW 251 0 min 0,000 mm 0,0 UV-I 0 W/m 4,8 C 8,7 C 9,7 km/h (2 Bft) 98,00 %
22.10.2018 20:10 9,0 C 11,7 C 6,7 C 75 % 1027,2 hPa 0,0 l/m 6,3 km/h (2 Bft) W-SW 252 0 min 0,000 mm 0,0 UV-I 0 W/m 4,8 C 9,0 C 11,3 km/h (2 Bft) 97,44 %
22.10.2018 20:12 8,9 C 11,7 C 6,7 C 75 % 1027,3 hPa 0,0 l/m 6,4 km/h (2 Bft) SW 235 0 min 0,000 mm 0,0 UV-I 0 W/m 4,7 C 8,9 C 9,7 km/h (2 Bft) 98,00 %
22.10.2018 20:14 8,9 C 11,7 C 6,7 C 76 % 1027,3 hPa 0,0 l/m 7,6 km/h (2 Bft) W-SW 237 0 min 0,000 mm 0,0 UV-I 0 W/m 4,9 C 8,0 C 11,3 km/h (2 Bft) 100,00 %
22.10.2018 20:16 8,9 C 11,7 C 6,7 C 76 % 1027,3 hPa 0,0 l/m 6,7 km/h (2 Bft) SW 215 0 min 0,000 mm 0,0 UV-I 0 W/m 4,9 C 8,7 C 11,3 km/h (2 Bft) 97,92 %
22.10.2018 20:18 8,9 C 11,7 C 6,7 C 76 % 1027,3 hPa 0,0 l/m 6,7 km/h (2 Bft) SW 221 0 min 0,000 mm 0,0 UV-I 0 W/m 4,9 C 8,7 C 9,7 km/h (2 Bft) 100,00 %
22.10.2018 20:20 8,8 C 11,7 C 6,7 C 76 % 1027,2 hPa 0,0 l/m 6,8 km/h (2 Bft) SW 221 0 min 0,000 mm 0,0 UV-I 0 W/m 4,8 C 8,5 C 9,7 km/h (2 Bft) 97,87 %
22.10.2018 20:22 8,8 C 11,7 C 6,1 C 76 % 1027,3 hPa 0,0 l/m 5,6 km/h (1 Bft) SW 232 0 min 0,000 mm 0,0 UV-I 0 W/m 4,8 C 8,8 C 8,0 km/h (2 Bft) 96,15 %
22.10.2018 20:24 8,7 C 11,7 C 6,1 C 77 % 1027,3 hPa 0,0 l/m 6,7 km/h (2 Bft) SW 232 0 min 0,000 mm 0,0 UV-I 0 W/m 4,9 C 8,5 C 9,7 km/h (2 Bft) 100,00 %
22.10.2018 20:26 8,6 C 11,7 C 6,7 C 77 % 1027,2 hPa 0,0 l/m 6,4 km/h (2 Bft) S-SW 196 0 min 0,000 mm 0,0 UV-I 0 W/m 4,8 C 8,6 C 8,0 km/h (2 Bft) 100,00 %
22.10.2018 20:28 8,4 C 11,7 C 6,7 C 77 % 1027,1 hPa 0,0 l/m 6,3 km/h (2 Bft) S 190 0 min 0,000 mm 0,0 UV-I 0 W/m 4,6 C 8,4 C 8,0 km/h (2 Bft) 100,00 %
22.10.2018 20:30 8,4 C 11,7 C 6,7 C 78 % 1027,1 hPa 0,0 l/m 7,2 km/h (2 Bft) S-SW 196 0 min 0,000 mm 0,0 UV-I 0 W/m 4,8 C 7,8 C 9,7 km/h (2 Bft) 100,00 %
22.10.2018 20:32 8,3 C 11,7 C 6,7 C 78 % 1027,1 hPa 0,0 l/m 7,3 km/h (2 Bft) S 179 0 min 0,000 mm 0,0 UV-I 0 W/m 4,7 C 7,6 C 9,7 km/h (2 Bft) 97,37 %
22.10.2018 20:34 8,3 C 11,7 C 6,7 C 78 % 1027,1 hPa 0,0 l/m 7,8 km/h (2 Bft) S-SW 200 0 min 0,000 mm 0,0 UV-I 0 W/m 4,7 C 7,2 C 12,9 km/h (3 Bft) 100,00 %
22.10.2018 20:36 8,3 C 11,7 C 7,2 C 78 % 1027,0 hPa 0,0 l/m 6,9 km/h (2 Bft) S-SW 213 0 min 0,000 mm 0,0 UV-I 0 W/m 4,7 C 7,9 C 9,7 km/h (2 Bft) 96,23 %
22.10.2018 20:38 8,4 C 11,7 C 7,2 C 78 % 1027,1 hPa 0,0 l/m 7,5 km/h (2 Bft) S-SW 200 0 min 0,000 mm 0,0 UV-I 0 W/m 4,8 C 7,5 C 11,3 km/h (2 Bft) 97,37 %
22.10.2018 20:40 8,5 C 11,7 C 7,2 C 78 % 1027,1 hPa 0,0 l/m 7,1 km/h (2 Bft) S-SW 198 0 min 0,000 mm 0,0 UV-I 0 W/m 4,9 C 8,0 C 11,3 km/h (2 Bft) 98,00 %
22.10.2018 20:42 8,6 C 11,7 C 7,8 C 78 % 1027,1 hPa 0,0 l/m 8,7 km/h (2 Bft) SW 221 0 min 0,000 mm 0,0 UV-I 0 W/m 5,0 C 6,9 C 12,9 km/h (3 Bft) 97,37 %
22.10.2018 20:44 8,6 C 11,7 C 7,8 C 78 % 1027,2 hPa 0,0 l/m 6,8 km/h (2 Bft) S-SW 212 0 min 0,000 mm 0,0 UV-I 0 W/m 5,0 C 8,3 C 9,7 km/h (2 Bft) 98,21 %
22.10.2018 20:46 8,6 C 11,7 C 7,8 C 78 % 1027,2 hPa 0,0 l/m 6,6 km/h (2 Bft) S-SW 197 0 min 0,000 mm 0,0 UV-I 0 W/m 5,0 C 8,5 C 9,7 km/h (2 Bft) 98,00 %
22.10.2018 20:48 8,6 C 11,7 C 7,8 C 78 % 1027,2 hPa 0,0 l/m 7,9 km/h (2 Bft) SW 216 0 min 0,000 mm 0,0 UV-I 0 W/m 5,0 C 7,5 C 11,3 km/h (2 Bft) 96,00 %
22.10.2018 20:50 8,6 C 11,7 C 7,8 C 78 % 1027,3 hPa 0,0 l/m 8,0 km/h (2 Bft) SW 219 0 min 0,000 mm 0,0 UV-I 0 W/m 5,0 C 7,4 C 11,3 km/h (2 Bft) 100,00 %
22.10.2018 20:52 8,6 C 11,7 C 7,8 C 78 % 1027,3 hPa 0,0 l/m 7,2 km/h (2 Bft) SW 219 0 min 0,000 mm 0,0 UV-I 0 W/m 5,0 C 8,0 C 9,7 km/h (2 Bft) 96,15 %
22.10.2018 20:54 8,6 C 11,7 C 7,8 C 78 % 1027,3 hPa 0,0 l/m 6,6 km/h (2 Bft) S-SW 213 0 min 0,000 mm 0,0 UV-I 0 W/m 5,0 C 8,5 C 9,7 km/h (2 Bft) 98,00 %
22.10.2018 20:56 8,6 C 11,7 C 7,8 C 78 % 1027,3 hPa 0,0 l/m 7,6 km/h (2 Bft) W-SW 244 0 min 0,000 mm 0,0 UV-I 0 W/m 5,0 C 7,7 C 11,3 km/h (2 Bft) 97,62 %
22.10.2018 20:58 8,6 C 11,7 C 7,8 C 78 % 1027,2 hPa 0,0 l/m 9,2 km/h (2 Bft) SW 217 0 min 0,000 mm 0,0 UV-I 0 W/m 5,0 C 6,6 C 12,9 km/h (3 Bft) 96,00 %
22.10.2018 21:00 8,6 C 11,7 C 8,3 C 78 % 1027,3 hPa 0,0 l/m 10,0 km/h (2 Bft) S-SW 211 0 min 0,000 mm 0,0 UV-I 0 W/m 5,0 C 6,0 C 12,9 km/h (3 Bft) 97,87 %
22.10.2018 21:02 8,6 C 11,7 C 8,3 C 78 % 1027,3 hPa 0,0 l/m 8,9 km/h (2 Bft) S-SW 213 0 min 0,026 mm 0,0 UV-I 0 W/m 5,0 C 6,8 C 11,3 km/h (2 Bft) 97,87 %
22.10.2018 21:04 8,7 C 11,7 C 8,3 C 78 % 1027,3 hPa 0,0 l/m 9,6 km/h (2 Bft) W-SW 247 0 min 0,000 mm 0,0 UV-I 0 W/m 5,1 C 6,4 C 16,1 km/h (3 Bft) 97,14 %
22.10.2018 21:06 8,7 C 11,7 C 8,3 C 78 % 1027,3 hPa 0,0 l/m 8,4 km/h (2 Bft) SW 225 0 min 0,000 mm 0,0 UV-I 0 W/m 5,1 C 7,2 C 14,5 km/h (3 Bft) 95,74 %
22.10.2018 21:08 8,7 C 11,7 C 8,3 C 78 % 1027,3 hPa 0,0 l/m 8,3 km/h (2 Bft) SW 232 0 min 0,000 mm 0,0 UV-I 0 W/m 5,1 C 7,3 C 12,9 km/h (3 Bft) 94,92 %
22.10.2018 21:10 8,7 C 11,7 C 8,3 C 78 % 1027,3 hPa 0,0 l/m 8,5 km/h (2 Bft) W-SW 245 0 min 0,000 mm 0,0 UV-I 0 W/m 5,1 C 7,1 C 12,9 km/h (3 Bft) 92,68 %
22.10.2018 21:12 8,7 C 11,7 C 8,3 C 78 % 1027,3 hPa 0,0 l/m 7,2 km/h (2 Bft) SW 232 0 min 0,000 mm 0,0 UV-I 0 W/m 5,1 C 8,1 C 12,9 km/h (3 Bft) 98,00 %
22.10.2018 21:14 8,7 C 11,7 C 8,3 C 78 % 1027,3 hPa 0,0 l/m 8,1 km/h (2 Bft) SW 214 0 min 0,000 mm 0,0 UV-I 0 W/m 5,1 C 7,4 C 11,3 km/h (2 Bft) 96,00 %
22.10.2018 21:16 8,7 C 11,7 C 8,3 C 78 % 1027,4 hPa 0,0 l/m 7,1 km/h (2 Bft) SW 236 0 min 0,000 mm 0,0 UV-I 0 W/m 5,1 C 8,2 C 11,3 km/h (2 Bft) 100,00 %
22.10.2018 21:18 8,7 C 11,7 C 8,3 C 79 % 1027,5 hPa 0,0 l/m 7,8 km/h (2 Bft) W-SW 246 0 min 0,000 mm 0,0 UV-I 0 W/m 5,3 C 7,6 C 12,9 km/h (3 Bft) 95,74 %
22.10.2018 21:20 8,7 C 11,7 C 8,3 C 79 % 1027,6 hPa 0,0 l/m 7,8 km/h (2 Bft) SW 234 0 min 0,000 mm 0,0 UV-I 0 W/m 5,3 C 7,6 C 11,3 km/h (2 Bft) 97,87 %
22.10.2018 21:22 8,7 C 11,7 C 8,3 C 79 % 1027,7 hPa 0,0 l/m 9,3 km/h (2 Bft) SW 232 0 min 0,000 mm 0,0 UV-I 0 W/m 5,3 C 6,6 C 12,9 km/h (3 Bft) 96,00 %
22.10.2018 21:24 8,7 C 11,7 C 8,3 C 79 % 1027,7 hPa 0,0 l/m 10,0 km/h (2 Bft) SW 220 0 min 0,000 mm 0,0 UV-I 0 W/m 5,3 C 6,2 C 14,5 km/h (3 Bft) 97,87 %
22.10.2018 21:26 8,8 C 11,7 C 8,3 C 79 % 1027,7 hPa 0,0 l/m 11,6 km/h (2 Bft) W-SW 249 0 min 0,000 mm 0,0 UV-I 0 W/m 5,4 C 5,3 C 16,1 km/h (3 Bft) 98,00 %
22.10.2018 21:28 8,8 C 11,7 C 8,3 C 79 % 1027,8 hPa 0,0 l/m 9,8 km/h (2 Bft) W-SW 248 0 min 0,000 mm 0,0 UV-I 0 W/m 5,4 C 6,4 C 16,1 km/h (3 Bft) 100,00 %
22.10.2018 21:30 8,9 C 11,7 C 8,3 C 79 % 1027,8 hPa 0,0 l/m 10,3 km/h (2 Bft) W-SW 240 0 min 0,000 mm 0,0 UV-I 0 W/m 5,5 C 6,2 C 12,9 km/h (3 Bft) 98,11 %
22.10.2018 21:32 8,9 C 11,7 C 8,3 C 79 % 1027,8 hPa 0,0 l/m 9,3 km/h (2 Bft) W 261 0 min 0,000 mm 0,0 UV-I 0 W/m 5,5 C 6,8 C 14,5 km/h (3 Bft) 100,00 %
22.10.2018 21:34 9,0 C 11,7 C 8,3 C 79 % 1027,8 hPa 0,0 l/m 9,6 km/h (2 Bft) SW 217 0 min 0,000 mm 0,0 UV-I 0 W/m 5,6 C 6,7 C 14,5 km/h (3 Bft) 100,00 %
22.10.2018 21:36 9,1 C 11,7 C 8,3 C 79 % 1027,8 hPa 0,0 l/m 9,6 km/h (2 Bft) W-SW 246 0 min 0,000 mm 0,0 UV-I 0 W/m 5,7 C 6,8 C 12,9 km/h (3 Bft) 100,00 %
22.10.2018 21:38 9,1 C 11,7 C 8,3 C 79 % 1027,9 hPa 0,0 l/m 8,9 km/h (2 Bft) SW 225 0 min 0,000 mm 0,0 UV-I 0 W/m 5,7 C 7,3 C 12,9 km/h (3 Bft) 98,11 %
22.10.2018 21:40 9,1 C 11,7 C 8,3 C 79 % 1027,9 hPa 0,0 l/m 9,6 km/h (2 Bft) W-SW 239 0 min 0,000 mm 0,0 UV-I 0 W/m 5,7 C 6,8 C 14,5 km/h (3 Bft) 100,00 %
22.10.2018 21:42 9,2 C 11,7 C 8,9 C 79 % 1027,9 hPa 0,0 l/m 9,8 km/h (2 Bft) SW 235 0 min 0,000 mm 0,0 UV-I 0 W/m 5,8 C 6,8 C 16,1 km/h (3 Bft) 100,00 %
22.10.2018 21:44 9,2 C 11,7 C 8,9 C 79 % 1027,9 hPa 0,0 l/m 9,7 km/h (2 Bft) SW 229 0 min 0,000 mm 0,0 UV-I 0 W/m 5,8 C 6,9 C 14,5 km/h (3 Bft) 100,00 %
22.10.2018 21:46 9,2 C 11,7 C 8,9 C 79 % 1027,9 hPa 0,0 l/m 10,5 km/h (2 Bft) SW 232 0 min 0,000 mm 0,0 UV-I 0 W/m 5,8 C 6,4 C 16,1 km/h (3 Bft) 100,00 %
22.10.2018 21:48 9,2 C 11,7 C 8,9 C 79 % 1027,9 hPa 0,0 l/m 9,1 km/h (2 Bft) W-SW 244 0 min 0,000 mm 0,0 UV-I 0 W/m 5,8 C 7,3 C 16,1 km/h (3 Bft) 100,00 %
22.10.2018 21:50 9,3 C 11,7 C 8,9 C 78 % 1027,9 hPa 0,0 l/m 9,5 km/h (2 Bft) W-SW 244 0 min 0,000 mm 0,0 UV-I 0 W/m 5,7 C 7,1 C 14,5 km/h (3 Bft) 100,00 %
22.10.2018 21:52 9,3 C 11,7 C 8,9 C 79 % 1028,0 hPa 0,0 l/m 8,0 km/h (2 Bft) W-SW 246 0 min 0,000 mm 0,0 UV-I 0 W/m 5,8 C 8,1 C 12,9 km/h (3 Bft) 100,00 %
22.10.2018 21:54 9,3 C 11,7 C 8,9 C 79 % 1028,0 hPa 0,0 l/m 8,8 km/h (2 Bft) SW 215 0 min 0,000 mm 0,0 UV-I 0 W/m 5,8 C 7,6 C 12,9 km/h (3 Bft) 100,00 %
22.10.2018 21:56 9,3 C 11,7 C 8,9 C 78 % 1028,0 hPa 0,0 l/m 9,4 km/h (2 Bft) W-SW 238 0 min 0,000 mm 0,0 UV-I 0 W/m 5,7 C 7,2 C 14,5 km/h (3 Bft) 100,00 %
22.10.2018 21:58 9,4 C 11,7 C 8,9 C 78 % 1028,0 hPa 0,0 l/m 8,6 km/h (2 Bft) W 262 0 min 0,000 mm 0,0 UV-I 0 W/m 5,8 C 7,8 C 11,3 km/h (2 Bft) 100,00 %
22.10.2018 22:00 9,4 C 11,7 C 8,9 C 78 % 1028,0 hPa 0,0 l/m 8,1 km/h (2 Bft) W 268 0 min 0,025 mm 0,0 UV-I 0 W/m 5,8 C 8,2 C 12,9 km/h (3 Bft) 100,00 %
22.10.2018 22:02 9,4 C 11,7 C 8,9 C 78 % 1028,0 hPa 0,0 l/m 11,0 km/h (2 Bft) SW 232 0 min 0,000 mm 0,0 UV-I 0 W/m 5,8 C 6,4 C 16,1 km/h (3 Bft) 100,00 %
22.10.2018 22:04 9,6 C 11,7 C 8,9 C 78 % 1028,0 hPa 0,0 l/m 11,2 km/h (2 Bft) SW 232 0 min 0,000 mm 0,0 UV-I 0 W/m 6,0 C 6,5 C 16,1 km/h (3 Bft) 100,00 %
22.10.2018 22:06 9,6 C 11,7 C 9,4 C 78 % 1028,0 hPa 0,0 l/m 12,4 km/h (3 Bft) W-SW 253 0 min 0,000 mm 0,0 UV-I 0 W/m 6,0 C 5,9 C 17,7 km/h (3 Bft) 100,00 %
22.10.2018 22:08 9,6 C 11,7 C 9,4 C 77 % 1028,0 hPa 0,0 l/m 11,2 km/h (2 Bft) W-SW 241 0 min 0,000 mm 0,0 UV-I 0 W/m 5,8 C 6,5 C 17,7 km/h (3 Bft) 100,00 %
22.10.2018 22:10 9,7 C 11,7 C 9,4 C 77 % 1028,1 hPa 0,0 l/m 11,2 km/h (2 Bft) W-SW 237 0 min 0,000 mm 0,0 UV-I 0 W/m 5,9 C 6,6 C 14,5 km/h (3 Bft) 97,87 %
22.10.2018 22:12 9,8 C 11,7 C 9,4 C 77 % 1028,1 hPa 0,0 l/m 8,9 km/h (2 Bft) W-SW 254 0 min 0,000 mm 0,0 UV-I 0 W/m 6,0 C 8,0 C 16,1 km/h (3 Bft) 100,00 %
22.10.2018 22:14 9,8 C 11,7 C 9,4 C 77 % 1028,1 hPa 0,0 l/m 9,8 km/h (2 Bft) SW 219 0 min 0,000 mm 0,0 UV-I 0 W/m 6,0 C 7,5 C 16,1 km/h (3 Bft) 100,00 %
22.10.2018 22:16 9,8 C 11,7 C 9,4 C 76 % 1028,0 hPa 0,0 l/m 12,6 km/h (3 Bft) W-SW 240 0 min 0,000 mm 0,0 UV-I 0 W/m 5,8 C 6,0 C 17,7 km/h (3 Bft) 100,00 %
22.10.2018 22:18 9,9 C 11,7 C 9,4 C 76 % 1028,0 hPa 0,0 l/m 11,4 km/h (2 Bft) SW 234 0 min 0,000 mm 0,0 UV-I 0 W/m 5,9 C 6,7 C 19,3 km/h (3 Bft) 100,00 %
22.10.2018 22:20 9,9 C 11,7 C 9,4 C 76 % 1028,0 hPa 0,0 l/m 11,2 km/h (2 Bft) SW 215 0 min 0,000 mm 0,0 UV-I 0 W/m 5,9 C 6,8 C 17,7 km/h (3 Bft) 100,00 %
22.10.2018 22:22 9,9 C 11,7 C 9,4 C 76 % 1028,0 hPa 0,0 l/m 11,0 km/h (2 Bft) SW 229 0 min 0,000 mm 0,0 UV-I 0 W/m 5,9 C 6,9 C 17,7 km/h (3 Bft) 100,00 %
22.10.2018 22:24 9,9 C 11,7 C 9,4 C 76 % 1028,0 hPa 0,0 l/m 9,4 km/h (2 Bft) SW 224 0 min 0,000 mm 0,0 UV-I 0 W/m 5,9 C 7,8 C 20,9 km/h (4 Bft) 98,11 %
22.10.2018 22:26 10,0 C 11,7 C 9,4 C 76 % 1028,0 hPa 0,0 l/m 11,5 km/h (2 Bft) SW 223 0 min 0,000 mm 0,0 UV-I 0 W/m 6,0 C 6,8 C 17,7 km/h (3 Bft) 97,56 %
22.10.2018 22:28 10,0 C 11,7 C 9,4 C 76 % 1027,9 hPa 0,0 l/m 11,4 km/h (2 Bft) SW 220 0 min 0,000 mm 0,0 UV-I 0 W/m 6,0 C 6,8 C 19,3 km/h (3 Bft) 98,21 %
22.10.2018 22:30 10,0 C 11,7 C 9,4 C 76 % 1027,9 hPa 0,0 l/m 10,4 km/h (2 Bft) S-SW 202 0 min 0,000 mm 0,0 UV-I 0 W/m 6,0 C 7,4 C 17,7 km/h (3 Bft) 97,87 %
22.10.2018 22:32 10,0 C 11,7 C 9,4 C 76 % 1028,0 hPa 0,0 l/m 12,7 km/h (3 Bft) SW 229 0 min 0,000 mm 0,0 UV-I 0 W/m 6,0 C 6,2 C 17,7 km/h (3 Bft) 91,67 %
22.10.2018 22:34 10,1 C 11,7 C 9,4 C 76 % 1028,0 hPa 0,0 l/m 14,5 km/h (3 Bft) SW 232 0 min 0,000 mm 0,0 UV-I 0 W/m 6,1 C 5,5 C 17,7 km/h (3 Bft) 97,47 %
22.10.2018 22:36 10,1 C 11,7 C 9,4 C 75 % 1028,0 hPa 0,0 l/m 13,8 km/h (3 Bft) S-SW 213 0 min 0,000 mm 0,0 UV-I 0 W/m 5,9 C 5,8 C 19,3 km/h (3 Bft) 94,00 %
22.10.2018 22:39 10,1 C 11,7 C 9,4 C 75 % 1028,0 hPa 0,0 l/m 12,6 km/h (3 Bft) W-SW 255 0 min 0,000 mm 0,0 UV-I 0 W/m 5,9 C 6,3 C 17,7 km/h (3 Bft) 95,77 %
22.10.2018 22:40 10,1 C 11,7 C 9,4 C 75 % 1028,0 hPa 0,0 l/m 14,1 km/h (3 Bft) SW 227 0 min 0,000 mm 0,0 UV-I 0 W/m 5,9 C 5,6 C 20,9 km/h (4 Bft) 93,33 %
22.10.2018 22:42 10,1 C 11,7 C 9,4 C 75 % 1028,1 hPa 0,0 l/m 13,1 km/h (3 Bft) SW 234 0 min 0,000 mm 0,0 UV-I 0 W/m 5,9 C 6,1 C 17,7 km/h (3 Bft) 95,45 %
22.10.2018 22:44 10,1 C 11,7 C 9,4 C 75 % 1028,1 hPa 0,0 l/m 12,9 km/h (3 Bft) W-SW 248 0 min 0,000 mm 0,0 UV-I 0 W/m 5,9 C 6,2 C 19,3 km/h (3 Bft) 92,00 %
22.10.2018 22:46 10,1 C 11,7 C 9,4 C 75 % 1028,1 hPa 0,0 l/m 11,3 km/h (2 Bft) SW 228 0 min 0,000 mm 0,0 UV-I 0 W/m 5,9 C 7,0 C 17,7 km/h (3 Bft) 94,34 %
22.10.2018 22:48 10,1 C 11,7 C 9,4 C 75 % 1028,1 hPa 0,0 l/m 12,4 km/h (3 Bft) SW 221 0 min 0,000 mm 0,0 UV-I 0 W/m 5,9 C 6,4 C 19,3 km/h (3 Bft) 92,68 %
22.10.2018 22:50 10,2 C 11,7 C 10,0 C 75 % 1028,2 hPa 0,0 l/m 12,9 km/h (3 Bft) SW 225 0 min 0,000 mm 0,0 UV-I 0 W/m 6,0 C 6,3 C 19,3 km/h (3 Bft) 96,00 %
22.10.2018 22:52 10,2 C 11,7 C 10,0 C 75 % 1028,2 hPa 0,0 l/m 13,2 km/h (3 Bft) SW 235 0 min 0,000 mm 0,0 UV-I 0 W/m 6,0 C 6,2 C 20,9 km/h (4 Bft) 92,68 %
22.10.2018 22:54 10,2 C 11,7 C 10,0 C 75 % 1028,2 hPa 0,0 l/m 13,1 km/h (3 Bft) SW 232 0 min 0,000 mm 0,0 UV-I 0 W/m 6,0 C 6,2 C 17,7 km/h (3 Bft) 94,34 %
22.10.2018 22:56 10,2 C 11,7 C 10,0 C 75 % 1028,2 hPa 0,0 l/m 14,3 km/h (3 Bft) S-SW 212 0 min 0,000 mm 0,0 UV-I 0 W/m 6,0 C 5,7 C 20,9 km/h (4 Bft) 95,12 %
22.10.2018 22:58 10,2 C 11,7 C 9,4 C 75 % 1028,2 hPa 0,0 l/m 13,1 km/h (3 Bft) SW 236 0 min 0,000 mm 0,0 UV-I 0 W/m 6,0 C 6,2 C 20,9 km/h (4 Bft) 95,45 %
22.10.2018 23:00 10,2 C 11,7 C 10,0 C 75 % 1028,2 hPa 0,0 l/m 13,5 km/h (3 Bft) S-SW 209 0 min 0,000 mm 0,0 UV-I 0 W/m 6,0 C 6,0 C 19,3 km/h (3 Bft) 94,00 %
22.10.2018 23:02 10,2 C 11,7 C 10,0 C 75 % 1028,1 hPa 0,0 l/m 13,2 km/h (3 Bft) W 272 0 min 0,026 mm 0,0 UV-I 0 W/m 6,0 C 6,2 C 20,9 km/h (4 Bft) 95,74 %
22.10.2018 23:04 10,3 C 11,7 C 10,0 C 75 % 1028,1 hPa 0,0 l/m 15,6 km/h (3 Bft) S-SW 211 0 min 0,000 mm 0,0 UV-I 0 W/m 6,1 C 5,3 C 25,7 km/h (4 Bft) 94,34 %
22.10.2018 23:06 10,3 C 11,7 C 10,0 C 75 % 1028,2 hPa 0,0 l/m 15,1 km/h (3 Bft) SW 227 0 min 0,000 mm 0,0 UV-I 0 W/m 6,1 C 5,5 C 22,5 km/h (4 Bft) 95,83 %
22.10.2018 23:09 10,3 C 11,7 C 10,0 C 75 % 1028,0 hPa 0,0 l/m 15,7 km/h (3 Bft) W-SW 238 0 min 0,000 mm 0,0 UV-I 0 W/m 6,1 C 5,2 C 24,1 km/h (4 Bft) 95,88 %
22.10.2018 23:10 10,3 C 11,7 C 10,0 C 75 % 1028,0 hPa 0,0 l/m 15,1 km/h (3 Bft) SW 227 0 min 0,000 mm 0,0 UV-I 0 W/m 6,1 C 5,5 C 19,3 km/h (3 Bft) 85,71 %
22.10.2018 23:12 10,3 C 11,7 C 10,0 C 75 % 1028,0 hPa 0,0 l/m 13,8 km/h (3 Bft) W 259 0 min 0,000 mm 0,0 UV-I 0 W/m 6,1 C 6,0 C 20,9 km/h (4 Bft) 94,34 %
22.10.2018 23:14 10,3 C 11,7 C 10,0 C 75 % 1028,0 hPa 0,0 l/m 16,1 km/h (3 Bft) W-SW 255 0 min 0,000 mm 0,0 UV-I 0 W/m 6,1 C 5,1 C 22,5 km/h (4 Bft) 94,00 %
22.10.2018 23:16 10,3 C 11,7 C 10,0 C 75 % 1028,0 hPa 0,0 l/m 16,1 km/h (3 Bft) W-SW 241 0 min 0,000 mm 0,0 UV-I 0 W/m 6,1 C 5,1 C 25,7 km/h (4 Bft) 94,44 %
22.10.2018 23:19 10,3 C 11,7 C 10,0 C 75 % 1028,0 hPa 0,0 l/m 15,8 km/h (3 Bft) SW 221 0 min 0,000 mm 0,0 UV-I 0 W/m 6,1 C 5,2 C 24,1 km/h (4 Bft) 96,05 %
22.10.2018 23:20 10,3 C 11,7 C 10,0 C 75 % 1028,2 hPa 0,0 l/m 20,3 km/h (4 Bft) SW 234 0 min 0,000 mm 0,0 UV-I 0 W/m 6,1 C 3,6 C 25,7 km/h (4 Bft) 100,00 %
22.10.2018 23:22 10,3 C 11,7 C 10,0 C 75 % 1028,2 hPa 0,0 l/m 16,7 km/h (3 Bft) W 263 0 min 0,000 mm 0,0 UV-I 0 W/m 6,1 C 4,8 C 25,7 km/h (4 Bft) 94,87 %
22.10.2018 23:24 10,3 C 11,7 C 10,0 C 75 % 1028,3 hPa 0,0 l/m 13,7 km/h (3 Bft) W-SW 249 0 min 0,000 mm 0,0 UV-I 0 W/m 6,1 C 6,1 C 19,3 km/h (3 Bft) 94,34 %
22.10.2018 23:26 10,3 C 11,7 C 10,0 C 75 % 1028,3 hPa 0,0 l/m 11,3 km/h (2 Bft) W-SW 239 0 min 0,000 mm 0,0 UV-I 0 W/m 6,1 C 7,2 C 17,7 km/h (3 Bft) 96,00 %
22.10.2018 23:28 10,3 C 11,7 C 10,0 C 75 % 1028,3 hPa 0,0 l/m 14,4 km/h (3 Bft) W-SW 255 0 min 0,000 mm 0,0 UV-I 0 W/m 6,1 C 5,8 C 20,9 km/h (4 Bft) 97,37 %
22.10.2018 23:30 10,3 C 11,7 C 10,0 C 75 % 1028,2 hPa 0,0 l/m 16,4 km/h (3 Bft) W-SW 254 0 min 0,000 mm 0,0 UV-I 0 W/m 6,1 C 4,9 C 22,5 km/h (4 Bft) 97,87 %
22.10.2018 23:32 10,3 C 11,7 C 10,0 C 75 % 1028,2 hPa 0,0 l/m 14,7 km/h (3 Bft) W-SW 252 0 min 0,000 mm 0,0 UV-I 0 W/m 6,1 C 5,6 C 22,5 km/h (4 Bft) 97,87 %
22.10.2018 23:34 10,3 C 11,7 C 10,0 C 75 % 1028,1 hPa 0,0 l/m 12,1 km/h (2 Bft) SW 225 0 min 0,000 mm 0,0 UV-I 0 W/m 6,1 C 6,8 C 20,9 km/h (4 Bft) 98,11 %
22.10.2018 23:36 10,3 C 11,7 C 10,0 C 75 % 1028,0 hPa 0,0 l/m 13,3 km/h (3 Bft) SW 221 0 min 0,000 mm 0,0 UV-I 0 W/m 6,1 C 6,2 C 22,5 km/h (4 Bft) 97,37 %
22.10.2018 23:38 10,3 C 11,7 C 10,0 C 75 % 1028,1 hPa 0,0 l/m 15,0 km/h (3 Bft) W 277 0 min 0,000 mm 0,0 UV-I 0 W/m 6,1 C 5,5 C 22,5 km/h (4 Bft) 98,21 %
22.10.2018 23:40 10,3 C 11,7 C 10,0 C 75 % 1028,1 hPa 0,0 l/m 16,2 km/h (3 Bft) W-SW 254 0 min 0,000 mm 0,0 UV-I 0 W/m 6,1 C 5,0 C 24,1 km/h (4 Bft) 95,12 %
22.10.2018 23:42 10,3 C 11,7 C 10,0 C 75 % 1028,1 hPa 0,0 l/m 15,5 km/h (3 Bft) W-SW 240 0 min 0,000 mm 0,0 UV-I 0 W/m 6,1 C 5,3 C 22,5 km/h (4 Bft) 98,00 %
22.10.2018 23:44 10,3 C 11,7 C 10,0 C 74 % 1028,1 hPa 0,0 l/m 15,5 km/h (3 Bft) SW 233 0 min 0,000 mm 0,0 UV-I 0 W/m 5,9 C 5,3 C 24,1 km/h (4 Bft) 98,00 %
22.10.2018 23:46 10,3 C 11,7 C 10,0 C 74 % 1028,1 hPa 0,0 l/m 14,0 km/h (3 Bft) W 277 0 min 0,000 mm 0,0 UV-I 0 W/m 5,9 C 5,9 C 20,9 km/h (4 Bft) 97,37 %
22.10.2018 23:48 10,3 C 11,7 C 10,0 C 74 % 1028,1 hPa 0,0 l/m 12,3 km/h (3 Bft) W-SW 250 0 min 0,000 mm 0,0 UV-I 0 W/m 5,9 C 6,7 C 22,5 km/h (4 Bft) 100,00 %
22.10.2018 23:50 10,3 C 11,7 C 10,0 C 74 % 1028,0 hPa 0,0 l/m 14,0 km/h (3 Bft) W-NW 285 0 min 0,000 mm 0,0 UV-I 0 W/m 5,9 C 5,9 C 20,9 km/h (4 Bft) 98,00 %
22.10.2018 23:52 10,3 C 11,7 C 10,0 C 74 % 1028,0 hPa 0,0 l/m 12,5 km/h (3 Bft) W 261 0 min 0,000 mm 0,0 UV-I 0 W/m 5,9 C 6,6 C 20,9 km/h (4 Bft) 97,87 %
22.10.2018 23:54 10,3 C 11,7 C 10,0 C 74 % 1028,0 hPa 0,0 l/m 13,9 km/h (3 Bft) W-SW 243 0 min 0,000 mm 0,0 UV-I 0 W/m 5,9 C 6,0 C 19,3 km/h (3 Bft) 97,87 %
22.10.2018 23:56 10,3 C 11,7 C 10,0 C 74 % 1027,9 hPa 0,0 l/m 13,7 km/h (3 Bft) SW 219 0 min 0,000 mm 0,0 UV-I 0 W/m 5,9 C 6,1 C 19,3 km/h (3 Bft) 97,62 %
22.10.2018 23:58 10,3 C 11,7 C 10,0 C 74 % 1028,0 hPa 0,0 l/m 14,3 km/h (3 Bft) W-SW 252 0 min 0,000 mm 0,0 UV-I 0 W/m 5,9 C 5,8 C 22,5 km/h (4 Bft) 97,87 %
_ Min-Zeit 06:46 08:06 07:28 15:12 14:44 - 00:00 - - - - - - 06:46 06:46 00:00 23:10
Minimum _ 1,7 C 11,1 C -2,2 C 57 % 1025,4 hPa - 0,0 km/h (0 Bft) - - - - - - 0,8 C 1,7 C 0,0 km/h (0 Bft) 85,71 %
_ Max-Zeit 15:10 00:00 11:44 06:10 23:24 00:00 23:20 - - 09:45 13:02 12:10 12:44 12:10 15:10 23:04 00:14
Maximum _ 13,9 C 11,7 C 21,7 C 95 % 1028,3 hPa 0,0 l/m 20,3 km/h
SW (4 Bft)
- - 3 min 0,254 mm 1,4 UV-I 464 W/m 7,2 C 13,9 C 25,7 km/h
W-SW (4 Bft)
100,00 %
Durchschnitt _ 8,0 C 11,6 C 6,9 C 79 % 1026,5 hPa #0,0 l/m 4,5 km/h (1 Bft) S-SW - #9:50 h #1,626 mm 1,0 UV-I 261 W/m 4,4 C 7,5 C 7,0 km/h (2 Bft) 97,28 %